[[{"header":{"parameterUnit":"m.s-1","parameterCategory":1,"la1":31.0,"la2":29.5877,"lo1":-88.7671,"lo2":-86.6584,"dy":0.0162,"dx":0.0185,"nx":115,"ny":88,"refTime":"2024-07-01T00:00:00:Z","depth":0,"parameterNumber":2,"parameterNumberName":"U-component_of_WINDS"},"data":[0.0,0.0,0.0,0.0,0.0,0.0,0.0,0.0,0.0,0.0,0.0,0.0,0.0,0.0,0.0,0.0,0.0,0.0,0.0,0.0,0.0,0.0,0.0,0.0,0.0,0.0,0.0,0.0,0.0,0.0,0.0,0.0,0.0,0.0,0.0,0.0,0.0,0.0,0.0,0.0,0.0,0.0,0.0,0.0,0.0,0.0,0.0,0.0,0.0,0.0,0.0,0.0,0.0,0.0,0.0,0.0,0.0,0.0,0.0,0.0,0.0,0.0,0.0,0.0,0.0,0.0,0.0,0.0,0.0,0.0,0.0,0.0,0.0,0.0,0.0,0.0,0.0,0.0,0.0,0.0,0.0,0.0,0.0,0.0,0.0,0.0,0.0,0.0,0.0,0.0,0.0,0.0,0.0,0.0,0.0,0.0,0.0,0.0,0.0,0.0,0.0,0.0,0.0,0.0,0.0,0.0,0.0,0.0,0.0,0.0,0.0,0.0,0.0,0.0,0.0,0.0,0.0,0.0,0.0,0.0,0.0,0.0,0.0,0.0,0.0,0.0,0.0,0.0,0.0,0.0,0.0,0.0,0.0,0.0,0.0,0.0,0.0,0.0,0.0,0.0,0.0,0.0,0.0,0.0,0.0,0.0,0.0,0.0,0.0,0.0,0.0,0.0,0.0,0.0,0.0,0.0,0.0,0.0,0.0,0.0,0.0,0.0,0.0,0.0,0.0,0.0,0.0,0.0,0.0,0.0,0.0,0.0,0.0,0.0,0.0,0.0,0.0,0.0,0.0,0.0,0.0,0.0,0.0,0.0,0.0,0.0,0.0,0.0,0.0,0.0,0.0,0.0,0.0,0.0,0.0,0.0,0.0,0.0,0.0,0.0,0.0,0.0,0.0,0.0,0.0,0.0,0.0,0.0,0.0,0.0,0.0,0.0,0.0,0.0,0.0,0.0,0.0,0.0,0.0,0.0,0.0,0.0,0.0,0.0,0.0,0.0,0.0,0.0,0.0,0.0,0.0,0.0,0.0,0.0,0.0,0.0,0.0,0.0,0.0,0.0,0.0,0.0,0.0,0.0,0.0,0.0,0.0,0.0,0.0,0.0,0.0,0.0,0.0,0.0,0.0,0.0,0.0,0.0,0.0,0.0,0.0,0.0,0.0,0.0,0.0,0.0,0.0,0.0,0.0,0.0,0.0,0.0,0.0,0.0,0.0,0.0,0.0,0.0,0.0,0.0,0.0,0.0,0.0,0.0,0.0,0.0,0.0,0.0,0.0,0.0,0.0,0.0,0.0,0.0,0.0,0.0,0.0,0.0,0.0,0.0,0.0,0.0,0.0,0.0,0.0,0.0,0.0,0.0,0.0,0.0,0.0,0.0,0.0,0.0,0.0,0.0,0.0,0.0,0.0,0.0,0.0,0.0,0.0,0.0,0.0,0.0,0.0,0.0,0.0,0.0,0.0,0.0,0.0,0.0,0.0,0.0,0.0,0.0,0.0,0.0,0.0,0.0,0.0,0.0,0.0,0.0,0.0,0.0,0.0,0.0,0.0,0.0,0.0,0.0,0.0,0.0,0.0,0.0,0.0,0.0,0.0,0.0,0.0,0.0,0.0,0.0,0.0,0.0,0.0,0.0,0.0,0.0,0.0,0.0,0.0,0.0,0.0,0.0,0.0,0.0,0.0,0.0,0.0,0.0,0.0,0.0,0.0,0.0,0.0,0.0,0.0,0.0,0.0,0.0,0.0,0.0,0.0,0.0,0.0,0.0,0.0,0.0,0.0,0.0,0.0,0.0,0.0,0.0,0.0,0.0,0.0,0.0,0.0,0.0,0.0,0.0,0.0,0.0,0.0,0.0,0.0,0.0,0.0,0.0,0.0,0.0,0.0,0.0,0.0,0.0,0.0,0.0,0.0,0.0,0.0,0.0,0.0,0.0,0.0,0.0,0.0,0.0,0.0,0.0,0.0,0.0,0.0,0.0,0.0,0.0,0.0,0.0,0.0,0.0,0.0,0.0,0.0,0.0,0.0,0.0,0.0,0.0,0.0,0.0,0.0,0.0,0.0,0.0,0.0,0.0,0.0,0.0,0.0,0.0,0.0,0.0,0.0,0.0,0.0,0.0,0.0,0.0,0.0,0.0,0.0,0.0,0.0,0.0,0.0,0.0,0.0,0.0,0.0,0.0,0.0,0.0,0.0,0.0,0.0,0.0,0.0,0.0,0.0,0.0,0.0,0.0,0.0,0.0,0.0,0.0,0.0,0.0,0.0,0.0,0.0,0.0,0.0,0.0,0.0,0.0,0.0,0.0,0.0,0.0,0.0,0.0,0.0,0.0,0.0,0.0,0.0,0.0,0.0,0.0,0.0,0.0,0.0,0.0,0.0,0.0,0.0,0.0,0.0,0.0,0.0,0.0,0.0,0.0,0.0,0.0,0.0,0.0,0.0,0.0,0.0,0.0,0.0,0.0,0.0,0.0,0.0,0.0,0.0,0.0,0.0,0.0,0.0,0.0,0.0,0.0,0.0,0.0,0.0,0.0,0.0,0.0,0.0,0.0,0.0,0.0,0.0,0.0,0.0,0.0,0.0,0.0,0.0,0.0,0.0,0.0,0.0,0.0,0.0,0.0,0.0,0.0,0.0,0.0,0.0,0.0,0.0,0.0,0.0,0.0,0.0,0.0,0.0,0.0,0.0,0.0,0.0,0.0,0.0,0.0,0.0,0.0,0.0,0.0,0.0,0.0,0.0,0.0,0.0,0.0,0.0,0.0,0.0,0.0,0.0,0.0,0.0,0.0,0.0,0.0,0.0,0.0,0.0,0.0,0.0,0.0,0.0,0.0,0.0,0.0,0.0,0.0,0.0,0.0,0.0,0.0,0.0,0.0,0.0,0.0,0.0,0.0,0.0,0.0,0.0,0.0,0.0,0.0,0.0,0.0,0.0,0.0,0.0,0.0,0.0,0.0,0.0,0.0,0.0,0.0,0.0,0.0,0.0,0.0,0.0,0.0,0.0,0.0,0.0,0.0,0.0,0.0,0.0,0.0,0.0,0.0,0.0,0.0,0.0,0.0,0.0,0.0,0.0,0.0,0.0,0.0,0.0,0.0,0.0,0.0,0.0,0.0,0.0,0.0,0.0,0.0,0.0,0.0,0.0,0.0,0.0,0.0,0.0,0.0,0.0,0.0,0.0,0.0,0.0,0.0,0.0,0.0,0.0,0.0,0.0,0.0,0.0,0.0,0.0,0.0,0.0,0.0,0.0,0.0,0.0,0.0,0.0,0.0,0.0,0.0,0.0,0.0,0.0,0.0,0.0,0.0,0.0,0.0,0.0,0.0,0.0,0.0,0.0,0.0,0.0,0.0,0.0,0.0,0.0,0.0,0.0,0.0,0.0,0.0,0.0,0.0,0.0,0.0,0.0,0.0,0.0,0.0,0.0,0.0,0.0,0.0,0.0,0.0,0.0,0.0,0.0,0.0,0.0,0.0,0.0,0.0,0.0,0.0,0.0,0.0,0.0,0.0,0.0,0.0,0.0,0.0,0.0,0.0,0.0,0.0,0.0,0.0,0.0,0.0,0.0,0.0,0.0,0.0,0.0,0.0,0.0,0.0,0.0,0.0,0.0,0.0,0.0,0.0,0.0,0.0,0.0,0.0,0.0,0.0,0.0,0.0,0.0,0.0,0.0,0.0,0.0,0.0,0.0,0.0,0.0,0.0,0.0,0.0,0.0,0.0,0.0,0.0,0.0,0.0,0.0,0.0,0.0,0.0,0.0,0.0,0.0,0.0,0.0,0.0,0.0,0.0,0.0,0.0,0.0,0.0,0.0,0.0,0.0,0.0,0.0,0.0,0.0,0.0,0.0,0.0,0.0,0.0,0.0,0.0,0.0,0.0,0.0,0.0,0.0,0.0,0.0,0.0,0.0,0.0,0.0,0.0,0.0,0.0,0.0,0.0,0.0,0.0,0.0,0.0,0.0,0.0,0.0,0.0,0.0,0.0,0.0,0.0,0.0,0.0,0.0,0.0,0.0,0.0,0.0,0.0,0.0,0.0,0.0,0.0,0.0,0.0,0.0,0.0,0.0,0.0,0.0,0.0,0.0,0.0,0.0,0.0,0.0,0.0,0.0,0.0,0.0,0.0,0.0,0.0,0.0,0.0,0.0,0.0,0.0,0.0,0.0,0.0,0.0,0.0,0.0,0.0,0.0,0.0,0.0,0.0,0.0,0.0,0.0,0.0,0.0,0.0,0.0,0.0,0.0,0.0,0.0,0.0,-2.6404,0.0,0.0,0.0,0.0,0.0,0.0,0.0,0.0,0.0,0.0,0.0,0.0,0.0,0.0,0.0,0.0,0.0,0.0,0.0,0.0,0.0,0.0,0.0,0.0,0.0,0.0,0.0,0.0,0.0,0.0,0.0,0.0,0.0,0.0,0.0,0.0,0.0,0.0,0.0,0.0,0.0,0.0,0.0,0.0,0.0,0.0,0.0,0.0,0.0,0.0,0.0,0.0,0.0,0.0,0.0,0.0,0.0,0.0,0.0,0.0,0.0,0.0,0.0,0.0,0.0,0.0,0.0,0.0,0.0,0.0,0.0,0.0,0.0,0.0,0.0,0.0,0.0,0.0,0.0,0.0,0.0,0.0,0.0,0.0,0.0,0.0,0.0,0.0,0.0,0.0,0.0,0.0,0.0,0.0,0.0,0.0,0.0,0.0,0.0,0.0,0.0,0.0,0.0,0.0,0.0,0.0,0.0,0.0,0.0,0.0,-2.9511,-2.905,-2.8295,-2.747,-2.6568,0.0,0.0,0.0,0.0,0.0,0.0,0.0,0.0,0.0,0.0,0.0,0.0,0.0,0.0,0.0,0.0,0.0,0.0,0.0,0.0,0.0,0.0,0.0,0.0,0.0,0.0,0.0,0.0,0.0,0.0,0.0,0.0,0.0,0.0,0.0,0.0,0.0,0.0,0.0,0.0,0.0,0.0,0.0,0.0,0.0,0.0,0.0,0.0,0.0,0.0,0.0,0.0,0.0,0.0,0.0,0.0,0.0,0.0,0.0,0.0,0.0,0.0,0.0,0.0,0.0,0.0,0.0,0.0,0.0,0.0,0.0,0.0,0.0,0.0,0.0,0.0,0.0,0.0,0.0,0.0,0.0,0.0,0.0,0.0,0.0,0.0,0.0,0.0,0.0,0.0,0.0,0.0,0.0,0.0,0.0,0.0,0.0,0.0,0.0,0.0,0.0,0.0,0.0,0.0,0.0,0.0,0.0,0.0,0.0,0.0,0.0,0.0,-2.911,-2.8223,-2.6575,0.0,0.0,0.0,0.0,0.0,0.0,0.0,0.0,0.0,0.0,0.0,0.0,0.0,0.0,0.0,0.0,0.0,0.0,0.0,0.0,0.0,0.0,0.0,0.0,0.0,0.0,0.0,0.0,0.0,0.0,0.0,0.0,0.0,0.0,0.0,0.0,0.0,0.0,0.0,0.0,0.0,0.0,0.0,0.0,0.0,0.0,0.0,0.0,0.0,0.0,0.0,0.0,0.0,0.0,0.0,0.0,0.0,0.0,0.0,0.0,0.0,0.0,0.0,0.0,0.0,0.0,0.0,0.0,0.0,0.0,0.0,0.0,0.0,0.0,0.0,0.0,0.0,0.0,0.0,0.0,0.0,0.0,0.0,0.0,0.0,0.0,0.0,0.0,0.0,0.0,0.0,0.0,0.0,0.0,0.0,0.0,0.0,0.0,0.0,0.0,0.0,0.0,0.0,0.0,0.0,0.0,0.0,0.0,0.0,0.0,-3.0254,-3.0177,-2.9404,0.0,-2.6603,0.0,0.0,0.0,0.0,0.0,0.0,0.0,0.0,0.0,0.0,0.0,0.0,0.0,0.0,0.0,0.0,0.0,0.0,0.0,0.0,0.0,0.0,0.0,0.0,0.0,0.0,0.0,0.0,0.0,0.0,0.0,0.0,0.0,0.0,0.0,0.0,0.0,0.0,0.0,0.0,0.0,0.0,0.0,0.0,0.0,0.0,0.0,0.0,0.0,0.0,0.0,0.0,0.0,0.0,0.0,0.0,0.0,0.0,0.0,0.0,0.0,0.0,0.0,0.0,0.0,0.0,0.0,0.0,0.0,0.0,0.0,0.0,0.0,0.0,0.0,0.0,0.0,0.0,0.0,0.0,0.0,0.0,0.0,0.0,0.0,0.0,0.0,0.0,0.0,0.0,0.0,0.0,0.0,0.0,0.0,0.0,0.0,0.0,0.0,0.0,0.0,0.0,0.0,0.0,0.0,0.0,0.0,0.0,0.0,0.0,0.0,-3.0171,-2.9303,-2.8264,0.0,0.0,0.0,0.0,0.0,0.0,0.0,0.0,0.0,0.0,0.0,0.0,0.0,0.0,0.0,0.0,0.0,0.0,0.0,0.0,0.0,0.0,0.0,0.0,0.0,0.0,0.0,0.0,0.0,0.0,0.0,0.0,0.0,0.0,0.0,0.0,0.0,0.0,0.0,0.0,0.0,0.0,0.0,0.0,0.0,0.0,0.0,0.0,0.0,0.0,0.0,0.0,0.0,0.0,0.0,0.0,0.0,0.0,0.0,0.0,0.0,0.0,0.0,0.0,0.0,0.0,0.0,0.0,0.0,0.0,0.0,0.0,0.0,0.0,0.0,0.0,0.0,0.0,0.0,0.0,0.0,0.0,0.0,0.0,0.0,0.0,0.0,0.0,0.0,0.0,0.0,0.0,0.0,0.0,0.0,0.0,0.0,0.0,0.0,0.0,0.0,0.0,0.0,0.0,0.0,0.0,0.0,0.0,0.0,0.0,-2.9764,0.0,-3.0015,-2.9171,-2.8305,-2.7475,0.0,0.0,0.0,0.0,0.0,0.0,0.0,0.0,0.0,0.0,0.0,0.0,0.0,0.0,0.0,0.0,0.0,0.0,0.0,0.0,0.0,0.0,0.0,0.0,0.0,0.0,0.0,0.0,0.0,0.0,0.0,0.0,0.0,0.0,0.0,0.0,0.0,0.0,0.0,0.0,0.0,0.0,0.0,0.0,0.0,0.0,0.0,0.0,0.0,0.0,0.0,0.0,0.0,0.0,0.0,0.0,0.0,0.0,0.0,0.0,0.0,0.0,0.0,0.0,0.0,0.0,0.0,0.0,0.0,0.0,0.0,0.0,0.0,0.0,0.0,0.0,0.0,0.0,0.0,0.0,0.0,0.0,0.0,0.0,0.0,0.0,0.0,0.0,0.0,0.0,0.0,0.0,0.0,0.0,0.0,0.0,0.0,0.0,0.0,0.0,0.0,0.0,0.0,0.0,0.0,0.0,0.0,0.0,0.0,-3.0053,-3.0053,-3.0026,-2.917,-2.8274,0.0,0.0,0.0,0.0,0.0,0.0,0.0,0.0,0.0,0.0,0.0,0.0,0.0,0.0,0.0,0.0,0.0,0.0,0.0,0.0,0.0,0.0,0.0,0.0,0.0,0.0,0.0,0.0,0.0,0.0,0.0,0.0,0.0,0.0,0.0,0.0,0.0,0.0,0.0,0.0,0.0,0.0,0.0,0.0,0.0,0.0,0.0,0.0,0.0,0.0,0.0,0.0,0.0,0.0,0.0,0.0,0.0,0.0,0.0,0.0,0.0,0.0,0.0,0.0,0.0,0.0,0.0,0.0,0.0,0.0,0.0,0.0,0.0,0.0,0.0,0.0,0.0,0.0,0.0,0.0,0.0,0.0,0.0,0.0,0.0,0.0,0.0,0.0,0.0,0.0,0.0,0.0,0.0,0.0,0.0,0.0,0.0,0.0,0.0,0.0,0.0,0.0,0.0,0.0,0.0,0.0,0.0,0.0,0.0,-2.9782,-2.9883,-3.0148,-3.0576,-2.9808,-2.8664,0.0,0.0,0.0,0.0,0.0,0.0,0.0,0.0,0.0,0.0,0.0,0.0,0.0,0.0,0.0,0.0,0.0,0.0,0.0,0.0,0.0,0.0,0.0,0.0,0.0,0.0,0.0,0.0,0.0,0.0,0.0,0.0,0.0,0.0,0.0,0.0,0.0,0.0,0.0,0.0,0.0,0.0,0.0,0.0,0.0,0.0,0.0,0.0,0.0,0.0,0.0,0.0,0.0,0.0,0.0,0.0,0.0,0.0,0.0,0.0,0.0,0.0,0.0,0.0,0.0,0.0,0.0,0.0,0.0,0.0,0.0,0.0,0.0,0.0,0.0,0.0,0.0,0.0,0.0,0.0,0.0,0.0,0.0,0.0,0.0,0.0,0.0,0.0,0.0,0.0,0.0,0.0,0.0,0.0,0.0,0.0,0.0,0.0,0.0,0.0,0.0,0.0,0.0,0.0,0.0,0.0,0.0,0.0,0.0,-3.0112,0.0,-3.0819,0.0,-3.0509,-2.9223,0.0,0.0,0.0,0.0,0.0,0.0,0.0,0.0,0.0,0.0,0.0,0.0,0.0,0.0,0.0,0.0,0.0,0.0,0.0,0.0,0.0,0.0,0.0,0.0,0.0,0.0,0.0,0.0,0.0,0.0,0.0,0.0,0.0,0.0,0.0,0.0,0.0,0.0,0.0,0.0,0.0,0.0,0.0,0.0,0.0,0.0,0.0,0.0,0.0,0.0,0.0,0.0,0.0,0.0,0.0,0.0,0.0,0.0,0.0,0.0,0.0,0.0,0.0,0.0,0.0,0.0,0.0,0.0,0.0,0.0,0.0,0.0,0.0,0.0,0.0,0.0,0.0,0.0,0.0,0.0,0.0,0.0,0.0,0.0,0.0,0.0,0.0,0.0,0.0,0.0,0.0,0.0,0.0,0.0,0.0,0.0,0.0,0.0,0.0,0.0,0.0,0.0,0.0,0.0,0.0,0.0,0.0,0.0,-2.9251,-3.0989,-3.1816,-3.2172,-3.2122,-3.1274,-2.9959,0.0,0.0,0.0,0.0,0.0,0.0,0.0,0.0,0.0,0.0,0.0,0.0,0.0,0.0,0.0,0.0,0.0,0.0,0.0,0.0,0.0,0.0,0.0,0.0,0.0,0.0,0.0,0.0,0.0,0.0,0.0,0.0,0.0,0.0,0.0,0.0,0.0,0.0,0.0,0.0,0.0,0.0,0.0,0.0,0.0,0.0,0.0,0.0,0.0,0.0,0.0,0.0,0.0,0.0,0.0,0.0,0.0,0.0,0.0,0.0,0.0,0.0,0.0,0.0,0.0,0.0,0.0,0.0,0.0,0.0,0.0,0.0,0.0,0.0,0.0,0.0,0.0,0.0,0.0,0.0,0.0,0.0,0.0,0.0,0.0,0.0,0.0,0.0,0.0,0.0,0.0,0.0,0.0,0.0,0.0,0.0,0.0,0.0,0.0,0.0,0.0,0.0,0.0,0.0,0.0,0.0,0.0,0.0,0.0,-3.3283,-3.305,-3.3152,-3.3624,-3.2258,-3.0666,0.0,0.0,0.0,0.0,0.0,0.0,0.0,0.0,0.0,0.0,0.0,0.0,0.0,0.0,0.0,0.0,0.0,0.0,0.0,0.0,0.0,0.0,0.0,0.0,0.0,0.0,0.0,0.0,0.0,0.0,0.0,0.0,0.0,0.0,0.0,0.0,0.0,0.0,0.0,0.0,0.0,0.0,0.0,0.0,0.0,0.0,0.0,0.0,0.0,0.0,0.0,0.0,0.0,0.0,0.0,0.0,0.0,0.0,0.0,0.0,0.0,0.0,0.0,0.0,0.0,0.0,0.0,0.0,0.0,0.0,0.0,0.0,0.0,0.0,0.0,0.0,0.0,0.0,0.0,0.0,0.0,0.0,0.0,0.0,0.0,0.0,0.0,0.0,0.0,0.0,0.0,0.0,0.0,0.0,0.0,0.0,0.0,0.0,0.0,0.0,0.0,0.0,0.0,0.0,0.0,0.0,0.0,0.0,0.0,-3.5987,-3.5324,-3.515,-3.5653,-3.3975,-3.2129,-3.0161,0.0,0.0,0.0,0.0,0.0,0.0,0.0,0.0,0.0,0.0,0.0,0.0,0.0,0.0,0.0,0.0,0.0,0.0,0.0,0.0,0.0,0.0,0.0,0.0,0.0,0.0,0.0,0.0,0.0,0.0,0.0,0.0,0.0,0.0,0.0,0.0,0.0,0.0,0.0,0.0,0.0,0.0,0.0,0.0,0.0,0.0,0.0,0.0,0.0,0.0,0.0,0.0,0.0,0.0,0.0,0.0,0.0,0.0,0.0,0.0,0.0,0.0,0.0,0.0,0.0,0.0,0.0,0.0,0.0,0.0,0.0,0.0,0.0,0.0,0.0,0.0,0.0,0.0,0.0,0.0,0.0,0.0,0.0,0.0,0.0,0.0,0.0,0.0,0.0,0.0,0.0,0.0,0.0,0.0,0.0,0.0,0.0,0.0,0.0,0.0,0.0,0.0,0.0,0.0,0.0,0.0,0.0,0.0,-3.8914,-3.8362,-3.7979,-3.7826,-3.6154,-3.4094,0.0,0.0,0.0,0.0,0.0,0.0,0.0,0.0,0.0,0.0,0.0,0.0,0.0,0.0,0.0,0.0,0.0,0.0,0.0,0.0,0.0,0.0,0.0,0.0,0.0,0.0,0.0,0.0,0.0,0.0,0.0,0.0,0.0,0.0,0.0,0.0,0.0,0.0,0.0,0.0,0.0,0.0,0.0,0.0,0.0,0.0,0.0,0.0,0.0,0.0,0.0,0.0,0.0,0.0,0.0,0.0,0.0,0.0,0.0,0.0,0.0,0.0,0.0,0.0,0.0,0.0,0.0,0.0,0.0,0.0,0.0,0.0,0.0,0.0,0.0,0.0,0.0,0.0,0.0,0.0,0.0,0.0,0.0,0.0,0.0,0.0,0.0,0.0,0.0,0.0,0.0,0.0,0.0,0.0,0.0,0.0,0.0,0.0,0.0,0.0,0.0,0.0,0.0,0.0,0.0,0.0,0.0,0.0,0.0,-3.954,-4.0604,-4.0317,-3.8648,-3.6985,-3.4921,0.0,0.0,0.0,0.0,0.0,0.0,0.0,0.0,0.0,0.0,0.0,0.0,0.0,0.0,0.0,0.0,0.0,0.0,0.0,0.0,0.0,0.0,0.0,0.0,0.0,0.0,0.0,0.0,0.0,0.0,0.0,0.0,0.0,0.0,0.0,0.0,0.0,0.0,0.0,0.0,0.0,0.0,0.0,0.0,0.0,0.0,0.0,0.0,0.0,0.0,0.0,0.0,0.0,0.0,0.0,0.0,0.0,0.0,0.0,0.0,0.0,0.0,0.0,0.0,0.0,0.0,0.0,0.0,0.0,0.0,0.0,0.0,0.0,0.0,0.0,0.0,0.0,0.0,0.0,0.0,0.0,0.0,0.0,0.0,0.0,0.0,0.0,0.0,0.0,0.0,0.0,0.0,0.0,0.0,0.0,0.0,0.0,0.0,0.0,0.0,0.0,0.0,0.0,0.0,0.0,0.0,0.0,0.0,-3.8322,-4.0377,-4.1974,-4.1858,-3.9875,-3.8228,-3.6048,0.0,0.0,0.0,0.0,0.0,0.0,0.0,0.0,0.0,0.0,0.0,0.0,0.0,0.0,0.0,0.0,0.0,0.0,0.0,0.0,0.0,0.0,0.0,0.0,0.0,0.0,0.0,0.0,0.0,0.0,0.0,0.0,0.0,0.0,0.0,0.0,0.0,0.0,0.0,0.0,0.0,0.0,0.0,0.0,0.0,0.0,0.0,0.0,0.0,0.0,0.0,0.0,0.0,0.0,0.0,0.0,0.0,0.0,0.0,0.0,0.0,0.0,0.0,0.0,0.0,0.0,0.0,0.0,0.0,0.0,0.0,0.0,0.0,0.0,0.0,0.0,0.0,0.0,0.0,0.0,0.0,0.0,0.0,0.0,0.0,0.0,0.0,0.0,0.0,0.0,0.0,0.0,0.0,0.0,0.0,0.0,0.0,0.0,0.0,0.0,0.0,0.0,0.0,0.0,0.0,0.0,0.0,0.0,-3.9462,-4.1077,-4.2598,-4.2653,-4.1132,-3.9536,-3.7165,0.0,0.0,0.0,0.0,0.0,0.0,0.0,0.0,0.0,0.0,0.0,0.0,0.0,0.0,0.0,0.0,0.0,0.0,0.0,0.0,0.0,0.0,0.0,0.0,0.0,0.0,0.0,0.0,0.0,0.0,0.0,0.0,0.0,0.0,0.0,0.0,0.0,0.0,0.0,0.0,0.0,0.0,0.0,0.0,0.0,0.0,0.0,0.0,0.0,0.0,0.0,0.0,0.0,0.0,0.0,0.0,0.0,0.0,0.0,0.0,0.0,0.0,0.0,0.0,0.0,0.0,0.0,0.0,0.0,0.0,0.0,0.0,0.0,0.0,0.0,0.0,0.0,0.0,0.0,0.0,0.0,0.0,0.0,0.0,0.0,0.0,0.0,0.0,0.0,0.0,0.0,0.0,0.0,0.0,0.0,0.0,0.0,0.0,0.0,0.0,0.0,0.0,0.0,0.0,0.0,0.0,0.0,0.0,-3.9478,-4.1077,-4.2066,-4.2084,-4.1113,-3.9536,-3.7165,0.0,0.0,0.0,0.0,0.0,0.0,0.0,0.0,0.0,0.0,0.0,0.0,0.0,0.0,0.0,0.0,0.0,0.0,0.0,0.0,0.0,0.0,0.0,0.0,0.0,0.0,0.0,0.0,0.0,0.0,0.0,0.0,0.0,0.0,0.0,0.0,0.0,0.0,0.0,0.0,0.0,0.0,0.0,0.0,0.0,0.0,0.0,0.0,-2.6088,0.0,0.0,0.0,0.0,0.0,0.0,0.0,0.0,0.0,0.0,0.0,0.0,0.0,0.0,0.0,0.0,0.0,0.0,0.0,0.0,0.0,0.0,0.0,0.0,0.0,0.0,0.0,0.0,0.0,0.0,0.0,0.0,0.0,0.0,0.0,0.0,0.0,0.0,0.0,0.0,0.0,0.0,0.0,0.0,0.0,0.0,0.0,0.0,0.0,0.0,0.0,0.0,0.0,0.0,0.0,0.0,0.0,0.0,0.0,-3.8927,-4.0487,-4.1332,-4.1334,-4.0524,-3.8964,-3.678,0.0,0.0,0.0,0.0,0.0,0.0,0.0,0.0,0.0,0.0,0.0,0.0,0.0,0.0,0.0,0.0,0.0,0.0,0.0,0.0,0.0,0.0,0.0,0.0,0.0,0.0,0.0,0.0,0.0,0.0,0.0,0.0,0.0,0.0,0.0,0.0,0.0,0.0,0.0,0.0,0.0,0.0,0.0,0.0,0.0,0.0,0.0,0.0,0.0,0.0,0.0,0.0,0.0,0.0,0.0,0.0,0.0,0.0,0.0,0.0,0.0,0.0,0.0,0.0,0.0,0.0,0.0,0.0,0.0,0.0,0.0,0.0,0.0,0.0,0.0,0.0,0.0,0.0,0.0,0.0,0.0,0.0,0.0,0.0,0.0,0.0,0.0,0.0,0.0,0.0,0.0,0.0,0.0,0.0,0.0,0.0,0.0,0.0,0.0,0.0,0.0,0.0,0.0,0.0,0.0,0.0,0.0,-3.6244,-3.8282,-3.9843,-4.0579,-4.0598,-3.99,-3.8227,-3.6211,-3.388,0.0,0.0,0.0,0.0,0.0,0.0,0.0,0.0,0.0,0.0,0.0,0.0,0.0,0.0,0.0,0.0,0.0,0.0,0.0,0.0,0.0,0.0,0.0,0.0,0.0,0.0,0.0,0.0,0.0,0.0,0.0,0.0,0.0,0.0,0.0,0.0,0.0,0.0,-2.4365,-2.5191,0.0,0.0,0.0,0.0,0.0,0.0,0.0,0.0,-2.6969,0.0,0.0,0.0,0.0,0.0,0.0,0.0,0.0,0.0,0.0,0.0,0.0,0.0,0.0,0.0,0.0,0.0,0.0,0.0,0.0,0.0,0.0,0.0,0.0,0.0,0.0,0.0,0.0,0.0,0.0,0.0,0.0,0.0,0.0,0.0,0.0,0.0,0.0,0.0,0.0,0.0,0.0,0.0,0.0,0.0,0.0,0.0,0.0,0.0,0.0,0.0,0.0,0.0,0.0,0.0,0.0,-3.3807,-3.6244,-3.8282,-3.9827,-4.0029,-4.0029,-3.9861,-3.7694,-3.5642,-3.3825,0.0,0.0,0.0,0.0,0.0,0.0,0.0,0.0,0.0,0.0,0.0,0.0,0.0,0.0,0.0,0.0,0.0,0.0,0.0,0.0,0.0,0.0,0.0,0.0,0.0,0.0,0.0,0.0,0.0,0.0,0.0,0.0,0.0,0.0,0.0,0.0,0.0,0.0,0.0,-2.6458,-2.7449,0.0,0.0,0.0,0.0,0.0,0.0,0.0,0.0,-2.8543,0.0,0.0,0.0,0.0,0.0,0.0,0.0,0.0,0.0,0.0,0.0,0.0,0.0,0.0,0.0,0.0,0.0,0.0,0.0,0.0,0.0,0.0,0.0,0.0,0.0,0.0,0.0,0.0,0.0,0.0,0.0,0.0,0.0,0.0,0.0,0.0,0.0,0.0,0.0,0.0,0.0,0.0,0.0,0.0,0.0,0.0,0.0,0.0,0.0,0.0,0.0,0.0,0.0,0.0,0.0,-3.3238,-3.5624,-3.7456,-3.8631,-3.9056,-3.909,-3.8631,-3.6688,-3.4857,0.0,0.0,0.0,0.0,0.0,0.0,0.0,0.0,0.0,0.0,0.0,0.0,0.0,0.0,0.0,0.0,0.0,0.0,0.0,0.0,0.0,0.0,0.0,0.0,0.0,0.0,0.0,0.0,0.0,0.0,0.0,0.0,0.0,0.0,0.0,0.0,0.0,0.0,0.0,0.0,-2.7402,-2.8576,-2.898,0.0,0.0,0.0,0.0,0.0,0.0,-3.0246,-2.9817,0.0,0.0,0.0,0.0,0.0,0.0,0.0,0.0,0.0,0.0,0.0,0.0,0.0,0.0,0.0,0.0,0.0,0.0,0.0,0.0,0.0,0.0,0.0,0.0,0.0,0.0,0.0,0.0,0.0,0.0,0.0,0.0,0.0,0.0,0.0,0.0,0.0,0.0,0.0,0.0,0.0,0.0,0.0,0.0,0.0,0.0,0.0,0.0,0.0,0.0,0.0,0.0,0.0,0.0,0.0,-3.2619,-3.4706,-3.6285,-3.7235,-3.7881,-3.79,-3.7254,-3.5624,-3.3995,0.0,0.0,0.0,0.0,0.0,0.0,0.0,0.0,0.0,0.0,0.0,0.0,0.0,0.0,0.0,0.0,0.0,0.0,0.0,0.0,0.0,0.0,0.0,0.0,0.0,0.0,0.0,0.0,0.0,0.0,0.0,0.0,0.0,0.0,0.0,0.0,0.0,0.0,0.0,0.0,0.0,-2.9507,-3.0314,-3.0937,0.0,0.0,0.0,0.0,-3.1234,-3.1095,0.0,0.0,0.0,0.0,0.0,0.0,0.0,0.0,0.0,0.0,0.0,0.0,0.0,0.0,0.0,0.0,0.0,0.0,0.0,0.0,0.0,0.0,0.0,0.0,0.0,0.0,0.0,0.0,0.0,0.0,0.0,0.0,0.0,0.0,0.0,0.0,0.0,0.0,0.0,0.0,0.0,0.0,0.0,0.0,0.0,0.0,0.0,0.0,0.0,0.0,0.0,0.0,0.0,0.0,0.0,0.0,-3.2528,-3.3587,-3.4853,-3.634,-3.6523,-3.6523,-3.6413,-3.4816,-3.3183,0.0,0.0,0.0,0.0,0.0,0.0,0.0,0.0,0.0,0.0,0.0,0.0,0.0,0.0,0.0,0.0,0.0,0.0,0.0,0.0,0.0,0.0,0.0,0.0,0.0,0.0,0.0,0.0,0.0,0.0,0.0,0.0,0.0,0.0,0.0,0.0,0.0,0.0,0.0,0.0,0.0,-3.0265,-3.1058,-3.1228,-3.1276,0.0,0.0,-3.1724,-3.1628,-3.129,0.0,0.0,0.0,0.0,0.0,0.0,0.0,0.0,0.0,0.0,0.0,0.0,0.0,0.0,0.0,0.0,0.0,0.0,0.0,0.0,0.0,0.0,0.0,0.0,0.0,0.0,0.0,0.0,0.0,0.0,0.0,0.0,0.0,0.0,0.0,0.0,0.0,0.0,0.0,0.0,0.0,0.0,0.0,0.0,0.0,0.0,0.0,0.0,0.0,0.0,0.0,0.0,0.0,0.0,0.0,-2.9959,-3.188,-3.3146,-3.4376,-3.5518,-3.6046,-3.5844,-3.489,-3.3733,-3.2155,0.0,0.0,0.0,0.0,0.0,0.0,0.0,0.0,0.0,0.0,0.0,0.0,0.0,0.0,0.0,0.0,0.0,0.0,0.0,0.0,0.0,0.0,0.0,0.0,0.0,0.0,0.0,0.0,0.0,0.0,0.0,0.0,0.0,0.0,0.0,0.0,0.0,0.0,0.0,0.0,0.0,0.0,-3.1876,-3.2648,0.0,0.0,0.0,-3.2894,-3.2747,0.0,0.0,0.0,0.0,0.0,0.0,0.0,0.0,0.0,0.0,0.0,0.0,0.0,0.0,0.0,0.0,0.0,0.0,0.0,0.0,0.0,0.0,0.0,0.0,0.0,0.0,0.0,0.0,0.0,0.0,0.0,0.0,0.0,0.0,0.0,0.0,0.0,0.0,0.0,0.0,0.0,0.0,0.0,0.0,0.0,0.0,0.0,0.0,0.0,0.0,0.0,0.0,0.0,0.0,0.0,0.0,0.0,-3.1378,-3.2577,-3.3697,-3.4674,-3.533,-3.4963,-3.355,-3.2528,0.0,0.0,0.0,0.0,0.0,0.0,0.0,0.0,0.0,0.0,0.0,0.0,0.0,0.0,0.0,0.0,0.0,0.0,0.0,0.0,0.0,0.0,0.0,0.0,0.0,0.0,0.0,-1.8904,0.0,0.0,0.0,0.0,0.0,0.0,0.0,0.0,0.0,0.0,0.0,0.0,0.0,0.0,-3.2321,-3.2705,-3.3668,-3.4373,0.0,0.0,-3.353,-3.3332,-3.2664,-3.1582,0.0,0.0,0.0,0.0,0.0,0.0,0.0,0.0,0.0,0.0,0.0,0.0,0.0,0.0,0.0,0.0,0.0,0.0,0.0,0.0,0.0,0.0,0.0,0.0,0.0,0.0,0.0,0.0,0.0,0.0,0.0,0.0,0.0,0.0,0.0,0.0,0.0,0.0,0.0,0.0,0.0,0.0,0.0,0.0,0.0,0.0,0.0,0.0,0.0,0.0,0.0,0.0,0.0,0.0,0.0,-3.1286,-3.1507,-3.2339,-3.3825,-3.3935,-3.355,-3.2674,-3.117,-2.9604,0.0,0.0,0.0,0.0,0.0,0.0,0.0,0.0,0.0,0.0,0.0,0.0,0.0,0.0,0.0,0.0,0.0,0.0,0.0,0.0,0.0,0.0,0.0,0.0,0.0,0.0,0.0,0.0,0.0,0.0,0.0,0.0,0.0,0.0,0.0,0.0,0.0,0.0,0.0,0.0,0.0,-3.2096,-3.35,-3.3735,-3.3934,0.0,0.0,-3.3002,-3.2792,-3.2485,-3.18,-3.0379,0.0,0.0,0.0,0.0,0.0,0.0,0.0,0.0,0.0,0.0,0.0,0.0,0.0,0.0,0.0,0.0,0.0,0.0,0.0,0.0,0.0,0.0,0.0,0.0,0.0,0.0,0.0,0.0,0.0,0.0,0.0,0.0,0.0,0.0,0.0,0.0,0.0,0.0,0.0,0.0,0.0,0.0,0.0,0.0,0.0,0.0,0.0,0.0,0.0,0.0,0.0,0.0,0.0,-2.8191,-3.1342,-3.1403,-3.2155,-3.3733,-3.3807,-3.3183,-3.188,-3.1256,-2.9714,0.0,0.0,0.0,0.0,0.0,0.0,0.0,0.0,0.0,0.0,0.0,0.0,0.0,0.0,0.0,0.0,0.0,0.0,0.0,0.0,0.0,0.0,0.0,0.0,0.0,0.0,0.0,0.0,-2.2078,-2.2514,-2.2805,0.0,0.0,0.0,0.0,0.0,0.0,0.0,0.0,0.0,0.0,-3.2822,-3.2859,-3.3635,0.0,0.0,-3.3498,-3.3225,-3.2679,-3.2431,-3.1802,-3.0366,-2.9538,0.0,0.0,0.0,0.0,0.0,0.0,0.0,0.0,0.0,0.0,0.0,0.0,0.0,0.0,0.0,0.0,0.0,0.0,0.0,0.0,0.0,0.0,0.0,0.0,0.0,0.0,0.0,0.0,0.0,0.0,0.0,0.0,0.0,0.0,0.0,0.0,0.0,0.0,0.0,0.0,0.0,0.0,0.0,0.0,0.0,0.0,0.0,0.0,0.0,0.0,0.0,0.0,-2.8172,-3.1378,-3.1403,-3.2173,-3.3752,-3.3568,-3.2797,-3.147,-3.0938,-2.9402,0.0,0.0,0.0,0.0,0.0,0.0,0.0,0.0,0.0,0.0,0.0,0.0,0.0,0.0,0.0,0.0,0.0,0.0,0.0,0.0,0.0,0.0,0.0,0.0,0.0,0.0,0.0,0.0,-2.2354,-2.2738,-2.2987,0.0,0.0,0.0,0.0,0.0,0.0,0.0,0.0,0.0,0.0,-3.2808,-3.2439,-3.3254,-3.3819,-3.3563,-3.3414,-3.3281,-3.3131,-3.2656,-3.1955,-3.092,0.0,0.0,0.0,0.0,0.0,0.0,0.0,0.0,0.0,0.0,0.0,0.0,0.0,0.0,0.0,0.0,0.0,0.0,0.0,0.0,0.0,0.0,0.0,0.0,0.0,0.0,0.0,0.0,0.0,0.0,0.0,0.0,0.0,0.0,0.0,0.0,0.0,0.0,0.0,0.0,0.0,0.0,0.0,0.0,0.0,0.0,0.0,0.0,0.0,0.0,0.0,0.0,0.0,-2.8191,-3.1329,-3.1403,-3.2173,-3.3697,-3.3036,-3.2234,-3.1384,-2.9886,-2.8308,-2.6667,0.0,0.0,0.0,0.0,0.0,0.0,0.0,0.0,0.0,0.0,0.0,0.0,0.0,0.0,0.0,0.0,0.0,0.0,0.0,0.0,0.0,0.0,0.0,0.0,0.0,0.0,-2.1292,-2.2218,-2.282,0.0,0.0,0.0,0.0,0.0,0.0,0.0,0.0,0.0,0.0,-3.0691,-3.1739,-3.2476,-3.2548,-3.3029,-3.4232,-3.3358,-3.2971,-3.4189,-3.3241,-3.2293,0.0,0.0,0.0,0.0,0.0,0.0,0.0,0.0,0.0,0.0,0.0,0.0,0.0,0.0,0.0,0.0,0.0,0.0,0.0,0.0,0.0,0.0,0.0,0.0,0.0,0.0,0.0,-2.9541,-3.0321,0.0,0.0,0.0,0.0,0.0,0.0,0.0,0.0,0.0,0.0,0.0,-3.098,-3.0723,0.0,0.0,0.0,0.0,0.0,0.0,0.0,0.0,0.0,0.0,0.0,0.0,-2.8191,-3.1231,-3.1403,-3.1935,-3.2949,-3.2729,-3.1959,-3.0632,-3.0081,-2.8796,-2.6657,0.0,0.0,0.0,0.0,0.0,0.0,0.0,0.0,0.0,0.0,0.0,0.0,0.0,0.0,0.0,0.0,0.0,0.0,0.0,0.0,0.0,0.0,0.0,0.0,0.0,-2.1685,0.0,0.0,0.0,0.0,0.0,0.0,0.0,0.0,0.0,0.0,0.0,-2.923,-2.9913,-3.1238,-3.2012,-3.1715,-3.2486,-3.3093,0.0,0.0,0.0,0.0,0.0,0.0,0.0,0.0,0.0,0.0,0.0,0.0,0.0,0.0,-2.8061,-2.7536,-2.7348,-2.7154,-2.672,0.0,0.0,0.0,0.0,0.0,0.0,0.0,0.0,0.0,0.0,0.0,0.0,0.0,0.0,0.0,0.0,-3.1591,0.0,0.0,0.0,0.0,0.0,0.0,0.0,0.0,-3.21,-3.2223,-3.221,-3.1935,-3.1806,0.0,-3.0485,-2.8888,0.0,0.0,0.0,0.0,0.0,0.0,0.0,0.0,-2.8448,-3.1256,-3.1403,-3.1788,-3.2546,-3.2326,-3.1549,-3.0246,-2.9641,-2.8484,-2.6667,-2.4814,-2.3566,0.0,0.0,0.0,0.0,0.0,0.0,0.0,0.0,0.0,0.0,0.0,0.0,0.0,0.0,0.0,0.0,0.0,0.0,0.0,0.0,0.0,0.0,0.0,-2.2067,0.0,0.0,0.0,0.0,0.0,0.0,0.0,0.0,0.0,-2.7725,-2.88,-2.9803,-3.0495,-3.1426,-3.193,-3.1633,0.0,0.0,0.0,0.0,0.0,0.0,0.0,-3.4336,-3.3863,-3.3169,-3.2442,-3.1718,-3.0584,-2.9771,-2.9771,0.0,0.0,-2.8416,-2.8141,-2.7888,-2.727,-2.6999,-2.6807,-2.6608,-2.643,-2.6157,0.0,0.0,0.0,0.0,0.0,0.0,0.0,0.0,-3.2359,-3.2698,0.0,-3.2391,0.0,0.0,0.0,0.0,0.0,0.0,0.0,0.0,-3.3403,-3.3807,-3.3715,-3.2999,-3.2638,-3.2583,-3.1806,-3.0999,-3.0099,-2.71,0.0,0.0,0.0,0.0,0.0,0.0,-2.898,-3.1268,-3.1329,-3.1733,-3.2454,-3.1751,-3.098,-3.0155,-2.8594,-2.7402,-2.6631,-2.575,-2.4622,-2.3116,-2.2155,0.0,0.0,0.0,0.0,0.0,0.0,0.0,0.0,0.0,0.0,0.0,0.0,0.0,0.0,0.0,0.0,0.0,0.0,0.0,0.0,-2.1606,0.0,0.0,0.0,0.0,0.0,0.0,0.0,0.0,0.0,0.0,-2.9227,-2.9836,-3.0512,-3.1274,0.0,0.0,0.0,0.0,-3.2886,-3.4269,-3.4506,-3.4776,-3.5447,-3.5013,-3.4539,-3.4544,0.0,0.0,-3.2412,-3.1701,-3.1173,-3.121,-3.1123,-3.0753,-2.9348,-2.8969,-2.8603,-2.7927,-2.7643,-2.7269,-2.6552,-2.6367,-2.6207,-3.8161,0.0,0.0,0.0,0.0,-3.3291,-3.453,-3.6926,-3.6178,-3.5893,-3.5912,-3.4991,0.0,0.0,0.0,0.0,0.0,0.0,-3.2894,-3.3458,-3.3697,-3.3807,-3.3788,-3.3568,-3.3458,-3.3421,-3.2632,-3.2155,-3.1843,-2.9843,-2.8356,-2.7457,0.0,0.0,0.0,0.0,-2.8705,-3.0411,-3.054,-3.065,-3.0889,-3.0668,-3.0173,-2.9354,-2.7776,-2.6833,-2.6602,-2.5273,-2.4328,-2.3859,-2.3024,0.0,0.0,0.0,0.0,0.0,0.0,0.0,0.0,0.0,0.0,0.0,0.0,0.0,0.0,0.0,0.0,0.0,0.0,0.0,-2.1543,-2.156,-2.2089,0.0,0.0,0.0,0.0,0.0,0.0,0.0,0.0,0.0,-3.1286,-3.1116,-3.1382,0.0,0.0,-3.2848,-3.3051,-3.3525,-3.4015,-3.4421,0.0,0.0,0.0,-3.5414,-3.5284,-3.5278,-3.4675,-3.3761,-3.2513,-3.2107,-3.1819,-3.1328,-3.119,-3.1038,-3.0666,-3.0106,-2.9388,-2.8443,-2.811,-2.7889,-2.7381,-2.7178,-2.7028,-4.2085,-3.8904,-3.7892,-3.7488,-3.7423,-3.675,-3.754,-3.925,-3.8398,-3.7776,-3.7316,-3.6523,-3.5483,-3.4207,-3.3311,0.0,0.0,0.0,-3.3513,-3.4266,-3.3954,-3.3807,-3.3807,-3.3807,-3.3807,-3.3788,-3.3311,-3.3078,-3.306,-3.1775,-3.0668,-2.9677,0.0,0.0,-2.8246,-2.8282,-2.8906,-3.0136,-3.021,-3.021,-3.021,-2.9886,-2.9347,-2.8528,-2.7585,-2.6778,-2.6135,-2.5209,-2.453,-2.419,-2.3363,-2.252,0.0,0.0,0.0,0.0,0.0,0.0,0.0,0.0,0.0,0.0,0.0,-2.0064,-2.0814,0.0,0.0,0.0,-2.1442,-2.2005,-2.216,-2.2584,0.0,0.0,0.0,0.0,0.0,0.0,0.0,-2.9704,-3.0668,-3.1698,-3.2949,-3.2801,-3.2852,-3.3728,-3.3592,-3.3508,-3.3795,0.0,-3.4607,-3.4895,-3.5318,-3.5616,-3.5616,-3.5616,-3.5616,-3.5616,-3.4721,-3.3812,-3.2933,-3.2293,-3.1735,-3.1309,-3.119,-3.119,-3.119,-3.0645,-2.9908,-2.8963,-2.8744,-2.8485,-2.776,-2.7585,-2.7465,-4.5124,-4.4201,-4.1881,-4.0823,-4.0708,-4.0631,-4.0189,-3.9488,-3.9415,-3.8623,-3.743,-3.7246,-3.6906,-3.6427,-3.5519,0.0,0.0,-3.4252,-3.4302,-3.4968,-3.416,-3.3807,-3.3807,-3.3807,-3.3807,-3.3807,-3.3807,-3.3807,-3.3752,-3.3036,-3.2656,-3.2528,-3.0326,-2.9152,-2.9097,-2.9042,-2.9354,-3.0081,-3.0099,-3.0099,-3.0069,-2.9372,-2.862,-2.7835,-2.7732,-2.6972,-2.5485,-2.5348,-2.4952,-2.4226,-2.3446,-2.263,-2.1825,0.0,0.0,0.0,0.0,0.0,0.0,0.0,0.0,0.0,0.0,0.0,0.0,0.0,0.0,0.0,-2.2491,0.0,-2.2638,-2.4257,0.0,0.0,0.0,-2.7225,-2.7063,-2.8388,-2.9795,-3.1142,0.0,0.0,0.0,0.0,-3.4573,-3.459,-3.4015,-3.3812,-3.4489,-3.459,-3.4844,-3.5464,-3.56,-3.5583,-3.5447,-3.538,-3.5278,-3.5245,-3.4281,-3.344,-3.3203,-3.2273,-3.1376,-3.1207,-3.119,-3.1151,-3.1131,-3.0645,-3.0102,-2.9381,-2.9262,-2.895,-2.787,-2.7585,-2.7585,-4.5479,-4.5248,-4.4633,-4.3671,-4.2431,-4.1777,-4.1373,-4.1127,-4.0267,-3.9404,-3.849,-3.7939,-3.7219,-3.6342,-3.6097,-3.5991,-3.5936,-3.5096,-3.4821,-3.4931,-3.4174,-3.3807,-3.3807,-3.3807,-3.3807,-3.3807,-3.3807,-3.3807,-3.3788,-3.3605,-3.3201,-3.2564,-3.1403,-3.0522,-2.9904,-2.9299,-2.9078,-2.928,-2.928,-2.928,-2.928,-2.9097,-2.862,-2.7824,-2.7218,-2.6429,-2.5439,-2.4795,-2.4401,-2.4208,-2.4006,-2.3501,-2.2667,-2.2401,0.0,0.0,0.0,0.0,0.0,0.0,0.0,0.0,0.0,-2.2197,-2.2353,0.0,-2.371,0.0,-2.31,-2.3704,-2.4922,-2.5125,0.0,0.0,-2.7636,-2.8288,-2.9272,-3.0166,-3.106,-3.1938,-3.3038,-3.3918,-3.4421,-3.4996,-3.5351,-3.5351,-3.5177,-3.5143,-3.5329,-3.5329,-3.5397,-3.5566,-3.5583,-3.5397,-3.4844,-3.4269,-3.3964,-3.3909,-3.3626,-3.322,-3.2649,-3.231,-3.1887,-3.1345,-3.119,-3.1018,-3.0617,-3.0393,-2.9892,-2.8973,-2.8724,-2.8511,-2.7775,-2.7585,-2.7585,-4.5594,-4.5594,-4.5594,-4.5056,-4.4124,-4.2912,-4.2374,-4.2269,-4.0884,-3.9955,-3.9385,-3.8725,-3.7888,-3.7017,-3.6885,-3.685,-3.6758,-3.5573,-3.5206,-3.55,-3.4339,-3.3807,-3.3807,-3.3807,-3.3807,-3.3807,-3.3807,-3.3807,-3.3807,-3.3807,-3.3568,-3.3109,-3.1984,-3.1176,-3.0705,-2.9574,-2.8987,-2.8987,-2.8987,-2.8987,-2.8987,-2.8656,-2.8081,-2.7291,-2.6484,-2.5686,-2.4897,-2.4428,-2.4199,-2.4199,-2.4199,-2.3813,-2.3006,-2.2914,-2.2328,0.0,0.0,0.0,0.0,0.0,0.0,0.0,0.0,0.0,0.0,0.0,-2.4699,0.0,-2.4784,0.0,-2.6779,-2.6911,-2.7391,-2.8528,-2.8885,-2.9461,-3.0525,-3.1263,-3.2087,-3.3173,-3.4003,-3.4624,-3.4945,-3.5368,-3.5616,-3.5616,-3.5616,-3.5616,-3.5616,-3.5616,-3.5616,-3.56,-3.5312,-3.4861,-3.4117,-3.3677,-3.3389,-3.3372,-3.3136,-3.2763,-3.2378,-3.2022,-3.1684,-3.1272,-3.0995,-3.0699,-3.0335,-2.9805,-2.9248,-2.8724,-2.8286,-2.7993,-2.766,-2.7585,-2.7585,-4.5594,-4.5594,-4.5594,-4.5594,-4.5479,-4.3932,-4.3258,-4.3143,-4.1412,-4.0443,-4.0071,-3.9426,-3.876,-3.8042,-3.7759,-3.7658,-3.7566,-3.6013,-3.5683,-3.6193,-3.4688,-3.3899,-3.3807,-3.3807,-3.3807,-3.3807,-3.3807,-3.3807,-3.3807,-3.3807,-3.3807,-3.3733,-3.2284,-3.1507,-3.1329,-2.9898,-2.9097,-2.9005,-2.8987,-2.8987,-2.8987,-2.8308,-2.753,-2.662,-2.5925,-2.5136,-2.4245,-2.4199,-2.4199,-2.4199,-2.4199,-2.3878,-2.3189,-2.3088,-2.2694,0.0,-2.1899,0.0,0.0,0.0,0.0,0.0,0.0,0.0,0.0,-2.4854,-2.5407,-2.64,-2.6921,-2.7521,-2.8357,-2.8989,-2.9327,-2.939,-3.0017,-3.0694,-3.1278,-3.2073,-3.3072,-3.4336,-3.4573,-3.4912,-3.5464,-3.5616,-3.5616,-3.5616,-3.5616,-3.5616,-3.5616,-3.5616,-3.5566,-3.5498,-3.4759,-3.3914,-3.3372,-3.3152,-3.3034,-3.3017,-3.2581,-3.2175,-3.2124,-3.1633,-3.1207,-3.1151,-3.0736,-3.0293,-3.0208,-2.9271,-2.8535,-2.8383,-2.7968,-2.765,-2.7585,-2.7585,-2.7585,-4.5594,-4.5594,-4.5594,-4.5594,-4.5518,-4.4509,-4.4066,-4.3951,-4.2297,-4.0999,-4.0081,-3.9679,-3.9277,-3.8862,-3.8593,-3.8487,-3.8414,-3.7474,-3.6776,-3.6248,-3.5243,-3.4431,-3.3825,-3.3807,-3.3807,-3.3807,-3.3807,-3.3807,-3.3807,-3.3807,-3.3807,-3.377,-3.2852,-3.2063,0.0,0.0,0.0,0.0,-2.8987,-2.8987,-2.8987,-2.8858,-2.8069,-2.6686,-2.6465,0.0,-2.4291,-2.4199,-2.4199,-2.4199,-2.4199,0.0,0.0,0.0,0.0,0.0,0.0,0.0,0.0,0.0,0.0,0.0,-2.5721,-2.5492,-2.5081,-2.6284,-2.7517,-2.8425,-2.8627,-2.8965,-2.9675,-2.9843,-3.0163,-3.0755,-3.145,-3.1958,-3.2124,-3.3258,-3.4201,-3.4438,-3.503,-3.5414,-3.5532,-3.5616,-3.5616,-3.5616,-3.5616,-3.5616,-3.5616,-3.5616,-3.538,-3.4776,-3.3664,-3.275,-3.253,-3.2019,-3.1749,-3.1579,-3.1529,-3.1427,-3.1447,-3.1343,-3.1207,-3.119,-3.0699,-3.0123,-2.9711,-2.8973,-2.8334,-2.787,-2.7685,-2.7585,-2.7585,-2.7585,-2.7585,-4.5594,0.0,-4.5594,-4.5594,0.0,0.0,-4.4951,-4.4806,-4.272,-4.1231,-4.0286,-3.9983,-3.9656,-3.9327,-3.9045,-3.8815,-3.8652,-3.7459,-3.6684,-3.6229,-3.4986,-3.4179,-3.3807,-3.3807,-3.3807,-3.3807,-3.3807,-3.3807,-3.3807,-3.3807,-3.3807,-3.3788,-3.3005,-3.221,-3.1397,-3.021,-2.9409,-2.8987,-2.8987,-2.8987,-2.8987,-2.8601,-2.7831,-2.6638,0.0,0.0,0.0,0.0,0.0,0.0,0.0,0.0,0.0,0.0,0.0,-2.3574,-2.3922,-2.4306,-2.4653,-2.5073,-2.5649,-2.6417,-2.6874,-2.69,-2.6425,-2.723,-2.827,-2.9473,-2.9588,-2.9875,-3.0565,-3.0649,-3.0784,-3.1173,-3.1512,-3.2022,-3.2747,-3.3491,-3.41,-3.4506,-3.5126,-3.5481,-3.5115,-3.5397,-3.5583,-3.5616,-3.5616,-3.5583,-3.5616,-3.5616,-3.5228,-3.4117,-3.3051,-3.2175,-3.1819,-3.1498,-3.119,-3.119,-3.119,-3.119,-3.119,-3.119,-3.119,-3.1114,-3.0477,-2.9821,-2.9783,-2.8904,-2.8057,-2.8018,-2.781,-2.761,-2.7585,-2.7585,-2.7585,-4.5594,-4.5594,-4.5594,-4.5594,-4.5594,-4.5594,-4.5441,-4.4989,0.0,0.0,0.0,-4.0213,-3.9943,-3.9656,-3.9276,-3.9004,-3.8685,-3.7195,-3.6446,-3.6211,-3.4724,-3.3935,-3.3807,-3.3807,-3.3807,-3.3807,-3.3807,-3.3807,-3.3807,-3.3807,-3.3807,-3.3752,-3.3133,-3.2339,-3.1347,-2.9824,-2.8987,-2.8987,-2.8987,-2.8987,-2.8968,-2.8363,-2.7622,-2.684,-2.6164,-2.5448,-2.4667,-2.463,-2.463,-2.4612,-2.4493,-2.441,-2.4401,-2.4281,-2.4263,-2.4401,-2.4291,-2.4667,-2.5752,-2.5686,-2.6007,-2.695,-2.7522,-2.7898,-2.8085,-2.816,-2.8779,-3.0176,-3.0294,-3.0548,-3.1123,-3.119,-3.119,-3.119,-3.1309,-3.1901,-3.3,-3.3339,-3.366,-3.4235,-3.4776,-3.4974,-3.4421,-3.4776,-3.5211,-3.5194,-3.5092,-3.5211,-3.5211,-3.5092,-3.4619,-3.3406,-3.2513,-3.187,-3.1396,-3.1207,-3.119,-3.119,-3.119,-3.119,-3.119,-3.119,-3.119,-3.119,-3.0272,-2.9913,-3.0081,-2.9073,-2.8116,-2.8431,-2.8116,-2.7665,-2.7475,-2.742,-2.739,-4.5594,-4.5594,-4.5594,-4.5594,-4.5594,-4.5594,-4.4797,-4.3431,-4.3047,-4.2008,-4.05,-4.0213,-4.0081,-3.9992,-3.9377,-3.9104,-3.8966,-3.7856,-3.696,0.0,-3.5279,-3.4454,-3.3825,-3.3807,-3.3807,-3.3807,-3.3807,-3.3807,-3.3807,-3.3807,-3.3807,-3.3807,-3.3697,-3.2871,-3.1397,-2.9824,-2.8987,-2.8987,-2.8987,-2.8987,-2.8987,-2.8895,-2.8455,-2.7677,-2.7504,-2.709,-2.629,-2.6235,-2.6253,-2.6253,-2.5613,-2.5227,-2.5209,-2.4566,-2.4502,-2.5117,-2.4593,-2.5154,-2.7255,-2.6814,-2.7079,-2.845,-2.8201,-2.8411,-2.9629,-2.9767,-3.0125,-3.0951,-3.1021,-3.1072,-3.119,-3.119,-3.119,-3.1224,-3.1769,-3.2242,-3.2496,-3.3017,-3.3406,-3.3541,-3.3626,-3.3744,-3.3626,-3.3711,-3.3846,-3.3761,-3.3947,-3.3778,-3.3795,-3.3711,-3.3355,-3.2577,-3.1816,-3.1343,-3.1224,-3.119,-3.119,-3.119,-3.119,-3.119,-3.119,-3.119,-3.119,-3.119,-3.0597,-3.0267,-3.0309,-2.9717,-2.8996,-2.8677,-2.8384,-2.7975,-2.7048,-2.6776,-2.6731,-4.5594,-4.5594,-4.5594,-4.5594,-4.5575,-4.5094,-4.3951,-4.2431,-4.2393,-4.17,-4.0566,-4.0364,-4.0232,-4.0081,-3.9775,-3.9277,-3.8633,-3.7549,-3.6628,-3.5806,-3.4806,-3.4156,-3.3844,-3.3807,-3.3807,-3.3807,-3.3807,-3.3807,-3.3807,-3.3807,-3.3807,-3.377,-3.3385,-3.2559,-3.1397,-3.0246,-2.9427,-2.9005,-2.8987,-2.8987,-2.8987,-2.8987,-2.8601,-2.7835,-2.7805,-2.7438,-2.662,-2.6172,-2.6153,-2.6583,-2.5401,-2.4934,-2.5348,-2.463,-2.4548,-2.5329,-2.5062,-2.5723,-2.7658,-2.7868,-2.8216,-2.8902,-2.8688,-2.9058,-3.038,-2.9887,-2.9986,-3.1043,-3.119,-3.119,-3.119,-3.119,-3.119,-3.119,-3.1532,-3.187,-3.2242,-3.2564,-3.2797,-3.2848,-3.3152,-3.3254,-3.2848,-3.3136,-3.3389,-3.3389,-3.3389,-3.3271,-3.2865,-3.278,-3.2716,-3.231,-3.1684,-3.1258,-3.119,-3.119,-3.119,-3.119,-3.119,-3.119,-3.119,-3.119,-3.119,-3.1151,-3.0716,-3.0497,-3.0679,-3.0,-2.9384,-2.9057,-2.8327,-2.7626,-2.6805,-2.6063,-2.5674,-4.5594,-4.5594,-4.5594,-4.5498,-4.522,-4.4393,-4.3181,-4.1835,-4.1596,-4.1143,-4.0554,-4.0496,-4.0381,-4.0195,-4.0129,-3.96,-3.8617,-3.7292,-3.6354,-3.5684,-3.4402,-3.3807,-3.3807,-3.3807,-3.3807,-3.3807,-3.3807,-3.3807,-3.3807,-3.3807,-3.3807,-3.3733,-3.3018,-3.221,-3.1397,-3.0595,-2.9806,-2.906,-2.8987,-2.8987,-2.8987,-2.8987,-2.8712,-2.8136,-2.8081,-2.7769,-2.7134,-2.6374,-2.6219,-2.6759,-2.5511,-2.4934,-2.5338,-2.4997,-2.5016,-2.5595,-2.5668,-2.6292,-2.7669,-2.8558,-2.8987,-2.9005,-2.8899,-2.9416,-3.0534,-2.9871,-2.9842,-3.1079,-3.1351,-3.1312,-3.123,-3.119,-3.119,-3.119,-3.119,-3.1427,-3.1938,-3.2056,-3.2056,-3.2124,-3.2544,-3.2628,-3.229,-3.2544,-3.2814,-3.2814,-3.2916,-3.2645,-3.2175,-3.2056,-3.2056,-3.1955,-3.1565,-3.1224,-3.119,-3.119,-3.119,-3.119,-3.119,-3.119,-3.119,-3.119,-3.119,-3.1151,-3.0858,-3.074,-3.0998,-3.0352,-2.9626,-2.9274,-2.8338,-2.7201,-2.6208,-2.5196,-2.456,-4.5594,-4.5594,-4.5594,-4.5133,-4.4374,-4.3566,-4.2662,-4.175,-4.0969,-4.0593,-4.0516,-4.0496,-4.0481,-4.0422,-4.0204,-4.0015,-3.9679,-3.7674,-3.6659,-3.6342,-3.4674,-3.3807,-3.3847,-3.382,-3.3807,-3.382,-3.382,-3.3807,-3.3807,-3.3807,-3.3807,-3.3715,-3.2999,-3.221,-3.1384,-3.0613,-2.9824,-2.9023,-2.8987,-2.8987,-2.8987,-2.8987,-2.895,-2.8883,-2.8877,-2.8858,-2.8656,-2.8007,-2.7603,-2.7622,-2.6796,-2.6043,-2.5558,-2.5988,-2.6382,-2.6473,-2.6502,-2.6888,-2.775,-2.8558,-2.8987,-2.8964,-2.8682,-2.9158,-3.058,-3.0383,-3.0549,-3.1444,-3.1717,-3.1582,-3.1252,-3.121,-3.119,-3.119,-3.119,-3.1224,-3.1309,-3.1309,-3.1312,-3.1292,-3.1495,-3.1376,-3.1427,-3.1512,-3.1495,-3.163,-3.1681,-3.1613,-3.1461,-3.141,-3.1393,-3.136,-3.1207,-3.119,-3.119,-3.119,-3.119,-3.119,-3.119,-3.119,-3.119,-3.119,-3.119,-3.1171,-3.1151,-3.1095,-3.0912,-3.0544,-2.9841,-2.9059,-2.8061,-2.6814,-2.5257,-2.4327,-2.3974,-4.5594,-4.5594,-4.5594,-4.5105,-4.4182,-4.2912,-4.2135,-4.172,-4.0873,-4.0496,-4.0496,-4.0496,-4.0496,-4.0489,-4.0381,-4.007,-3.9508,-3.7946,-3.694,-3.636,-3.4989,-3.4318,-3.4325,-3.4117,-3.4031,-3.4018,-3.3876,-3.3807,-3.3807,-3.3807,-3.3807,-3.3788,-3.3458,-3.2669,-3.1488,-3.1085,-3.0301,-2.9042,-2.8987,-2.8987,-2.8987,-2.8987,-2.8987,-2.8987,-2.8987,-2.8987,-2.8913,-2.8227,-2.7805,-2.7725,-2.6586,-2.598,-2.6098,-2.5529,-2.5841,-2.7145,-2.7776,-2.8143,-2.8473,-2.8822,-2.8987,-2.8987,-2.8851,-2.9259,-3.0321,-3.0708,-3.1095,-3.1419,-3.1672,-3.1716,-3.1547,-3.1332,-3.119,-3.119,-3.119,-3.119,-3.119,-3.119,-3.119,-3.119,-3.119,-3.119,-3.119,-3.119,-3.119,-3.119,-3.119,-3.119,-3.119,-3.119,-3.119,-3.119,-3.119,-3.119,-3.119,-3.119,-3.119,-3.119,-3.119,-3.119,-3.119,-3.119,-3.119,-3.119,-3.114,-3.0954,-3.0545,-3.0323,-2.9818,-2.8778,-2.7535,-2.6192,-2.4768,-2.4288,-2.4015,-4.5594,-4.5594,-4.5594,-4.496,-4.3874,-4.2681,-4.1885,-4.1373,-4.0766,-4.0496,-4.0496,-4.0496,-4.0496,-4.0496,-4.0496,-4.0073,-3.9215,-3.8117,-3.7125,-3.6231,-3.5201,-3.4694,-3.4663,-3.4357,-3.4218,-3.4159,-3.3941,-3.3807,-3.3807,-3.3807,-3.3807,-3.3788,-3.3568,-3.2779,-3.1525,-3.1231,-3.0393,-2.9133,-2.8987,-2.8987,-2.8987,-2.8987,-2.8987,-2.8987,-2.8987,-2.8987,-2.8968,-2.8227,-2.7805,-2.778,-2.6678,-2.6219,-2.6528,-2.5886,-2.6319,-2.7915,-2.8656,-2.8987,-2.8987,-2.8987,-2.8987,-2.8987,-2.8987,-2.9335,-3.0136,-3.0944,-3.1445,-3.1712,-3.1974,-3.2109,-3.1621,-3.137,-3.121,-3.119,-3.119,-3.119,-3.119,-3.119,-3.119,-3.119,-3.119,-3.119,-3.119,-3.119,-3.119,-3.119,-3.119,-3.119,-3.119,-3.119,-3.119,-3.119,-3.119,-3.119,-3.119,-3.119,-3.119,-3.119,-3.119,-3.119,-3.119,-3.119,-3.119,-3.1173,-3.1055,-3.0751,-3.026,-2.9952,-2.9097,-2.7855,-2.6789,-2.591,-2.4901,-2.4668,-2.4405,-4.5594,-4.5594,-4.5594,-4.4643,-4.3162,-4.297,-4.2066,-4.0727,-4.0535,-4.0496,-4.0496,-4.0496,-4.0496,-4.0496,-4.0496,-4.0054,-3.9215,-3.8144,-3.717,-3.6277,-3.523,-3.4704,-3.4674,-3.4368,-3.4218,-3.4195,-3.3941,-3.3807,-3.3807,-3.3807,-3.3807,-3.3788,-3.3078,-3.2284,-3.1403,-3.0687,-2.9867,-2.9097,-2.8987,-2.8987,-2.8987,-2.8987,-2.8987,-2.8987,-2.8987,-2.8987,-2.8913,-2.8246,-2.7816,-2.7816,-2.7669,-2.7328,-2.6833,-2.7923,-2.8693,-2.8858,-2.8968,-2.8987,-2.8987,-2.8987,-2.8987,-2.8987,-2.8987,-2.9317,-3.0008,-3.0815,-3.1505,-3.2358,-3.2596,-3.2494,-3.1476,-3.1298,-3.1213,-3.119,-3.119,-3.119,-3.119,-3.119,-3.119,-3.119,-3.119,-3.119,-3.119,-3.119,-3.119,-3.119,-3.119,-3.119,-3.119,-3.119,-3.119,-3.119,-3.119,-3.119,-3.119,-3.119,-3.119,-3.119,-3.119,-3.114,-3.1173,-3.119,-3.1157,-3.097,-3.048,-3.0108,-2.9837,-2.9019,-2.778,-2.6859,-2.6533,-2.5775,-2.5275,-2.5182,-2.4934,-4.5594,-4.5479,-4.444,-4.3912,-4.3701,-4.2143,-4.1362,-4.1296,-4.0727,-4.0496,-4.0496,-4.0496,-4.0496,-4.0496,-4.0496,-4.0054,-3.9238,-3.8305,-3.7383,-3.6531,-3.5629,-3.5122,-3.4935,-3.4655,-3.439,-3.4195,-3.3923,-3.3807,-3.3807,-3.3807,-3.3807,-3.3678,-3.2999,-3.2192,-3.1403,-3.0607,-2.9812,-2.9078,-2.8987,-2.8987,-2.8987,-2.8987,-2.8987,-2.8987,-2.8987,-2.8987,-2.8987,-2.8712,-2.8338,-2.7835,-2.7816,-2.7658,-2.7512,-2.84,-2.8748,-2.8356,-2.8712,-2.8987,-2.8987,-2.8987,-2.8987,-2.8987,-2.8987,-2.9115,-2.9482,-3.0143,-3.0674,-3.0893,-3.1822,-3.1958,-3.1565,-3.1458,-3.1487,-3.1252,-3.119,-3.121,-3.119,-3.119,-3.119,-3.119,-3.119,-3.119,-3.119,-3.119,-3.119,-3.119,-3.119,-3.119,-3.119,-3.119,-3.119,-3.1173,-3.119,-3.119,-3.119,-3.119,-3.119,-3.119,-3.114,-3.0852,-3.0768,-3.0548,-3.0463,-3.0006,-2.9583,-2.9178,-2.8839,-2.8145,-2.6874,-2.674,-2.6384,-2.6157,-2.5815,-2.5726,-2.543,-4.5441,-4.5037,-4.397,-4.347,-4.3278,-4.1662,-4.1085,-4.1335,-4.0766,-4.0496,-4.0496,-4.0496,-4.0496,-4.0439,-4.0227,-3.965,-3.8873,-3.8238,-3.7392,-3.6327,-3.5731,-3.541,-3.5215,-3.4954,-3.4724,-3.4467,-3.4105,-3.3908,-3.382,-3.3807,-3.3807,-3.377,-3.2986,-3.221,-3.1384,-3.0595,-2.9812,-2.9152,-2.8987,-2.8987,-2.8987,-2.8987,-2.8987,-2.8987,-2.8987,-2.8987,-2.8987,-2.8987,-2.8767,-2.8282,-2.8191,-2.8191,-2.8246,-2.8693,-2.8748,-2.8338,-2.8693,-2.8987,-2.8987,-2.8987,-2.8987,-2.8987,-2.8987,-2.8987,-2.906,-2.9971,-3.0258,-3.0298,-3.1497,-3.235,-3.1831,-3.1975,-3.2092,-3.1694,-3.1487,-3.1408,-3.1372,-3.1271,-3.121,-3.119,-3.119,-3.119,-3.119,-3.119,-3.119,-3.119,-3.119,-3.119,-3.119,-3.119,-3.1072,-3.0903,-3.0801,-3.0598,-3.0378,-3.0192,-3.0784,-3.0937,-3.07,-3.0446,-3.0159,-2.9922,-2.9583,-2.9111,-2.8654,-2.8213,-2.7689,-2.708,-2.6826,-2.6725,-2.6624,-2.6436,-2.6297,-2.6244,-2.5908,-4.5114,-4.4402,-4.4278,-4.3278,-4.2077,-4.1681,-4.1219,-4.065,-4.0535,-4.0496,-4.0496,-4.0496,-4.0496,-4.0362,-3.9861,-3.8938,-3.82,-3.8027,-3.7142,-3.5692,-3.5519,-3.5486,-3.5417,-3.5163,-3.5016,-3.4963,-3.4459,-3.4093,-3.3908,-3.3868,-3.3842,-3.3687,-3.2921,-3.21,-3.1403,-3.054,-2.9739,-2.9152,-2.8987,-2.8987,-2.8987,-2.8987,-2.8987,-2.8987,-2.8987,-2.8987,-2.8987,-2.8987,-2.8968,-2.8932,-2.8913,-2.8968,-2.8895,-2.8987,-2.8968,-2.8913,-2.8987,-2.8987,-2.8987,-2.8987,-2.8987,-2.8987,-2.8987,-2.8987,-2.9189,-3.0228,-3.0748,-3.0455,-3.1853,-3.3026,-3.2191,-3.2544,-3.2813,-3.2534,-3.2039,-3.1825,-3.1751,-3.1468,-3.119,-3.121,-3.119,-3.119,-3.119,-3.119,-3.119,-3.119,-3.119,-3.119,-3.119,-3.119,-3.0886,-3.0378,-3.026,-3.0192,-2.9602,-2.9111,-2.9958,-3.0548,-3.0226,-2.9922,-2.9533,-2.9245,-2.8839,-2.8383,-2.7994,-2.7588,-2.7317,-2.6793,-2.6776,-2.6708,-2.6674,-2.6674,-2.659,-2.647,-2.6383,-4.5094,-4.4259,-4.3701,-4.2835,-4.1777,-4.1181,-4.0727,-4.0516,-4.0496,-4.0496,-4.0496,-4.0496,-4.0496,-4.0458,-4.0208,-3.9342,-3.8065,-3.795,-3.7103,-3.5712,-3.55,-3.5417,-3.5258,-3.5157,-3.5018,-3.4841,-3.4653,-3.4508,-3.4375,-3.4171,-3.4062,-3.3815,-3.2557,-3.1709,-3.1366,-3.0099,-2.9207,-2.9042,-2.8987,-2.8987,-2.8987,-2.8987,-2.8987,-2.8987,-2.8987,-2.8987,-2.8987,-2.8987,-2.8987,-2.8987,-2.8987,-2.8987,-2.8987,-2.8987,-2.8987,-2.8987,-2.8987,-2.8987,-2.8987,-2.8987,-2.8987,-2.8987,-2.8987,-2.8987,-2.8987,-2.9482,-2.9721,-2.9482,-3.0595,-3.1266,-3.1647,-3.2296,-3.2654,-3.253,-3.2384,-3.2264,-3.2213,-3.1861,-3.1507,-3.1232,-3.119,-3.119,-3.119,-3.121,-3.119,-3.119,-3.119,-3.119,-3.119,-3.114,-3.0903,-3.026,-3.0108,-2.9634,-2.8924,-2.8536,-2.8976,-2.9482,-2.9364,-2.9245,-2.8872,-2.8484,-2.8061,-2.7757,-2.7368,-2.7097,-2.681,-2.6708,-2.6708,-2.6708,-2.6691,-2.6691,-2.6708,-2.6624,-2.6521,-4.4921,-4.3835,-4.3316,-4.2393,-4.1316,-4.07,-4.0496,-4.0496,-4.0496,-4.0496,-4.0496,-4.0496,-4.0496,-4.0439,-4.0208,-3.9277,-3.8046,-3.77,-3.6796,-3.5654,-3.55,-3.5391,-3.5266,-3.5239,-3.5105,-3.4879,-3.486,-3.4784,-3.4684,-3.4489,-3.439,-3.4102,-3.2873,-3.2012,-3.163,-3.0412,-2.9604,-2.9315,-2.9185,-2.9138,-2.9123,-2.9044,-2.8987,-2.8987,-2.8987,-2.8987,-2.8987,-2.8987,-2.8987,-2.8987,-2.8987,-2.8987,-2.8987,-2.8987,-2.8987,-2.8987,-2.8987,-2.8987,-2.8987,-2.8987,-2.8987,-2.8987,-2.8987,-2.8987,-2.9042,-2.9189,-2.9354,-2.9152,-3.0081,-3.0723,-3.1017,-3.1678,-3.2211,-3.252,-3.2679,-3.2661,-3.2517,-3.2247,-3.2004,-3.175,-3.1564,-3.1449,-3.1411,-3.1269,-3.121,-3.119,-3.119,-3.119,-3.1123,-3.0937,-3.0429,-2.9837,-2.9262,-2.8738,-2.8197,-2.8062,-2.8079,-2.8265,-2.8366,-2.8314,-2.8179,-2.7705,-2.7283,-2.7199,-2.6911,-2.6928,-2.6708,-2.6708,-2.6708,-2.6708,-2.6708,-2.6708,-2.6708,-2.6708,-2.6624,-4.4633,-4.3162,-4.3085,-4.2124,-4.065,-4.0516,-4.0496,-4.0496,-4.0496,-4.0496,-4.0496,-4.0496,-4.0496,-4.0323,-3.99,-3.9046,-3.8007,-3.7327,-3.6481,-3.5731,-3.55,-3.5467,-3.5453,-3.5446,-3.5339,-3.5147,-3.5122,-3.5018,-3.4832,-3.4754,-3.4676,-3.4421,-3.3531,-3.2844,-3.1892,-3.1186,-3.0264,-2.9673,-2.9465,-2.9372,-2.9361,-2.9115,-2.8987,-2.8987,-2.8987,-2.8987,-2.8987,-2.8987,-2.8987,-2.8987,-2.8987,-2.8987,-2.8987,-2.8987,-2.8987,-2.8987,-2.8987,-2.8987,-2.8987,-2.8987,-2.8987,-2.8987,-2.8987,-2.8987,-2.906,-2.9464,-2.9592,-2.9133,-3.0173,-3.0815,-3.0503,-3.0889,-3.1622,-3.2397,-3.2754,-3.2826,-3.2509,-3.2357,-3.2044,-3.2033,-3.1934,-3.1704,-3.1582,-3.1373,-3.1308,-3.1351,-3.1351,-3.1259,-3.1002,-3.0613,-2.9822,-2.9161,-2.8518,-2.8044,-2.7571,-2.7402,-2.7453,-2.752,-2.7604,-2.7621,-2.7587,-2.7182,-2.6894,-2.6776,-2.6708,-2.6708,-2.6708,-2.6708,-2.6708,-2.6708,-2.6708,-2.6708,-2.6691,-2.6691,-2.6657,-4.4624,-4.3143,-4.3085,-4.2104,-4.0612,-4.0496,-4.0496,-4.0496,-4.0496,-4.0496,-4.0496,-4.0496,-4.0496,-4.0477,-4.0265,-3.94,-3.82,-3.7757,-3.6808,-3.5654,-3.55,-3.55,-3.55,-3.55,-3.5453,-3.5383,-3.5369,-3.5361,-3.5281,-3.503,-3.4675,-3.3992,-3.3071,-3.2119,-3.1223,-3.0496,-2.9969,-2.9707,-2.9504,-2.9394,-2.9353,-2.9145,-2.8987,-2.8987,-2.8987,-2.8987,-2.8987,-2.8987,-2.8987,-2.8987,-2.8987,-2.8987,-2.8987,-2.8987,-2.8987,-2.8987,-2.8987,-2.8987,-2.8987,-2.8987,-2.8987,-2.8987,-2.8987,-2.8987,-2.8987,-2.917,-2.9207,-2.906,-2.9482,-2.9843,-3.0099,-3.0411,-3.0925,-3.1641,-3.2258,-3.251,-3.2136,-3.159,-3.1127,-3.0785,-3.0696,-3.0929,-3.1247,-3.1391,-3.1446,-3.183,-3.1791,-3.1417,-3.1037,-3.0476,-2.9806,-2.8656,-2.7909,-2.7452,-2.7063,-2.6877,-2.6793,-2.686,-2.6945,-2.7012,-2.7012,-2.6877,-2.6759,-2.6708,-2.6708,-2.6708,-2.6708,-2.6708,-2.6708,-2.6708,-2.6708,-2.6708,-2.6674,-2.6674,-2.6607,-4.4624,-4.3104,-4.3085,-4.2085,-4.0593,-4.0496,-4.0496,-4.0496,-4.0496,-4.0496,-4.0496,-4.0496,-4.0496,-4.0496,-4.0477,-3.9573,-3.8142,-3.8007,-3.7058,-3.5692,-3.55,-3.55,-3.55,-3.55,-3.55,-3.55,-3.55,-3.5481,-3.5383,-3.5001,-3.4446,-3.383,-3.2641,-3.1751,-3.131,-3.043,-2.9992,-2.9954,-2.9706,-2.9532,-2.9485,-2.9163,-2.901,-2.8987,-2.8987,-2.8987,-2.8987,-2.8987,-2.8987,-2.8987,-2.8987,-2.8987,-2.8987,-2.8987,-2.8987,-2.8987,-2.8987,-2.8987,-2.8987,-2.8987,-2.8987,-2.8987,-2.8987,-2.8987,-2.8987,-2.8987,-2.8987,-2.9005,-2.8987,-2.9225,-2.9592,-2.9971,-3.0393,-3.0852,-3.1329,-3.1625,-3.1688,-3.1383,-3.0985,-3.0704,-3.0534,-3.0523,-3.1072,-3.1198,-3.1508,-3.1851,-3.2055,-3.1619,-3.1148,-3.0491,-2.9695,-2.8579,-2.7708,-2.7315,-2.7045,-2.6859,-2.6725,-2.6708,-2.6708,-2.6708,-2.6708,-2.6708,-2.6708,-2.6708,-2.6708,-2.6708,-2.6708,-2.6708,-2.6708,-2.6708,-2.6708,-2.6657,-2.6623,-2.6251,-2.6234,-4.4553,-4.3085,-4.3008,-4.2016,-4.0631,-4.0496,-4.0496,-4.0496,-4.0496,-4.0496,-4.0496,-4.0496,-4.0496,-4.0496,-4.0477,-3.9585,-3.8027,-3.8007,-3.6949,-3.5923,-3.55,-3.55,-3.55,-3.55,-3.55,-3.55,-3.55,-3.55,-3.5301,-3.4666,-3.4154,-3.3615,-3.2417,-3.1699,-3.1252,-3.0675,-3.0436,-3.0273,-2.9927,-2.9748,-2.967,-2.9367,-2.9174,-2.9152,-2.9152,-2.916,-2.9138,-2.9115,-2.9115,-2.9082,-2.9051,-2.8987,-2.8987,-2.8987,-2.8987,-2.8987,-2.8987,-2.8987,-2.8987,-2.8987,-2.8987,-2.8987,-2.8987,-2.8987,-2.8987,-2.8987,-2.8987,-2.8987,-2.8987,-2.9042,-2.9152,-2.9677,-2.9953,-3.0099,-3.0118,-3.0448,-3.0944,-3.1146,-3.1158,-3.1146,-3.077,-3.0658,-3.0804,-3.0975,-3.1227,-3.1572,-3.1678,-3.1288,-3.0733,-3.0101,-2.9363,-2.8533,-2.7834,-2.7296,-2.7085,-2.6907,-2.6775,-2.6708,-2.6708,-2.6708,-2.6708,-2.6708,-2.6708,-2.6708,-2.6708,-2.6708,-2.6708,-2.6708,-2.6691,-2.659,-2.6505,-2.6505,-2.6471,-2.5761,-2.549,-4.409,-4.3047,-4.2374,-4.147,-4.0593,-4.0496,-4.0496,-4.0496,-4.0496,-4.0477,-4.0477,-4.0477,-4.0477,-4.0477,-4.0342,-3.9573,-3.8104,-3.7853,-3.7077,-3.5654,-3.55,-3.55,-3.55,-3.55,-3.55,-3.55,-3.55,-3.55,-3.5288,-3.4584,-3.3833,-3.3103,-3.2218,-3.1346,-3.0731,-3.0577,-3.0404,-3.0349,-3.0068,-2.9931,-2.9877,-2.966,-2.9495,-2.9504,-2.9514,-2.9533,-2.9542,-2.9542,-2.9551,-2.9475,-2.9238,-2.9055,-2.9033,-2.8998,-2.8987,-2.8987,-2.8987,-2.8987,-2.8987,-2.8987,-2.8987,-2.8987,-2.8987,-2.8987,-2.8987,-2.8987,-2.8987,-2.8987,-2.8987,-2.8987,-2.9042,-2.9133,-2.9317,-2.9354,-2.9335,-2.939,-2.95,-2.9574,-2.9647,-2.9605,-2.9576,-2.9637,-3.024,-3.0401,-3.0734,-3.1192,-3.1138,-3.0797,-3.0309,-2.9765,-2.9162,-2.8557,-2.7922,-2.7409,-2.721,-2.7004,-2.6775,-2.6708,-2.6708,-2.6708,-2.6708,-2.6708,-2.6708,-2.6708,-2.6708,-2.6708,-2.6708,-2.6691,-2.6674,-2.6488,-2.6234,-2.6048,-2.5761,-2.5169,-2.4729,-4.382,-4.2577,-4.2088,-4.1362,-4.0581,-4.0496,-4.0496,-4.0496,-4.0496,-4.0265,-4.0092,-4.0285,-4.0285,-3.9938,-3.9881,-3.9181,-3.8046,-3.7115,-3.6365,-3.5596,-3.55,-3.55,-3.55,-3.55,-3.55,-3.55,-3.55,-3.55,-3.5192,-3.4295,-3.3333,-3.2814,-3.1731,-3.0904,-3.0462,-3.0404,-3.0404,-3.0349,-3.0143,-2.9999,-2.9969,-2.9804,-2.9705,-2.9705,-2.9705,-2.9705,-2.9668,-2.9677,-2.9696,-2.9643,-2.9475,-2.9291,-2.916,-2.9067,-2.8998,-2.8987,-2.8987,-2.8987,-2.8987,-2.8987,-2.8987,-2.9005,-2.8987,-2.8987,-2.8987,-2.8987,-2.8987,-2.8987,-2.8987,-2.8987,-2.8987,-2.9005,-2.8987,-2.8987,-2.8987,-2.8987,-2.8987,-2.8987,-2.8987,-2.8987,-2.9085,-2.9239,-2.9537,-2.9879,-3.0204,-3.0666,-3.1214,-3.0929,-3.0415,-2.9888,-2.9357,-2.8734,-2.8057,-2.756,-2.735,-2.71,-2.6758,-2.6708,-2.6708,-2.6708,-2.6708,-2.6708,-2.6708,-2.6691,-2.6657,-2.6691,-2.6691,-2.6674,-2.642,-2.6099,-2.5778,-2.5473,-2.5033,-2.4425,-2.4101,-4.3535,-4.1986,-4.1865,-4.1312,-4.0588,-4.0531,-4.0496,-4.0496,-4.0496,-4.0189,-3.9708,-4.0246,-4.0189,-3.9631,-3.94,-3.8784,-3.7603,-3.6392,-3.5577,-3.5519,-3.55,-3.55,-3.55,-3.55,-3.55,-3.55,-3.55,-3.55,-3.5038,-3.3872,-3.3064,-3.2622,-3.125,-3.0558,-3.0423,-3.0404,-3.0404,-3.0361,-3.0209,-3.0096,-3.0075,-2.9935,-2.9872,-2.9864,-2.9872,-2.9872,-2.988,-2.9864,-2.984,-2.9788,-2.9754,-2.9652,-2.9494,-2.9278,-2.9104,-2.9108,-2.9163,-2.9185,-2.9195,-2.9171,-2.9149,-2.9078,-2.9067,-2.9021,-2.901,-2.8987,-2.8987,-2.8987,-2.8987,-2.8987,-2.8987,-2.8987,-2.8987,-2.8987,-2.8987,-2.8987,-2.8987,-2.8987,-2.8987,-2.8987,-2.8987,-2.9115,-2.9262,-2.9519,-2.9812,-3.0136,-3.0687,-3.0907,-3.0356,-2.9886,-2.9296,-2.8886,-2.8228,-2.7823,-2.7604,-2.7502,-2.7115,-2.702,-2.6939,-2.684,-2.6789,-2.6583,-2.6565,-2.6606,-2.6607,-2.6522,-2.6285,-2.6015,-2.5761,-2.5541,-2.5135,-2.4661,-2.4186,-2.3695,-2.3475,-4.3104,-4.2019,-4.1253,-4.0796,-4.0662,-4.0552,-4.0512,-4.0496,-4.0512,-4.0439,-4.0285,-4.0419,-4.0362,-4.0015,-3.9496,-3.8411,-3.693,-3.5904,-3.55,-3.55,-3.55,-3.55,-3.55,-3.55,-3.55,-3.55,-3.55,-3.55,-3.5096,-3.3827,-3.2968,-3.2545,-3.1212,-3.0423,-3.0404,-3.0404,-3.0404,-3.0404,-3.0317,-3.0299,-3.0286,-3.0241,-3.0215,-3.0208,-3.0202,-3.0215,-3.0235,-3.0254,-3.0267,-3.0254,-3.0061,-2.9954,-2.9861,-2.9677,-2.9588,-2.9514,-2.9533,-2.9494,-2.9475,-2.9514,-2.9465,-2.9384,-2.9278,-2.9178,-2.9055,-2.8987,-2.8987,-2.8987,-2.8987,-2.8987,-2.8987,-2.8987,-2.8987,-2.8987,-2.8987,-2.8987,-2.8987,-2.8987,-2.8987,-2.8987,-2.8987,-2.9005,-2.9133,-2.9207,-2.9372,-2.9519,-2.9739,-2.9953,-2.9629,-2.9337,-2.9022,-2.8705,-2.8417,-2.8116,-2.788,-2.7808,-2.7648,-2.7577,-2.7454,-2.7168,-2.698,-2.6517,-2.6373,-2.6161,-2.5981,-2.5795,-2.5558,-2.5355,-2.5033,-2.4763,-2.4288,-2.3814,-2.346,-2.3122,-2.2835,-4.241,-4.1487,-4.1038,-4.0812,-4.0747,-4.0666,-4.0642,-4.0603,-4.0603,-4.0316,-3.998,-3.9861,-3.9611,-3.9084,-3.8315,-3.7219,-3.625,-3.575,-3.55,-3.55,-3.55,-3.55,-3.55,-3.55,-3.55,-3.55,-3.55,-3.55,-3.5308,-3.3737,-3.2987,-3.2506,-3.1231,-3.0404,-3.0404,-3.0404,-3.0404,-3.0404,-3.0404,-3.0404,-3.0404,-3.0404,-3.0404,-3.0404,-3.0404,-3.0404,-3.0404,-3.0404,-3.0379,-3.0361,-3.0267,-3.0235,-3.0176,-3.0114,-2.9954,-2.9773,-2.9722,-2.9652,-2.957,-2.9523,-2.9415,-2.9214,-2.9203,-2.9127,-2.9033,-2.8987,-2.8987,-2.8987,-2.8987,-2.8987,-2.8987,-2.8987,-2.8987,-2.8987,-2.8987,-2.8987,-2.8987,-2.8987,-2.8987,-2.8987,-2.8987,-2.8987,-2.8987,-2.9042,-2.9005,-2.8987,-2.8987,-2.8987,-2.8987,-2.8952,-2.8875,-2.8761,-2.857,-2.8347,-2.8147,-2.8106,-2.7936,-2.7877,-2.7713,-2.744,-2.6827,-2.6219,-2.5691,-2.5349,-2.5185,-2.4915,-2.4966,-2.4812,-2.4406,-2.4017,-2.3729,-2.3393,-2.2939,-2.2567,-2.2398,-4.1871,-4.1028,-4.1019,-4.0928,-4.085,-4.0805,-4.0766,-4.0721,-4.0704,-4.0332,-3.9627,-3.9401,-3.8982,-3.8169,-3.725,-3.6308,-3.5538,-3.55,-3.55,-3.55,-3.55,-3.55,-3.55,-3.55,-3.55,-3.55,-3.55,-3.55,-3.5154,-3.3737,-3.3026,-3.2449,-3.1231,-3.0404,-3.0404,-3.0404,-3.0404,-3.0404,-3.0404,-3.0404,-3.0404,-3.0404,-3.0404,-3.0404,-3.0404,-3.0404,-3.0404,-3.0404,-3.0404,-3.0404,-3.0373,-3.0379,-3.0398,-3.0404,-3.0215,-2.9923,-2.9859,-2.975,-2.968,-2.9662,-2.9607,-2.9322,-2.922,-2.9152,-2.8987,-2.8987,-2.8987,-2.8987,-2.8987,-2.8987,-2.8987,-2.8987,-2.8987,-2.8987,-2.8987,-2.8987,-2.8987,-2.8987,-2.8987,-2.8987,-2.8987,-2.8987,-2.8987,-2.8987,-2.8987,-2.8987,-2.8987,-2.8987,-2.8987,-2.8987,-2.8952,-2.8905,-2.8767,-2.8533,-2.8391,-2.8365,-2.8126,-2.7882,-2.764,-2.7371,-2.6556,-2.5713,-2.522,-2.465,-2.4051,-2.3833,-2.4051,-2.4118,-2.3596,-2.3257,-2.3207,-2.3004,-2.2634,-2.2465,-2.2347,-4.1933,-4.1171,-4.1052,-4.0992,-4.0959,-4.0864,-4.0797,-4.0785,-4.08,-4.0709,-4.0364,-3.9667,-3.9194,-3.852,-3.7257,-3.625,-3.5712,-3.55,-3.55,-3.55,-3.55,-3.55,-3.55,-3.55,-3.55,-3.5442,-3.5423,-3.55,-3.5007,-3.3641,-3.2929,-3.2564,-3.1346,-3.0404,-3.0404,-3.0404,-3.0404,-3.0404,-3.0404,-3.0404,-3.0404,-3.0404,-3.0404,-3.0404,-3.0404,-3.0404,-3.0404,-3.0404,-3.0404,-3.0404,-3.0404,-3.0404,-3.0404,-3.0404,-3.0398,-3.0336,-3.0324,-3.0292,-3.0195,-3.0114,-2.9954,-2.9643,-2.9677,-2.9542,-2.9272,-2.9071,-2.9071,-2.8987,-2.9021,-2.9048,-2.9082,-2.9021,-2.8998,-2.8998,-2.901,-2.8998,-2.8987,-2.8987,-2.8987,-2.8987,-2.8987,-2.8987,-2.8987,-2.8987,-2.8987,-2.8987,-2.8987,-2.8987,-2.8987,-2.8987,-2.8987,-2.894,-2.8929,-2.8725,-2.8488,-2.8487,-2.8154,-2.7834,-2.7399,-2.7059,-2.6155,-2.5235,-2.4584,-2.4012,-2.3384,-2.3144,-2.3522,-2.3406,-2.2773,-2.2617,-2.2719,-2.26,-2.2381,-2.2313,-2.2313,-4.1523,-4.1211,-4.1129,-4.1126,-4.1104,-4.1052,-4.0988,-4.0939,-4.0914,-4.0847,-4.0489,-3.9325,-3.8228,-3.73,-3.6273,-3.5846,-3.5538,-3.5488,-3.55,-3.55,-3.55,-3.55,-3.55,-3.55,-3.55,-3.5385,-3.5019,-3.468,-3.4314,-3.368,-3.2891,-3.2602,-3.1288,-3.0404,-3.0404,-3.0404,-3.0404,-3.0404,-3.0404,-3.0404,-3.0404,-3.0404,-3.0404,-3.0404,-3.0404,-3.0404,-3.0404,-3.0404,-3.0404,-3.0404,-3.0404,-3.0404,-3.0404,-3.0404,-3.0398,-3.0398,-3.0398,-3.0311,-3.0189,-3.0177,-3.0003,-2.9804,-2.9771,-2.9651,-2.9446,-2.9377,-2.9377,-2.9407,-2.9397,-2.9377,-2.9345,-2.9291,-2.9246,-2.9211,-2.9127,-2.9044,-2.9021,-2.8987,-2.8987,-2.8987,-2.8987,-2.8987,-2.895,-2.8858,-2.8895,-2.8987,-2.8987,-2.8987,-2.8987,-2.8987,-2.8987,-2.8975,-2.8975,-2.894,-2.8649,-2.8479,-2.7988,-2.7568,-2.6765,-2.6303,-2.5566,-2.4789,-2.4203,-2.3744,-2.3325,-2.3197,-2.3245,-2.2962,-2.2599,-2.2434,-2.2313,-2.231,-2.2338,-2.2313,-2.2313,-4.1191,-4.1191,-4.1191,-4.1191,-4.1191,-4.1191,-4.0992,-4.0741,-4.0973,-4.0732,-3.9909,-3.8606,-3.7074,-3.5936,-3.566,-3.5602,-3.5534,-3.5528,-3.5515,-3.5501,-3.55,-3.55,-3.55,-3.55,-3.55,-3.5462,-3.468,-3.4359,-3.3936,-3.3199,-3.2526,-3.2526,-3.1115,-3.0481,-3.0404,-3.0404,-3.0404,-3.0404,-3.0404,-3.0404,-3.0404,-3.0404,-3.0404,-3.0404,-3.0404,-3.0404,-3.0404,-3.0404,-3.0404,-3.0404,-3.0404,-3.0404,-3.0404,-3.0404,-3.0404,-3.0404,-3.0404,-3.0329,-3.0215,-3.0143,-2.9969,-2.9837,-2.9712,-2.9739,-2.9771,-2.9746,-2.9696,-2.9643,-2.9652,-2.9661,-2.967,-2.9551,-2.9504,-2.9415,-2.9324,-2.9195,-2.9075,-2.9027,-2.8989,-2.8987,-2.8987,-2.8987,-2.8913,-2.8748,-2.8767,-2.895,-2.8987,-2.895,-2.8858,-2.8748,-2.8601,-2.8491,-2.818,-2.8143,-2.8014,-2.7831,-2.753,-2.7156,-2.6361,-2.5672,-2.4979,-2.4473,-2.3981,-2.3572,-2.3311,-2.3091,-2.305,-2.275,-2.249,-2.249,-2.2477,-2.2374,-2.2349,-2.2324,-2.2313,-4.1191,-4.1191,-4.1172,-4.1172,-4.1191,-4.1191,-4.0723,-4.0137,-4.0801,-4.0088,-3.866,-3.7569,-3.668,-3.5896,-3.5667,-3.5645,-3.5604,-3.559,-3.5546,-3.5515,-3.55,-3.55,-3.55,-3.55,-3.5423,-3.5231,-3.443,-3.4064,-3.3737,-3.2372,-3.191,-3.1615,-3.0827,-3.0519,-3.0404,-3.0404,-3.0404,-3.0404,-3.0404,-3.0404,-3.0404,-3.0404,-3.0404,-3.0404,-3.0404,-3.0404,-3.0404,-3.0404,-3.0404,-3.0404,-3.0404,-3.0404,-3.0404,-3.0404,-3.0404,-3.0404,-3.0404,-3.0361,-3.0311,-3.0299,-3.0209,-3.0018,-2.9869,-2.9864,-2.9981,-2.9823,-2.9739,-2.9773,-2.9788,-2.9729,-2.9712,-2.9678,-2.9579,-2.9504,-2.9367,-2.9272,-2.914,-2.9003,-2.8964,-2.8978,-2.8822,-2.8546,-2.8455,-2.818,-2.8345,-2.851,-2.829,-2.8235,-2.8235,-2.8143,-2.7952,-2.7695,-2.7181,-2.6969,-2.6877,-2.6704,-2.6612,-2.6292,-2.5646,-2.5069,-2.4496,-2.4068,-2.3894,-2.3761,-2.3555,-2.3206,-2.2972,-2.3063,-2.3056,-2.2802,-2.2625,-2.244,-2.2349,-2.231,-2.2313,-4.1191,-4.1152,-4.0625,-4.0703,-4.1152,-4.0625,-4.0215,-3.9883,-3.9687,-3.8945,-3.7707,-3.7264,-3.6631,-3.5989,-3.569,-3.5645,-3.5614,-3.5558,-3.5528,-3.5508,-3.55,-3.55,-3.55,-3.5404,-3.5238,-3.4661,-3.3878,-3.307,-3.2468,-3.1545,-3.1077,-3.075,-3.0558,-3.0481,-3.0404,-3.0404,-3.0404,-3.0404,-3.0404,-3.0404,-3.0404,-3.0404,-3.0404,-3.0404,-3.0404,-3.0404,-3.0404,-3.0404,-3.0404,-3.0404,-3.0404,-3.0404,-3.0404,-3.0404,-3.0404,-3.0404,-3.0404,-3.0404,-3.0404,-3.0404,-3.0329,-3.0299,-3.0176,-3.0148,-3.0209,-3.0148,-3.0128,-3.0107,-2.9973,-2.9893,-2.9877,-2.9678,-2.9474,-2.9465,-2.9352,-2.9208,-2.8998,-2.8758,-2.8653,-2.854,-2.8022,-2.7556,-2.7548,-2.7512,-2.7787,-2.8026,-2.7758,-2.7556,-2.7556,-2.7438,-2.72,-2.6961,-2.6484,-2.6337,-2.6253,-2.6025,-2.576,-2.5393,-2.4989,-2.464,-2.4273,-2.4235,-2.4059,-2.3955,-2.3886,-2.3682,-2.3599,-2.3724,-2.3511,-2.2977,-2.263,-2.2371,-2.2321,-2.2313,-2.2313,-4.0957,-4.1035,-3.998,-4.0019,-4.0664,-4.0176,-3.959,-3.916,-3.9121,-3.8301,-3.7305,-3.7003,-3.6526,-3.5997,-3.5788,-3.5666,-3.5621,-3.5571,-3.5534,-3.5501,-3.55,-3.55,-3.55,-3.5365,-3.5084,-3.4186,-3.3321,-3.2583,-3.1872,-3.0865,-3.0558,-3.0481,-3.0404,-3.0404,-3.0404,-3.0404,-3.0404,-3.0404,-3.0404,-3.0404,-3.0404,-3.0404,-3.0404,-3.0404,-3.0404,-3.0404,-3.0404,-3.0404,-3.0404,-3.0404,-3.0404,-3.0404,-3.0404,-3.0404,-3.0404,-3.0404,-3.0404,-3.0404,-3.0404,-3.0404,-3.0404,-3.0361,-3.0367,-3.0361,-3.0404,-3.0404,-3.0336,-3.0343,-3.0202,-3.0077,-3.0025,-2.9692,-2.9361,-2.9265,-2.8758,-2.856,-2.8323,-2.8091,-2.8068,-2.8007,-2.7443,-2.6924,-2.6778,-2.6796,-2.6869,-2.7181,-2.7226,-2.7024,-2.6943,-2.6722,-2.6319,-2.6098,-2.5823,-2.5805,-2.5805,-2.5401,-2.5044,-2.4905,-2.4585,-2.4456,-2.4218,-2.4199,-2.4199,-2.4103,-2.4084,-2.4123,-2.4006,-2.3816,-2.3421,-2.2975,-2.2725,-2.25,-2.2321,-2.2313,-2.2313,-4.0391,-4.0937,-3.9316,-3.9121,-3.9805,-3.9883,-3.8945,-3.7871,-3.8828,-3.8574,-3.7129,-3.6445,-3.6113,-3.5976,-3.588,-3.5791,-3.5682,-3.5616,-3.556,-3.554,-3.5508,-3.5494,-3.5456,-3.5328,-3.4757,-3.4129,-3.3179,-3.2275,-3.1558,-3.0788,-3.0442,-3.0404,-3.0404,-3.0404,-3.0404,-3.0404,-3.0404,-3.0404,-3.0404,-3.0404,-3.0404,-3.0404,-3.0404,-3.0404,-3.0404,-3.0404,-3.0404,-3.0404,-3.0404,-3.0404,-3.0404,-3.0404,-3.0404,-3.0404,-3.0404,-3.0404,-3.0404,-3.0404,-3.0404,-3.0404,-3.0404,-3.0404,-3.0404,-3.0404,-3.0404,-3.0404,-3.0404,-3.0398,-3.0196,-3.0196,-2.9997,-2.9569,-2.9104,-2.8713,-2.8203,-2.7967,-2.7743,-2.7343,-2.7307,-2.7344,-2.6952,-2.6502,-2.6245,-2.608,-2.6025,-2.6209,-2.6492,-2.6473,-2.6227,-2.5933,-2.5503,-2.5346,-2.5144,-2.5071,-2.4979,-2.4612,-2.4328,-2.4245,-2.4245,-2.4218,-2.4199,-2.4199,-2.4199,-2.4199,-2.418,-2.4161,-2.3947,-2.3724,-2.3477,-2.3289,-2.2928,-2.2691,-2.2467,-2.2391,-2.2497,-3.9199,-3.9375,-3.8223,-3.791,-3.8164,-3.8184,-3.7793,-3.7344,-3.7285,-3.6973,-3.6504,-3.6074,-3.6016,-3.5976,-3.5923,-3.5871,-3.5821,-3.5653,-3.5599,-3.5616,-3.5564,-3.5534,-3.5424,-3.4956,-3.4263,-3.3359,-3.2506,-3.1736,-3.0788,-3.0491,-3.0435,-3.0404,-3.039,-3.0404,-3.0404,-3.0404,-3.0404,-3.0404,-3.0404,-3.0404,-3.0404,-3.0404,-3.0404,-3.0404,-3.0404,-3.0404,-3.0404,-3.0404,-3.0404,-3.0404,-3.0404,-3.0404,-3.0404,-3.0404,-3.0404,-3.0404,-3.0404,-3.0404,-3.0404,-3.0404,-3.0404,-3.0404,-3.0404,-3.0404,-3.0404,-3.0404,-3.0404,-3.0207,-2.9813,-2.9628,-2.9173,-2.8348,-2.7866,-2.7759,-2.7478,-2.7459,-2.7231,-2.6704,-2.6443,-2.6555,-2.6367,-2.5587,-2.516,-2.5365,-2.5383,-2.5281,-2.5521,-2.5331,-2.509,-2.4934,-2.4622,-2.4593,-2.4483,-2.4355,-2.4199,-2.4199,-2.4199,-2.4218,-2.4236,-2.4218,-2.4199,-2.4199,-2.4199,-2.4199,-2.418,-2.4161,-2.4026,-2.3917,-2.3865,-2.3649,-2.3335,-2.3045,-2.2857,-2.2849,-2.2958,-3.832,-3.8437,-3.7344,-3.7031,-3.7266,-3.7285,-3.7285,-3.7129,-3.6406,-3.6016,-3.6016,-3.6016,-3.6016,-3.5976,-3.5922,-3.5884,-3.5892,-3.5732,-3.5657,-3.5689,-3.5626,-3.5611,-3.534,-3.4705,-3.3984,-3.299,-3.2148,-3.1361,-3.0562,-3.0482,-3.0457,-3.0441,-3.0394,-3.039,-3.0404,-3.0404,-3.0404,-3.0404,-3.0404,-3.0404,-3.0404,-3.0404,-3.0404,-3.0404,-3.0404,-3.0404,-3.0404,-3.0404,-3.0404,-3.0404,-3.0404,-3.0404,-3.0404,-3.0404,-3.0404,-3.0404,-3.0404,-3.0404,-3.0404,-3.0404,-3.0404,-3.0404,-3.0404,-3.0404,-3.0404,-3.0404,-3.0404,-3.0118,-2.9392,-2.904,-2.867,-2.7747,-2.7034,-2.6951,-2.6712,-2.6688,-2.6472,-2.5948,-2.5771,-2.5876,-2.5753,-2.4918,-2.4428,-2.4518,-2.4756,-2.462,-2.4511,-2.433,-2.4238,-2.4237,-2.4228,-2.4246,-2.4246,-2.4208,-2.4199,-2.4199,-2.4199,-2.4199,-2.4199,-2.4199,-2.4199,-2.4199,-2.4199,-2.4199,-2.419,-2.419,-2.419,-2.4141,-2.4044,-2.3955,-2.3785,-2.3522,-2.3259,-2.3236,-2.33,-3.7754,-3.8203,-3.6719,-3.6484,-3.7148,-3.7148,-3.7187,-3.7148,-3.6348,-3.6016,-3.6016,-3.6016,-3.6016,-3.5996,-3.5922,-3.589,-3.5884,-3.5766,-3.5755,-3.572,-3.5702,-3.5658,-3.5284,-3.4648,-3.3682,-3.2965,-3.2146,-3.1173,-3.0539,-3.0537,-3.0537,-3.0527,-3.0462,-3.0436,-3.0428,-3.0439,-3.0417,-3.0408,-3.0404,-3.0404,-3.0404,-3.0404,-3.0404,-3.0404,-3.0404,-3.0404,-3.0404,-3.0404,-3.0404,-3.0404,-3.0404,-3.0404,-3.0404,-3.0404,-3.0404,-3.0404,-3.0404,-3.0404,-3.0365,-3.0365,-3.0173,-3.0096,-3.0058,-3.0231,-3.0346,-3.025,-3.0058,-2.9833,-2.9273,-2.9002,-2.8626,-2.7547,-2.6494,-2.62,-2.5836,-2.5702,-2.5538,-2.5313,-2.5219,-2.5197,-2.5122,-2.4756,-2.47,-2.4693,-2.4643,-2.4639,-2.461,-2.4537,-2.4426,-2.4303,-2.4294,-2.4275,-2.4256,-2.4199,-2.4199,-2.4199,-2.4199,-2.4199,-2.4199,-2.4199,-2.4199,-2.4199,-2.4199,-2.4199,-2.4199,-2.4199,-2.4199,-2.4199,-2.418,-2.4094,-2.3996,-2.3886,-2.3617,-2.35,-2.3477,-3.6523,-3.668,-3.6211,-3.6152,-3.6348,-3.6387,-3.6367,-3.6328,-3.6074,-3.6016,-3.6016,-3.6016,-3.6016,-3.5996,-3.5975,-3.5957,-3.5926,-3.5895,-3.5895,-3.5823,-3.5573,-3.5329,-3.4798,-3.403,-3.3147,-3.2301,-3.152,-3.0956,-3.0656,-3.0606,-3.06,-3.0561,-3.0537,-3.0511,-3.0513,-3.0524,-3.0482,-3.0425,-3.0411,-3.0419,-3.0414,-3.0419,-3.0408,-3.039,-3.0402,-3.0402,-3.0408,-3.0402,-3.0421,-3.0408,-3.0396,-3.039,-3.0404,-3.0404,-3.0404,-3.0404,-3.0404,-3.0385,-3.0288,-2.9813,-2.9473,-2.9344,-2.9011,-2.9486,-2.9769,-2.9827,-2.9486,-2.9217,-2.8717,-2.8261,-2.7698,-2.6755,-2.6038,-2.5712,-2.5462,-2.5399,-2.5274,-2.5253,-2.5157,-2.513,-2.5031,-2.4949,-2.4889,-2.4861,-2.4806,-2.4811,-2.479,-2.4738,-2.4639,-2.4512,-2.4436,-2.4392,-2.4321,-2.4275,-2.4228,-2.4227,-2.4199,-2.4199,-2.4199,-2.4199,-2.4199,-2.4199,-2.4199,-2.4199,-2.4199,-2.4199,-2.4199,-2.4199,-2.4199,-2.4199,-2.4113,-2.4064,-2.3976,-2.3845,-2.3774,-3.6016,-3.6016,-3.6016,-3.6016,-3.6016,-3.6016,-3.6016,-3.6016,-3.6016,-3.6016,-3.6016,-3.6016,-3.6016,-3.6016,-3.6016,-3.5996,-3.5957,-3.5523,-3.5502,-3.5813,-3.5195,-3.4881,-3.4231,-3.3437,-3.2638,-3.1816,-3.125,-3.0776,-3.0652,-3.062,-3.0609,-3.0626,-3.0628,-3.0581,-3.0551,-3.0558,-3.0536,-3.0511,-3.0482,-3.0467,-3.0452,-3.0452,-3.0442,-3.0406,-3.0436,-3.0449,-3.0455,-3.0455,-3.0456,-3.0482,-3.0477,-3.0477,-3.0482,-3.0482,-3.0452,-3.0399,-3.0007,-2.9906,-2.9703,-2.9047,-2.8774,-2.8438,-2.7922,-2.8217,-2.8659,-2.8852,-2.8703,-2.8492,-2.7818,-2.7159,-2.6524,-2.5923,-2.5615,-2.5308,-2.5308,-2.5308,-2.5308,-2.5308,-2.5279,-2.5269,-2.5192,-2.5101,-2.5043,-2.5,-2.5013,-2.505,-2.5062,-2.5031,-2.491,-2.4749,-2.467,-2.4615,-2.4469,-2.4367,-2.4294,-2.4228,-2.4209,-2.4199,-2.4199,-2.4199,-2.4199,-2.4199,-2.4199,-2.4199,-2.4199,-2.4199,-2.4199,-2.4199,-2.4199,-2.4199,-2.4199,-2.4151,-2.4103,-2.4084,-2.4046,-3.6016,-3.6016,-3.6016,-3.6016,-3.6016,-3.6016,-3.6016,-3.6016,-3.6016,-3.6016,-3.6016,-3.6016,-3.5937,-3.5742,-3.5703,-3.5586,-3.5293,-3.4844,-3.4844,-3.5703,-3.4414,-3.3887,-3.3672,-3.3027,-3.2246,-3.1836,-3.1406,-3.081,-3.0714,-3.0698,-3.0696,-3.0723,-3.0667,-3.0636,-3.0603,-3.0662,-3.0636,-3.0586,-3.0597,-3.061,-3.0545,-3.0545,-3.0533,-3.0477,-3.0482,-3.0511,-3.0511,-3.0532,-3.056,-3.0594,-3.0597,-3.0587,-3.0581,-3.0578,-3.0556,-3.0273,-2.9799,-2.9515,-2.9126,-2.8443,-2.8003,-2.7589,-2.7093,-2.7099,-2.7364,-2.7824,-2.7799,-2.7741,-2.7159,-2.6678,-2.6096,-2.5712,-2.5404,-2.5308,-2.5308,-2.5308,-2.5308,-2.5308,-2.5288,-2.5279,-2.5269,-2.5187,-2.5187,-2.5149,-2.5138,-2.5233,-2.5243,-2.5238,-2.5154,-2.4981,-2.4855,-2.479,-2.4602,-2.4428,-2.433,-2.4247,-2.4209,-2.4199,-2.4209,-2.4199,-2.4199,-2.4199,-2.4199,-2.4199,-2.4199,-2.4199,-2.4199,-2.4199,-2.4199,-2.4199,-2.4199,-2.4199,-2.4199,-2.4199,-2.419,-3.6016,-3.6016,-3.6016,-3.6016,-3.6016,-3.6016,-3.6016,-3.6016,-3.6016,-3.6016,-3.5996,-3.5937,-3.5625,-3.5176,-3.5039,-3.4785,-3.416,-3.3984,-3.3867,-3.4023,-3.3418,-3.3008,-3.291,-3.2422,-3.1816,-3.1328,-3.0976,-3.0898,-3.084,-3.082,-3.082,-3.0859,-3.0801,-3.076,-3.0702,-3.0756,-3.076,-3.0682,-3.0734,-3.0714,-3.0634,-3.0607,-3.0587,-3.0559,-3.0571,-3.0575,-3.0575,-3.0578,-3.0584,-3.0603,-3.0603,-3.0603,-3.0603,-3.0589,-3.0577,-3.0403,-2.958,-2.9149,-2.867,-2.7847,-2.7187,-2.6828,-2.638,-2.6049,-2.6116,-2.6627,-2.6876,-2.6818,-2.6621,-2.6173,-2.5827,-2.5519,-2.5308,-2.5308,-2.5308,-2.5308,-2.5308,-2.5308,-2.5308,-2.5308,-2.5308,-2.5308,-2.5308,-2.5308,-2.5308,-2.5284,-2.5284,-2.5274,-2.5269,-2.5154,-2.4981,-2.4862,-2.4647,-2.4486,-2.44,-2.4339,-2.4321,-2.4257,-2.4266,-2.4237,-2.4209,-2.4199,-2.4199,-2.4199,-2.4199,-2.4199,-2.4199,-2.4199,-2.4199,-2.4199,-2.4199,-2.4199,-2.4199,-2.4199,-2.4199,-3.597,-3.595,-3.597,-3.574,-3.5527,-3.582,-3.6016,-3.6016,-3.6016,-3.6016,-3.5918,-3.5586,-3.5117,-3.457,-3.4316,-3.3926,-3.3301,-3.2988,-3.3242,-3.3262,-3.2656,-3.2344,-3.2051,-3.1836,-3.1426,-3.0976,-3.0918,-3.0918,-3.0918,-3.0918,-3.0898,-3.0918,-3.0898,-3.0859,-3.0801,-3.0859,-3.0859,-3.0793,-3.0859,-3.082,-3.0742,-3.0742,-3.0664,-3.066,-3.0633,-3.0643,-3.0652,-3.0655,-3.0689,-3.0719,-3.075,-3.0378,-3.0263,-3.0108,-2.9876,-2.9351,-2.8697,-2.823,-2.7872,-2.722,-2.6342,-2.6082,-2.5915,-2.5664,-2.5657,-2.6091,-2.606,-2.6008,-2.5996,-2.5615,-2.5558,-2.5327,-2.5308,-2.5308,-2.5308,-2.5308,-2.5308,-2.5308,-2.5308,-2.5308,-2.5308,-2.5308,-2.5308,-2.5308,-2.5308,-2.5308,-2.5308,-2.5308,-2.5308,-2.5284,-2.5113,-2.4974,-2.4806,-2.4734,-2.4723,-2.462,-2.4503,-2.4428,-2.4348,-2.4284,-2.4266,-2.4228,-2.4199,-2.4228,-2.4228,-2.4199,-2.4199,-2.4199,-2.4199,-2.4199,-2.4199,-2.4199,-2.4199,-2.4199,-2.4199,-3.5818,-3.5726,-3.5864,-3.5358,-3.4766,-3.5605,-3.5918,-3.582,-3.582,-3.5801,-3.5586,-3.4726,-3.4473,-3.4238,-3.3672,-3.332,-3.2871,-3.2226,-3.248,-3.2383,-3.1601,-3.1582,-3.1523,-3.1309,-3.1074,-3.0957,-3.0918,-3.0918,-3.0918,-3.0918,-3.0918,-3.0918,-3.0918,-3.0918,-3.0918,-3.0918,-3.0898,-3.0879,-3.0918,-3.0918,-3.0898,-3.0918,-3.0801,-3.0723,-3.0698,-3.0739,-3.0721,-3.0745,-3.0814,-3.084,-3.082,-3.0371,-2.998,-2.9726,-2.9152,-2.8636,-2.7791,-2.7362,-2.6927,-2.6346,-2.5885,-2.563,-2.5543,-2.5524,-2.5522,-2.5504,-2.5473,-2.5464,-2.5438,-2.5407,-2.5373,-2.533,-2.533,-2.5308,-2.5308,-2.5308,-2.5308,-2.5308,-2.5308,-2.5308,-2.5308,-2.5308,-2.5308,-2.5308,-2.5308,-2.5308,-2.5308,-2.5308,-2.5288,-2.5284,-2.5203,-2.513,-2.503,-2.4999,-2.4937,-2.4836,-2.467,-2.4607,-2.4528,-2.4428,-2.4375,-2.4419,-2.4393,-2.4303,-2.4294,-2.4275,-2.4228,-2.4199,-2.4199,-2.4237,-2.4199,-2.4199,-2.4199,-2.4199,-2.4199,-3.5373,-3.4905,-3.5589,-3.5025,-3.4004,-3.5273,-3.5625,-3.5,-3.4941,-3.4941,-3.459,-3.3457,-3.2969,-3.3613,-3.2793,-3.2246,-3.1758,-3.1348,-3.123,-3.1133,-3.1113,-3.1113,-3.1113,-3.1094,-3.0957,-3.0918,-3.0918,-3.0918,-3.0918,-3.0918,-3.0918,-3.0918,-3.0918,-3.0918,-3.0918,-3.0918,-3.0918,-3.0918,-3.0918,-3.0918,-3.0918,-3.0898,-3.0898,-3.0857,-3.0857,-3.0858,-3.0858,-3.0878,-3.0879,-3.0898,-3.0781,-3.0273,-2.9726,-2.9277,-2.873,-2.7949,-2.7109,-2.6894,-2.6484,-2.5996,-2.5723,-2.5658,-2.5627,-2.5593,-2.5584,-2.5541,-2.5527,-2.5539,-2.5526,-2.5537,-2.5514,-2.5466,-2.5438,-2.5379,-2.5352,-2.5317,-2.5308,-2.5308,-2.5308,-2.5308,-2.5308,-2.5308,-2.5308,-2.5308,-2.5308,-2.5308,-2.5308,-2.5308,-2.5308,-2.5284,-2.5274,-2.5234,-2.5189,-2.5024,-2.4889,-2.4923,-2.4825,-2.4775,-2.4716,-2.4634,-2.4618,-2.4693,-2.4639,-2.4495,-2.4428,-2.4419,-2.4339,-2.4339,-2.4284,-2.4312,-2.4237,-2.4199,-2.4209,-2.4199,-2.4199]},{"header":{"parameterUnit":"m.s-1","parameterCategory":1,"la1":31.0,"la2":29.5877,"lo1":-88.7671,"lo2":-86.6584,"dy":0.0162,"dx":0.0185,"nx":115,"ny":88,"refTime":"2024-07-01T00:00:00:Z","depth":0,"parameterNumber":3,"parameterNumberName":"V-component_of_WINDS"},"data":[0.0,0.0,0.0,0.0,0.0,0.0,0.0,0.0,0.0,0.0,0.0,0.0,0.0,0.0,0.0,0.0,0.0,0.0,0.0,0.0,0.0,0.0,0.0,0.0,0.0,0.0,0.0,0.0,0.0,0.0,0.0,0.0,0.0,0.0,0.0,0.0,0.0,0.0,0.0,0.0,0.0,0.0,0.0,0.0,0.0,0.0,0.0,0.0,0.0,0.0,0.0,0.0,0.0,0.0,0.0,0.0,0.0,0.0,0.0,0.0,0.0,0.0,0.0,0.0,0.0,0.0,0.0,0.0,0.0,0.0,0.0,0.0,0.0,0.0,0.0,0.0,0.0,0.0,0.0,0.0,0.0,0.0,0.0,0.0,0.0,0.0,0.0,0.0,0.0,0.0,0.0,0.0,0.0,0.0,0.0,0.0,0.0,0.0,0.0,0.0,0.0,0.0,0.0,0.0,0.0,0.0,0.0,0.0,0.0,0.0,0.0,0.0,0.0,0.0,0.0,0.0,0.0,0.0,0.0,0.0,0.0,0.0,0.0,0.0,0.0,0.0,0.0,0.0,0.0,0.0,0.0,0.0,0.0,0.0,0.0,0.0,0.0,0.0,0.0,0.0,0.0,0.0,0.0,0.0,0.0,0.0,0.0,0.0,0.0,0.0,0.0,0.0,0.0,0.0,0.0,0.0,0.0,0.0,0.0,0.0,0.0,0.0,0.0,0.0,0.0,0.0,0.0,0.0,0.0,0.0,0.0,0.0,0.0,0.0,0.0,0.0,0.0,0.0,0.0,0.0,0.0,0.0,0.0,0.0,0.0,0.0,0.0,0.0,0.0,0.0,0.0,0.0,0.0,0.0,0.0,0.0,0.0,0.0,0.0,0.0,0.0,0.0,0.0,0.0,0.0,0.0,0.0,0.0,0.0,0.0,0.0,0.0,0.0,0.0,0.0,0.0,0.0,0.0,0.0,0.0,0.0,0.0,0.0,0.0,0.0,0.0,0.0,0.0,0.0,0.0,0.0,0.0,0.0,0.0,0.0,0.0,0.0,0.0,0.0,0.0,0.0,0.0,0.0,0.0,0.0,0.0,0.0,0.0,0.0,0.0,0.0,0.0,0.0,0.0,0.0,0.0,0.0,0.0,0.0,0.0,0.0,0.0,0.0,0.0,0.0,0.0,0.0,0.0,0.0,0.0,0.0,0.0,0.0,0.0,0.0,0.0,0.0,0.0,0.0,0.0,0.0,0.0,0.0,0.0,0.0,0.0,0.0,0.0,0.0,0.0,0.0,0.0,0.0,0.0,0.0,0.0,0.0,0.0,0.0,0.0,0.0,0.0,0.0,0.0,0.0,0.0,0.0,0.0,0.0,0.0,0.0,0.0,0.0,0.0,0.0,0.0,0.0,0.0,0.0,0.0,0.0,0.0,0.0,0.0,0.0,0.0,0.0,0.0,0.0,0.0,0.0,0.0,0.0,0.0,0.0,0.0,0.0,0.0,0.0,0.0,0.0,0.0,0.0,0.0,0.0,0.0,0.0,0.0,0.0,0.0,0.0,0.0,0.0,0.0,0.0,0.0,0.0,0.0,0.0,0.0,0.0,0.0,0.0,0.0,0.0,0.0,0.0,0.0,0.0,0.0,0.0,0.0,0.0,0.0,0.0,0.0,0.0,0.0,0.0,0.0,0.0,0.0,0.0,0.0,0.0,0.0,0.0,0.0,0.0,0.0,0.0,0.0,0.0,0.0,0.0,0.0,0.0,0.0,0.0,0.0,0.0,0.0,0.0,0.0,0.0,0.0,0.0,0.0,0.0,0.0,0.0,0.0,0.0,0.0,0.0,0.0,0.0,0.0,0.0,0.0,0.0,0.0,0.0,0.0,0.0,0.0,0.0,0.0,0.0,0.0,0.0,0.0,0.0,0.0,0.0,0.0,0.0,0.0,0.0,0.0,0.0,0.0,0.0,0.0,0.0,0.0,0.0,0.0,0.0,0.0,0.0,0.0,0.0,0.0,0.0,0.0,0.0,0.0,0.0,0.0,0.0,0.0,0.0,0.0,0.0,0.0,0.0,0.0,0.0,0.0,0.0,0.0,0.0,0.0,0.0,0.0,0.0,0.0,0.0,0.0,0.0,0.0,0.0,0.0,0.0,0.0,0.0,0.0,0.0,0.0,0.0,0.0,0.0,0.0,0.0,0.0,0.0,0.0,0.0,0.0,0.0,0.0,0.0,0.0,0.0,0.0,0.0,0.0,0.0,0.0,0.0,0.0,0.0,0.0,0.0,0.0,0.0,0.0,0.0,0.0,0.0,0.0,0.0,0.0,0.0,0.0,0.0,0.0,0.0,0.0,0.0,0.0,0.0,0.0,0.0,0.0,0.0,0.0,0.0,0.0,0.0,0.0,0.0,0.0,0.0,0.0,0.0,0.0,0.0,0.0,0.0,0.0,0.0,0.0,0.0,0.0,0.0,0.0,0.0,0.0,0.0,0.0,0.0,0.0,0.0,0.0,0.0,0.0,0.0,0.0,0.0,0.0,0.0,0.0,0.0,0.0,0.0,0.0,0.0,0.0,0.0,0.0,0.0,0.0,0.0,0.0,0.0,0.0,0.0,0.0,0.0,0.0,0.0,0.0,0.0,0.0,0.0,0.0,0.0,0.0,0.0,0.0,0.0,0.0,0.0,0.0,0.0,0.0,0.0,0.0,0.0,0.0,0.0,0.0,0.0,0.0,0.0,0.0,0.0,0.0,0.0,0.0,0.0,0.0,0.0,0.0,0.0,0.0,0.0,0.0,0.0,0.0,0.0,0.0,0.0,0.0,0.0,0.0,0.0,0.0,0.0,0.0,0.0,0.0,0.0,0.0,0.0,0.0,0.0,0.0,0.0,0.0,0.0,0.0,0.0,0.0,0.0,0.0,0.0,0.0,0.0,0.0,0.0,0.0,0.0,0.0,0.0,0.0,0.0,0.0,0.0,0.0,0.0,0.0,0.0,0.0,0.0,0.0,0.0,0.0,0.0,0.0,0.0,0.0,0.0,0.0,0.0,0.0,0.0,0.0,0.0,0.0,0.0,0.0,0.0,0.0,0.0,0.0,0.0,0.0,0.0,0.0,0.0,0.0,0.0,0.0,0.0,0.0,0.0,0.0,0.0,0.0,0.0,0.0,0.0,0.0,0.0,0.0,0.0,0.0,0.0,0.0,0.0,0.0,0.0,0.0,0.0,0.0,0.0,0.0,0.0,0.0,0.0,0.0,0.0,0.0,0.0,0.0,0.0,0.0,0.0,0.0,0.0,0.0,0.0,0.0,0.0,0.0,0.0,0.0,0.0,0.0,0.0,0.0,0.0,0.0,0.0,0.0,0.0,0.0,0.0,0.0,0.0,0.0,0.0,0.0,0.0,0.0,0.0,0.0,0.0,0.0,0.0,0.0,0.0,0.0,0.0,0.0,0.0,0.0,0.0,0.0,0.0,0.0,0.0,0.0,0.0,0.0,0.0,0.0,0.0,0.0,0.0,0.0,0.0,0.0,0.0,0.0,0.0,0.0,0.0,0.0,0.0,0.0,0.0,0.0,0.0,0.0,0.0,0.0,0.0,0.0,0.0,0.0,0.0,0.0,0.0,0.0,0.0,0.0,0.0,0.0,0.0,0.0,0.0,0.0,0.0,0.0,0.0,0.0,0.0,0.0,0.0,0.0,0.0,0.0,0.0,0.0,0.0,0.0,0.0,0.0,0.0,0.0,0.0,0.0,0.0,0.0,0.0,0.0,0.0,0.0,0.0,0.0,0.0,0.0,0.0,0.0,0.0,0.0,0.0,0.0,0.0,0.0,0.0,0.0,0.0,0.0,0.0,0.0,0.0,0.0,0.0,0.0,0.0,0.0,0.0,0.0,0.0,0.0,0.0,0.0,0.0,0.0,0.0,0.0,0.0,0.0,0.0,0.0,0.0,0.0,0.0,0.0,0.0,0.0,0.0,0.0,0.0,0.0,0.0,0.0,0.0,0.0,0.0,0.0,0.0,0.0,0.0,0.0,0.0,0.0,0.0,0.0,0.0,0.0,0.0,0.0,0.0,0.0,0.0,0.0,0.0,0.0,0.0,0.0,0.0,0.0,0.0,0.0,0.0,0.0,0.0,0.0,0.0,0.0,0.0,0.0,0.0,0.0,0.0,0.0,0.0,0.0,0.0,0.0,0.0,0.0,0.0,0.0,0.0,0.0,0.0,0.0,0.0,0.0,0.0,0.0,0.0,0.0,0.0,0.0,0.0,0.0,0.0,0.0,-0.4685,0.0,0.0,0.0,0.0,0.0,0.0,0.0,0.0,0.0,0.0,0.0,0.0,0.0,0.0,0.0,0.0,0.0,0.0,0.0,0.0,0.0,0.0,0.0,0.0,0.0,0.0,0.0,0.0,0.0,0.0,0.0,0.0,0.0,0.0,0.0,0.0,0.0,0.0,0.0,0.0,0.0,0.0,0.0,0.0,0.0,0.0,0.0,0.0,0.0,0.0,0.0,0.0,0.0,0.0,0.0,0.0,0.0,0.0,0.0,0.0,0.0,0.0,0.0,0.0,0.0,0.0,0.0,0.0,0.0,0.0,0.0,0.0,0.0,0.0,0.0,0.0,0.0,0.0,0.0,0.0,0.0,0.0,0.0,0.0,0.0,0.0,0.0,0.0,0.0,0.0,0.0,0.0,0.0,0.0,0.0,0.0,0.0,0.0,0.0,0.0,0.0,0.0,0.0,0.0,0.0,0.0,0.0,0.0,0.0,0.0,-0.5503,-0.5417,-0.5308,-0.5153,-0.4984,0.0,0.0,0.0,0.0,0.0,0.0,0.0,0.0,0.0,0.0,0.0,0.0,0.0,0.0,0.0,0.0,0.0,0.0,0.0,0.0,0.0,0.0,0.0,0.0,0.0,0.0,0.0,0.0,0.0,0.0,0.0,0.0,0.0,0.0,0.0,0.0,0.0,0.0,0.0,0.0,0.0,0.0,0.0,0.0,0.0,0.0,0.0,0.0,0.0,0.0,0.0,0.0,0.0,0.0,0.0,0.0,0.0,0.0,0.0,0.0,0.0,0.0,0.0,0.0,0.0,0.0,0.0,0.0,0.0,0.0,0.0,0.0,0.0,0.0,0.0,0.0,0.0,0.0,0.0,0.0,0.0,0.0,0.0,0.0,0.0,0.0,0.0,0.0,0.0,0.0,0.0,0.0,0.0,0.0,0.0,0.0,0.0,0.0,0.0,0.0,0.0,0.0,0.0,0.0,0.0,0.0,0.0,0.0,0.0,0.0,0.0,0.0,-0.5724,-0.5582,-0.5256,0.0,0.0,0.0,0.0,0.0,0.0,0.0,0.0,0.0,0.0,0.0,0.0,0.0,0.0,0.0,0.0,0.0,0.0,0.0,0.0,0.0,0.0,0.0,0.0,0.0,0.0,0.0,0.0,0.0,0.0,0.0,0.0,0.0,0.0,0.0,0.0,0.0,0.0,0.0,0.0,0.0,0.0,0.0,0.0,0.0,0.0,0.0,0.0,0.0,0.0,0.0,0.0,0.0,0.0,0.0,0.0,0.0,0.0,0.0,0.0,0.0,0.0,0.0,0.0,0.0,0.0,0.0,0.0,0.0,0.0,0.0,0.0,0.0,0.0,0.0,0.0,0.0,0.0,0.0,0.0,0.0,0.0,0.0,0.0,0.0,0.0,0.0,0.0,0.0,0.0,0.0,0.0,0.0,0.0,0.0,0.0,0.0,0.0,0.0,0.0,0.0,0.0,0.0,0.0,0.0,0.0,0.0,0.0,0.0,0.0,-0.5881,-0.5866,-0.5749,0.0,-0.5413,0.0,0.0,0.0,0.0,0.0,0.0,0.0,0.0,0.0,0.0,0.0,0.0,0.0,0.0,0.0,0.0,0.0,0.0,0.0,0.0,0.0,0.0,0.0,0.0,0.0,0.0,0.0,0.0,0.0,0.0,0.0,0.0,0.0,0.0,0.0,0.0,0.0,0.0,0.0,0.0,0.0,0.0,0.0,0.0,0.0,0.0,0.0,0.0,0.0,0.0,0.0,0.0,0.0,0.0,0.0,0.0,0.0,0.0,0.0,0.0,0.0,0.0,0.0,0.0,0.0,0.0,0.0,0.0,0.0,0.0,0.0,0.0,0.0,0.0,0.0,0.0,0.0,0.0,0.0,0.0,0.0,0.0,0.0,0.0,0.0,0.0,0.0,0.0,0.0,0.0,0.0,0.0,0.0,0.0,0.0,0.0,0.0,0.0,0.0,0.0,0.0,0.0,0.0,0.0,0.0,0.0,0.0,0.0,0.0,0.0,0.0,-0.6482,-0.6429,-0.6331,0.0,0.0,0.0,0.0,0.0,0.0,0.0,0.0,0.0,0.0,0.0,0.0,0.0,0.0,0.0,0.0,0.0,0.0,0.0,0.0,0.0,0.0,0.0,0.0,0.0,0.0,0.0,0.0,0.0,0.0,0.0,0.0,0.0,0.0,0.0,0.0,0.0,0.0,0.0,0.0,0.0,0.0,0.0,0.0,0.0,0.0,0.0,0.0,0.0,0.0,0.0,0.0,0.0,0.0,0.0,0.0,0.0,0.0,0.0,0.0,0.0,0.0,0.0,0.0,0.0,0.0,0.0,0.0,0.0,0.0,0.0,0.0,0.0,0.0,0.0,0.0,0.0,0.0,0.0,0.0,0.0,0.0,0.0,0.0,0.0,0.0,0.0,0.0,0.0,0.0,0.0,0.0,0.0,0.0,0.0,0.0,0.0,0.0,0.0,0.0,0.0,0.0,0.0,0.0,0.0,0.0,0.0,0.0,0.0,0.0,-0.6872,0.0,-0.6999,-0.7003,-0.6926,-0.6787,0.0,0.0,0.0,0.0,0.0,0.0,0.0,0.0,0.0,0.0,0.0,0.0,0.0,0.0,0.0,0.0,0.0,0.0,0.0,0.0,0.0,0.0,0.0,0.0,0.0,0.0,0.0,0.0,0.0,0.0,0.0,0.0,0.0,0.0,0.0,0.0,0.0,0.0,0.0,0.0,0.0,0.0,0.0,0.0,0.0,0.0,0.0,0.0,0.0,0.0,0.0,0.0,0.0,0.0,0.0,0.0,0.0,0.0,0.0,0.0,0.0,0.0,0.0,0.0,0.0,0.0,0.0,0.0,0.0,0.0,0.0,0.0,0.0,0.0,0.0,0.0,0.0,0.0,0.0,0.0,0.0,0.0,0.0,0.0,0.0,0.0,0.0,0.0,0.0,0.0,0.0,0.0,0.0,0.0,0.0,0.0,0.0,0.0,0.0,0.0,0.0,0.0,0.0,0.0,0.0,0.0,0.0,0.0,0.0,-0.7007,-0.7007,-0.7209,-0.7172,-0.7214,0.0,0.0,0.0,0.0,0.0,0.0,0.0,0.0,0.0,0.0,0.0,0.0,0.0,0.0,0.0,0.0,0.0,0.0,0.0,0.0,0.0,0.0,0.0,0.0,0.0,0.0,0.0,0.0,0.0,0.0,0.0,0.0,0.0,0.0,0.0,0.0,0.0,0.0,0.0,0.0,0.0,0.0,0.0,0.0,0.0,0.0,0.0,0.0,0.0,0.0,0.0,0.0,0.0,0.0,0.0,0.0,0.0,0.0,0.0,0.0,0.0,0.0,0.0,0.0,0.0,0.0,0.0,0.0,0.0,0.0,0.0,0.0,0.0,0.0,0.0,0.0,0.0,0.0,0.0,0.0,0.0,0.0,0.0,0.0,0.0,0.0,0.0,0.0,0.0,0.0,0.0,0.0,0.0,0.0,0.0,0.0,0.0,0.0,0.0,0.0,0.0,0.0,0.0,0.0,0.0,0.0,0.0,0.0,0.0,-0.7702,-0.7624,-0.7692,-0.7907,-0.7987,-0.7949,0.0,0.0,0.0,0.0,0.0,0.0,0.0,0.0,0.0,0.0,0.0,0.0,0.0,0.0,0.0,0.0,0.0,0.0,0.0,0.0,0.0,0.0,0.0,0.0,0.0,0.0,0.0,0.0,0.0,0.0,0.0,0.0,0.0,0.0,0.0,0.0,0.0,0.0,0.0,0.0,0.0,0.0,0.0,0.0,0.0,0.0,0.0,0.0,0.0,0.0,0.0,0.0,0.0,0.0,0.0,0.0,0.0,0.0,0.0,0.0,0.0,0.0,0.0,0.0,0.0,0.0,0.0,0.0,0.0,0.0,0.0,0.0,0.0,0.0,0.0,0.0,0.0,0.0,0.0,0.0,0.0,0.0,0.0,0.0,0.0,0.0,0.0,0.0,0.0,0.0,0.0,0.0,0.0,0.0,0.0,0.0,0.0,0.0,0.0,0.0,0.0,0.0,0.0,0.0,0.0,0.0,0.0,0.0,0.0,-0.8209,0.0,-0.8438,0.0,-0.8676,-0.8622,0.0,0.0,0.0,0.0,0.0,0.0,0.0,0.0,0.0,0.0,0.0,0.0,0.0,0.0,0.0,0.0,0.0,0.0,0.0,0.0,0.0,0.0,0.0,0.0,0.0,0.0,0.0,0.0,0.0,0.0,0.0,0.0,0.0,0.0,0.0,0.0,0.0,0.0,0.0,0.0,0.0,0.0,0.0,0.0,0.0,0.0,0.0,0.0,0.0,0.0,0.0,0.0,0.0,0.0,0.0,0.0,0.0,0.0,0.0,0.0,0.0,0.0,0.0,0.0,0.0,0.0,0.0,0.0,0.0,0.0,0.0,0.0,0.0,0.0,0.0,0.0,0.0,0.0,0.0,0.0,0.0,0.0,0.0,0.0,0.0,0.0,0.0,0.0,0.0,0.0,0.0,0.0,0.0,0.0,0.0,0.0,0.0,0.0,0.0,0.0,0.0,0.0,0.0,0.0,0.0,0.0,0.0,0.0,-0.8526,-0.863,-0.8861,-0.9111,-0.9287,-0.9264,-0.9159,0.0,0.0,0.0,0.0,0.0,0.0,0.0,0.0,0.0,0.0,0.0,0.0,0.0,0.0,0.0,0.0,0.0,0.0,0.0,0.0,0.0,0.0,0.0,0.0,0.0,0.0,0.0,0.0,0.0,0.0,0.0,0.0,0.0,0.0,0.0,0.0,0.0,0.0,0.0,0.0,0.0,0.0,0.0,0.0,0.0,0.0,0.0,0.0,0.0,0.0,0.0,0.0,0.0,0.0,0.0,0.0,0.0,0.0,0.0,0.0,0.0,0.0,0.0,0.0,0.0,0.0,0.0,0.0,0.0,0.0,0.0,0.0,0.0,0.0,0.0,0.0,0.0,0.0,0.0,0.0,0.0,0.0,0.0,0.0,0.0,0.0,0.0,0.0,0.0,0.0,0.0,0.0,0.0,0.0,0.0,0.0,0.0,0.0,0.0,0.0,0.0,0.0,0.0,0.0,0.0,0.0,0.0,0.0,0.0,-0.9977,-0.9868,-0.9938,-1.02,-1.0055,-0.9779,0.0,0.0,0.0,0.0,0.0,0.0,0.0,0.0,0.0,0.0,0.0,0.0,0.0,0.0,0.0,0.0,0.0,0.0,0.0,0.0,0.0,0.0,0.0,0.0,0.0,0.0,0.0,0.0,0.0,0.0,0.0,0.0,0.0,0.0,0.0,0.0,0.0,0.0,0.0,0.0,0.0,0.0,0.0,0.0,0.0,0.0,0.0,0.0,0.0,0.0,0.0,0.0,0.0,0.0,0.0,0.0,0.0,0.0,0.0,0.0,0.0,0.0,0.0,0.0,0.0,0.0,0.0,0.0,0.0,0.0,0.0,0.0,0.0,0.0,0.0,0.0,0.0,0.0,0.0,0.0,0.0,0.0,0.0,0.0,0.0,0.0,0.0,0.0,0.0,0.0,0.0,0.0,0.0,0.0,0.0,0.0,0.0,0.0,0.0,0.0,0.0,0.0,0.0,0.0,0.0,0.0,0.0,0.0,0.0,-1.1606,-1.1307,-1.1209,-1.137,-1.1162,-1.0711,-1.0128,0.0,0.0,0.0,0.0,0.0,0.0,0.0,0.0,0.0,0.0,0.0,0.0,0.0,0.0,0.0,0.0,0.0,0.0,0.0,0.0,0.0,0.0,0.0,0.0,0.0,0.0,0.0,0.0,0.0,0.0,0.0,0.0,0.0,0.0,0.0,0.0,0.0,0.0,0.0,0.0,0.0,0.0,0.0,0.0,0.0,0.0,0.0,0.0,0.0,0.0,0.0,0.0,0.0,0.0,0.0,0.0,0.0,0.0,0.0,0.0,0.0,0.0,0.0,0.0,0.0,0.0,0.0,0.0,0.0,0.0,0.0,0.0,0.0,0.0,0.0,0.0,0.0,0.0,0.0,0.0,0.0,0.0,0.0,0.0,0.0,0.0,0.0,0.0,0.0,0.0,0.0,0.0,0.0,0.0,0.0,0.0,0.0,0.0,0.0,0.0,0.0,0.0,0.0,0.0,0.0,0.0,0.0,0.0,-1.3447,-1.3069,-1.28,-1.2702,-1.2405,-1.1906,0.0,0.0,0.0,0.0,0.0,0.0,0.0,0.0,0.0,0.0,0.0,0.0,0.0,0.0,0.0,0.0,0.0,0.0,0.0,0.0,0.0,0.0,0.0,0.0,0.0,0.0,0.0,0.0,0.0,0.0,0.0,0.0,0.0,0.0,0.0,0.0,0.0,0.0,0.0,0.0,0.0,0.0,0.0,0.0,0.0,0.0,0.0,0.0,0.0,0.0,0.0,0.0,0.0,0.0,0.0,0.0,0.0,0.0,0.0,0.0,0.0,0.0,0.0,0.0,0.0,0.0,0.0,0.0,0.0,0.0,0.0,0.0,0.0,0.0,0.0,0.0,0.0,0.0,0.0,0.0,0.0,0.0,0.0,0.0,0.0,0.0,0.0,0.0,0.0,0.0,0.0,0.0,0.0,0.0,0.0,0.0,0.0,0.0,0.0,0.0,0.0,0.0,0.0,0.0,0.0,0.0,0.0,0.0,0.0,-1.4196,-1.4528,-1.4228,-1.326,-1.287,-1.2323,0.0,0.0,0.0,0.0,0.0,0.0,0.0,0.0,0.0,0.0,0.0,0.0,0.0,0.0,0.0,0.0,0.0,0.0,0.0,0.0,0.0,0.0,0.0,0.0,0.0,0.0,0.0,0.0,0.0,0.0,0.0,0.0,0.0,0.0,0.0,0.0,0.0,0.0,0.0,0.0,0.0,0.0,0.0,0.0,0.0,0.0,0.0,0.0,0.0,0.0,0.0,0.0,0.0,0.0,0.0,0.0,0.0,0.0,0.0,0.0,0.0,0.0,0.0,0.0,0.0,0.0,0.0,0.0,0.0,0.0,0.0,0.0,0.0,0.0,0.0,0.0,0.0,0.0,0.0,0.0,0.0,0.0,0.0,0.0,0.0,0.0,0.0,0.0,0.0,0.0,0.0,0.0,0.0,0.0,0.0,0.0,0.0,0.0,0.0,0.0,0.0,0.0,0.0,0.0,0.0,0.0,0.0,0.0,-1.3948,-1.4696,-1.5277,-1.508,-1.4072,-1.3631,-1.2942,0.0,0.0,0.0,0.0,0.0,0.0,0.0,0.0,0.0,0.0,0.0,0.0,0.0,0.0,0.0,0.0,0.0,0.0,0.0,0.0,0.0,0.0,0.0,0.0,0.0,0.0,0.0,0.0,0.0,0.0,0.0,0.0,0.0,0.0,0.0,0.0,0.0,0.0,0.0,0.0,0.0,0.0,0.0,0.0,0.0,0.0,0.0,0.0,0.0,0.0,0.0,0.0,0.0,0.0,0.0,0.0,0.0,0.0,0.0,0.0,0.0,0.0,0.0,0.0,0.0,0.0,0.0,0.0,0.0,0.0,0.0,0.0,0.0,0.0,0.0,0.0,0.0,0.0,0.0,0.0,0.0,0.0,0.0,0.0,0.0,0.0,0.0,0.0,0.0,0.0,0.0,0.0,0.0,0.0,0.0,0.0,0.0,0.0,0.0,0.0,0.0,0.0,0.0,0.0,0.0,0.0,0.0,0.0,-1.4412,-1.5001,-1.5504,-1.5524,-1.5022,-1.4439,-1.3527,0.0,0.0,0.0,0.0,0.0,0.0,0.0,0.0,0.0,0.0,0.0,0.0,0.0,0.0,0.0,0.0,0.0,0.0,0.0,0.0,0.0,0.0,0.0,0.0,0.0,0.0,0.0,0.0,0.0,0.0,0.0,0.0,0.0,0.0,0.0,0.0,0.0,0.0,0.0,0.0,0.0,0.0,0.0,0.0,0.0,0.0,0.0,0.0,0.0,0.0,0.0,0.0,0.0,0.0,0.0,0.0,0.0,0.0,0.0,0.0,0.0,0.0,0.0,0.0,0.0,0.0,0.0,0.0,0.0,0.0,0.0,0.0,0.0,0.0,0.0,0.0,0.0,0.0,0.0,0.0,0.0,0.0,0.0,0.0,0.0,0.0,0.0,0.0,0.0,0.0,0.0,0.0,0.0,0.0,0.0,0.0,0.0,0.0,0.0,0.0,0.0,0.0,0.0,0.0,0.0,0.0,0.0,0.0,-1.4369,-1.5001,-1.5311,-1.5317,-1.5015,-1.4439,-1.3527,0.0,0.0,0.0,0.0,0.0,0.0,0.0,0.0,0.0,0.0,0.0,0.0,0.0,0.0,0.0,0.0,0.0,0.0,0.0,0.0,0.0,0.0,0.0,0.0,0.0,0.0,0.0,0.0,0.0,0.0,0.0,0.0,0.0,0.0,0.0,0.0,0.0,0.0,0.0,0.0,0.0,0.0,0.0,0.0,0.0,0.0,0.0,0.0,-0.9528,0.0,0.0,0.0,0.0,0.0,0.0,0.0,0.0,0.0,0.0,0.0,0.0,0.0,0.0,0.0,0.0,0.0,0.0,0.0,0.0,0.0,0.0,0.0,0.0,0.0,0.0,0.0,0.0,0.0,0.0,0.0,0.0,0.0,0.0,0.0,0.0,0.0,0.0,0.0,0.0,0.0,0.0,0.0,0.0,0.0,0.0,0.0,0.0,0.0,0.0,0.0,0.0,0.0,0.0,0.0,0.0,0.0,0.0,0.0,-1.4168,-1.4736,-1.5044,-1.5095,-1.475,-1.4182,-1.3387,0.0,0.0,0.0,0.0,0.0,0.0,0.0,0.0,0.0,0.0,0.0,0.0,0.0,0.0,0.0,0.0,0.0,0.0,0.0,0.0,0.0,0.0,0.0,0.0,0.0,0.0,0.0,0.0,0.0,0.0,0.0,0.0,0.0,0.0,0.0,0.0,0.0,0.0,0.0,0.0,0.0,0.0,0.0,0.0,0.0,0.0,0.0,0.0,0.0,0.0,0.0,0.0,0.0,0.0,0.0,0.0,0.0,0.0,0.0,0.0,0.0,0.0,0.0,0.0,0.0,0.0,0.0,0.0,0.0,0.0,0.0,0.0,0.0,0.0,0.0,0.0,0.0,0.0,0.0,0.0,0.0,0.0,0.0,0.0,0.0,0.0,0.0,0.0,0.0,0.0,0.0,0.0,0.0,0.0,0.0,0.0,0.0,0.0,0.0,0.0,0.0,0.0,0.0,0.0,0.0,0.0,0.0,-1.3147,-1.3886,-1.4452,-1.477,-1.4776,-1.4522,-1.3866,-1.318,-1.2331,0.0,0.0,0.0,0.0,0.0,0.0,0.0,0.0,0.0,0.0,0.0,0.0,0.0,0.0,0.0,0.0,0.0,0.0,0.0,0.0,0.0,0.0,0.0,0.0,0.0,0.0,0.0,0.0,0.0,0.0,0.0,0.0,0.0,0.0,0.0,0.0,0.0,0.0,-0.8838,-0.9138,0.0,0.0,0.0,0.0,0.0,0.0,0.0,0.0,-1.0016,0.0,0.0,0.0,0.0,0.0,0.0,0.0,0.0,0.0,0.0,0.0,0.0,0.0,0.0,0.0,0.0,0.0,0.0,0.0,0.0,0.0,0.0,0.0,0.0,0.0,0.0,0.0,0.0,0.0,0.0,0.0,0.0,0.0,0.0,0.0,0.0,0.0,0.0,0.0,0.0,0.0,0.0,0.0,0.0,0.0,0.0,0.0,0.0,0.0,0.0,0.0,0.0,0.0,0.0,0.0,0.0,-1.2305,-1.3147,-1.3886,-1.4496,-1.4569,-1.4569,-1.4459,-1.3673,-1.2973,-1.2311,0.0,0.0,0.0,0.0,0.0,0.0,0.0,0.0,0.0,0.0,0.0,0.0,0.0,0.0,0.0,0.0,0.0,0.0,0.0,0.0,0.0,0.0,0.0,0.0,0.0,0.0,0.0,0.0,0.0,0.0,0.0,0.0,0.0,0.0,0.0,0.0,0.0,0.0,0.0,-0.9597,-0.9957,0.0,0.0,0.0,0.0,0.0,0.0,0.0,0.0,-1.1207,0.0,0.0,0.0,0.0,0.0,0.0,0.0,0.0,0.0,0.0,0.0,0.0,0.0,0.0,0.0,0.0,0.0,0.0,0.0,0.0,0.0,0.0,0.0,0.0,0.0,0.0,0.0,0.0,0.0,0.0,0.0,0.0,0.0,0.0,0.0,0.0,0.0,0.0,0.0,0.0,0.0,0.0,0.0,0.0,0.0,0.0,0.0,0.0,0.0,0.0,0.0,0.0,0.0,0.0,0.0,-1.2098,-1.2966,-1.3586,-1.4013,-1.4215,-1.4179,-1.4013,-1.3353,-1.273,0.0,0.0,0.0,0.0,0.0,0.0,0.0,0.0,0.0,0.0,0.0,0.0,0.0,0.0,0.0,0.0,0.0,0.0,0.0,0.0,0.0,0.0,0.0,0.0,0.0,0.0,0.0,0.0,0.0,0.0,0.0,0.0,0.0,0.0,0.0,0.0,0.0,0.0,0.0,0.0,-0.9973,-1.0401,-1.0548,0.0,0.0,0.0,0.0,0.0,0.0,-1.1838,-1.2123,0.0,0.0,0.0,0.0,0.0,0.0,0.0,0.0,0.0,0.0,0.0,0.0,0.0,0.0,0.0,0.0,0.0,0.0,0.0,0.0,0.0,0.0,0.0,0.0,0.0,0.0,0.0,0.0,0.0,0.0,0.0,0.0,0.0,0.0,0.0,0.0,0.0,0.0,0.0,0.0,0.0,0.0,0.0,0.0,0.0,0.0,0.0,0.0,0.0,0.0,0.0,0.0,0.0,0.0,0.0,-1.1913,-1.2632,-1.3206,-1.3507,-1.3788,-1.3794,-1.3513,-1.2966,-1.2415,0.0,0.0,0.0,0.0,0.0,0.0,0.0,0.0,0.0,0.0,0.0,0.0,0.0,0.0,0.0,0.0,0.0,0.0,0.0,0.0,0.0,0.0,0.0,0.0,0.0,0.0,0.0,0.0,0.0,0.0,0.0,0.0,0.0,0.0,0.0,0.0,0.0,0.0,0.0,0.0,0.0,-1.0813,-1.1108,-1.1452,0.0,0.0,0.0,0.0,-1.258,-1.292,0.0,0.0,0.0,0.0,0.0,0.0,0.0,0.0,0.0,0.0,0.0,0.0,0.0,0.0,0.0,0.0,0.0,0.0,0.0,0.0,0.0,0.0,0.0,0.0,0.0,0.0,0.0,0.0,0.0,0.0,0.0,0.0,0.0,0.0,0.0,0.0,0.0,0.0,0.0,0.0,0.0,0.0,0.0,0.0,0.0,0.0,0.0,0.0,0.0,0.0,0.0,0.0,0.0,0.0,0.0,0.0,-1.1879,-1.2225,-1.2685,-1.3227,-1.3293,-1.3293,-1.3253,-1.2672,-1.2078,0.0,0.0,0.0,0.0,0.0,0.0,0.0,0.0,0.0,0.0,0.0,0.0,0.0,0.0,0.0,0.0,0.0,0.0,0.0,0.0,0.0,0.0,0.0,0.0,0.0,0.0,0.0,0.0,0.0,0.0,0.0,0.0,0.0,0.0,0.0,0.0,0.0,0.0,0.0,0.0,0.0,-1.124,-1.1574,-1.1676,-1.1771,0.0,0.0,-1.3589,-1.3711,-1.4466,0.0,0.0,0.0,0.0,0.0,0.0,0.0,0.0,0.0,0.0,0.0,0.0,0.0,0.0,0.0,0.0,0.0,0.0,0.0,0.0,0.0,0.0,0.0,0.0,0.0,0.0,0.0,0.0,0.0,0.0,0.0,0.0,0.0,0.0,0.0,0.0,0.0,0.0,0.0,0.0,0.0,0.0,0.0,0.0,0.0,0.0,0.0,0.0,0.0,0.0,0.0,0.0,0.0,0.0,0.0,-1.0941,-1.1603,-1.2064,-1.2512,-1.2971,-1.312,-1.3046,-1.2699,-1.2278,-1.1703,0.0,0.0,0.0,0.0,0.0,0.0,0.0,0.0,0.0,0.0,0.0,0.0,0.0,0.0,0.0,0.0,0.0,0.0,0.0,0.0,0.0,0.0,0.0,0.0,0.0,0.0,0.0,0.0,0.0,0.0,0.0,0.0,0.0,0.0,0.0,0.0,0.0,0.0,0.0,0.0,0.0,0.0,-1.2117,-1.2614,0.0,0.0,0.0,-1.4904,-1.527,0.0,0.0,0.0,0.0,0.0,0.0,0.0,0.0,0.0,0.0,0.0,0.0,0.0,0.0,0.0,0.0,0.0,0.0,0.0,0.0,0.0,0.0,0.0,0.0,0.0,0.0,0.0,0.0,0.0,0.0,0.0,0.0,0.0,0.0,0.0,0.0,0.0,0.0,0.0,0.0,0.0,0.0,0.0,0.0,0.0,0.0,0.0,0.0,0.0,0.0,0.0,0.0,0.0,0.0,0.0,0.0,0.0,-1.1382,-1.1857,-1.2265,-1.2663,-1.2859,-1.2726,-1.2211,-1.1879,0.0,0.0,0.0,0.0,0.0,0.0,0.0,0.0,0.0,0.0,0.0,0.0,0.0,0.0,0.0,0.0,0.0,0.0,0.0,0.0,0.0,0.0,0.0,0.0,0.0,0.0,0.0,-0.7162,0.0,0.0,0.0,0.0,0.0,0.0,0.0,0.0,0.0,0.0,0.0,0.0,0.0,0.0,-1.3017,-1.3214,-1.3903,-1.4546,0.0,0.0,-1.6128,-1.6664,-1.6688,-1.6484,0.0,0.0,0.0,0.0,0.0,0.0,0.0,0.0,0.0,0.0,0.0,0.0,0.0,0.0,0.0,0.0,0.0,0.0,0.0,0.0,0.0,0.0,0.0,0.0,0.0,0.0,0.0,0.0,0.0,0.0,0.0,0.0,0.0,0.0,0.0,0.0,0.0,0.0,0.0,0.0,0.0,0.0,0.0,0.0,0.0,0.0,0.0,0.0,0.0,0.0,0.0,0.0,0.0,0.0,0.0,-1.1349,-1.1429,-1.177,-1.2311,-1.2351,-1.2211,-1.1933,-1.1383,-1.0775,0.0,0.0,0.0,0.0,0.0,0.0,0.0,0.0,0.0,0.0,0.0,0.0,0.0,0.0,0.0,0.0,0.0,0.0,0.0,0.0,0.0,0.0,0.0,0.0,0.0,0.0,0.0,0.0,0.0,0.0,0.0,0.0,0.0,0.0,0.0,0.0,0.0,0.0,0.0,0.0,0.0,-1.4585,-1.5223,-1.5508,-1.5959,0.0,0.0,-1.7225,-1.762,-1.81,-1.8083,-1.7144,0.0,0.0,0.0,0.0,0.0,0.0,0.0,0.0,0.0,0.0,0.0,0.0,0.0,0.0,0.0,0.0,0.0,0.0,0.0,0.0,0.0,0.0,0.0,0.0,0.0,0.0,0.0,0.0,0.0,0.0,0.0,0.0,0.0,0.0,0.0,0.0,0.0,0.0,0.0,0.0,0.0,0.0,0.0,0.0,0.0,0.0,0.0,0.0,0.0,0.0,0.0,0.0,0.0,-1.0261,-1.1369,-1.143,-1.1703,-1.2278,-1.2305,-1.2078,-1.1603,-1.1376,-1.0815,0.0,0.0,0.0,0.0,0.0,0.0,0.0,0.0,0.0,0.0,0.0,0.0,0.0,0.0,0.0,0.0,0.0,0.0,0.0,0.0,0.0,0.0,0.0,0.0,0.0,0.0,0.0,0.0,-0.9371,-0.979,-1.0573,0.0,0.0,0.0,0.0,0.0,0.0,0.0,0.0,0.0,0.0,-1.548,-1.5629,-1.6179,0.0,0.0,-1.7624,-1.8134,-1.8114,-1.8395,-1.8315,-1.7444,-1.6925,0.0,0.0,0.0,0.0,0.0,0.0,0.0,0.0,0.0,0.0,0.0,0.0,0.0,0.0,0.0,0.0,0.0,0.0,0.0,0.0,0.0,0.0,0.0,0.0,0.0,0.0,0.0,0.0,0.0,0.0,0.0,0.0,0.0,0.0,0.0,0.0,0.0,0.0,0.0,0.0,0.0,0.0,0.0,0.0,0.0,0.0,0.0,0.0,0.0,0.0,0.0,0.0,-1.0254,-1.1382,-1.143,-1.171,-1.2285,-1.2218,-1.1937,-1.1415,-1.1222,-1.0701,0.0,0.0,0.0,0.0,0.0,0.0,0.0,0.0,0.0,0.0,0.0,0.0,0.0,0.0,0.0,0.0,0.0,0.0,0.0,0.0,0.0,0.0,0.0,0.0,0.0,0.0,0.0,0.0,-0.9865,-1.0392,-1.1367,0.0,0.0,0.0,0.0,0.0,0.0,0.0,0.0,0.0,0.0,-1.6447,-1.644,-1.7035,-1.7558,-1.7752,-1.8237,-1.8638,-1.8745,-1.8712,-1.8403,-1.7852,0.0,0.0,0.0,0.0,0.0,0.0,0.0,0.0,0.0,0.0,0.0,0.0,0.0,0.0,0.0,0.0,0.0,0.0,0.0,0.0,0.0,0.0,0.0,0.0,0.0,0.0,0.0,0.0,0.0,0.0,0.0,0.0,0.0,0.0,0.0,0.0,0.0,0.0,0.0,0.0,0.0,0.0,0.0,0.0,0.0,0.0,0.0,0.0,0.0,0.0,0.0,0.0,0.0,-1.0261,-1.1403,-1.143,-1.171,-1.2265,-1.2024,-1.1772,-1.1423,-1.0914,-1.0338,-0.9706,0.0,0.0,0.0,0.0,0.0,0.0,0.0,0.0,0.0,0.0,0.0,0.0,0.0,0.0,0.0,0.0,0.0,0.0,0.0,0.0,0.0,0.0,0.0,0.0,0.0,0.0,-0.9369,-1.0717,-1.1785,0.0,0.0,0.0,0.0,0.0,0.0,0.0,0.0,0.0,0.0,-1.662,-1.7593,-1.7956,-1.8228,-1.8687,-1.9615,-1.9018,-1.8749,-1.9689,-1.9143,-1.8598,0.0,0.0,0.0,0.0,0.0,0.0,0.0,0.0,0.0,0.0,0.0,0.0,0.0,0.0,0.0,0.0,0.0,0.0,0.0,0.0,0.0,0.0,0.0,0.0,0.0,0.0,0.0,-0.8786,-0.8623,0.0,0.0,0.0,0.0,0.0,0.0,0.0,0.0,0.0,0.0,0.0,-1.1276,-1.1182,0.0,0.0,0.0,0.0,0.0,0.0,0.0,0.0,0.0,0.0,0.0,0.0,-1.0261,-1.1329,-1.143,-1.1623,-1.2033,-1.1953,-1.1672,-1.1149,-1.0949,-1.0481,-0.9735,0.0,0.0,0.0,0.0,0.0,0.0,0.0,0.0,0.0,0.0,0.0,0.0,0.0,0.0,0.0,0.0,0.0,0.0,0.0,0.0,0.0,0.0,0.0,0.0,0.0,-0.9345,0.0,0.0,0.0,0.0,0.0,0.0,0.0,0.0,0.0,0.0,0.0,-1.5954,-1.6496,-1.7449,-1.8065,-1.8035,-1.8614,-1.901,0.0,0.0,0.0,0.0,0.0,0.0,0.0,0.0,0.0,0.0,0.0,0.0,0.0,0.0,-1.6201,-1.5938,-1.6029,-1.6356,-1.6982,0.0,0.0,0.0,0.0,0.0,0.0,0.0,0.0,0.0,0.0,0.0,0.0,0.0,0.0,0.0,0.0,-0.865,0.0,0.0,0.0,0.0,0.0,0.0,0.0,0.0,-1.1683,-1.1688,-1.1724,-1.1623,-1.1577,0.0,-1.1096,-1.0514,0.0,0.0,0.0,0.0,0.0,0.0,0.0,0.0,-1.0354,-1.1376,-1.143,-1.157,-1.1886,-1.1806,-1.1483,-1.1009,-1.0788,-1.0367,-0.9706,-0.9031,-0.8577,0.0,0.0,0.0,0.0,0.0,0.0,0.0,0.0,0.0,0.0,0.0,0.0,0.0,0.0,0.0,0.0,0.0,0.0,0.0,0.0,0.0,0.0,0.0,-0.9595,0.0,0.0,0.0,0.0,0.0,0.0,0.0,0.0,0.0,-1.5408,-1.6046,-1.6733,-1.7297,-1.7871,-1.8249,-1.8217,0.0,0.0,0.0,0.0,0.0,0.0,0.0,-1.9824,-1.9551,-1.915,-1.873,-1.8266,-1.7613,-1.7145,-1.7145,0.0,0.0,-1.6406,-1.6453,-1.684,-1.7752,-1.8126,-1.8684,-1.9959,-2.0418,-2.0482,0.0,0.0,0.0,0.0,0.0,0.0,0.0,0.0,-0.7694,-0.8039,0.0,-0.8983,0.0,0.0,0.0,0.0,0.0,0.0,0.0,0.0,-1.2158,-1.2305,-1.2271,-1.2011,-1.1919,-1.1899,-1.1577,-1.1283,-1.0955,-0.983,0.0,0.0,0.0,0.0,0.0,0.0,-1.0548,-1.1342,-1.1403,-1.155,-1.1852,-1.1557,-1.1276,-1.0975,-1.0408,-0.9973,-0.9693,-0.9372,-0.8931,-0.8442,-0.8338,0.0,0.0,0.0,0.0,0.0,0.0,0.0,0.0,0.0,0.0,0.0,0.0,0.0,0.0,0.0,0.0,0.0,0.0,0.0,0.0,-0.9032,0.0,0.0,0.0,0.0,0.0,0.0,0.0,0.0,0.0,0.0,-1.6284,-1.6795,-1.7307,-1.7784,0.0,0.0,0.0,0.0,-1.8939,-1.9785,-1.9922,-2.0078,-2.0517,-2.0215,-1.9941,-1.9894,0.0,0.0,-1.8666,-1.8256,-1.7998,-1.7974,-1.7969,-1.7711,-1.6902,-1.6894,-1.7357,-1.8353,-1.8778,-1.9317,-2.042,-2.0973,-2.108,-0.6729,0.0,0.0,0.0,0.0,-0.7114,-0.73,-0.7178,-0.8519,-0.9032,-0.8954,-0.991,0.0,0.0,0.0,0.0,0.0,0.0,-1.2013,-1.2178,-1.2265,-1.2305,-1.2298,-1.2218,-1.2178,-1.2164,-1.1877,-1.1703,-1.159,-1.0862,-1.0321,-0.9993,0.0,0.0,0.0,0.0,-1.0448,-1.1069,-1.1116,-1.1156,-1.1243,-1.1162,-1.0982,-1.072,-1.0144,-0.9766,-0.9715,-0.9198,-0.8825,-0.8684,-0.8523,0.0,0.0,0.0,0.0,0.0,0.0,0.0,0.0,0.0,0.0,0.0,0.0,0.0,0.0,0.0,0.0,0.0,0.0,0.0,-0.962,-0.9487,-0.9979,0.0,0.0,0.0,0.0,0.0,0.0,0.0,0.0,0.0,-1.7881,-1.7784,-1.8027,0.0,0.0,-1.8965,-1.9082,-1.9355,-1.9639,-1.9873,0.0,0.0,0.0,-2.0498,-2.0371,-2.0419,-2.0019,-1.9492,-1.8724,-1.849,-1.8325,-1.8042,-1.8008,-1.792,-1.7705,-1.7425,-1.7833,-1.9095,-1.9546,-2.0262,-2.1926,-2.2454,-2.2329,-0.7421,-0.6904,-0.6681,-0.661,-0.6641,-0.706,-0.7085,-0.6965,-0.8074,-0.8808,-0.9217,-1.0086,-1.0933,-1.182,-1.1837,0.0,0.0,0.0,-1.2198,-1.2472,-1.2358,-1.2305,-1.2305,-1.2305,-1.2305,-1.2298,-1.2124,-1.208,-1.2074,-1.1605,-1.1162,-1.0802,0.0,0.0,-1.0281,-1.0294,-1.0521,-1.0969,-1.0995,-1.0995,-1.0995,-1.0914,-1.0681,-1.0419,-1.004,-0.9746,-0.9512,-0.9144,-0.8898,-0.8804,-0.8619,-0.842,0.0,0.0,0.0,0.0,0.0,0.0,0.0,0.0,0.0,0.0,0.0,-0.7627,-0.8016,0.0,0.0,0.0,-0.9463,-1.0115,-1.0245,-1.0352,0.0,0.0,0.0,0.0,0.0,0.0,0.0,-1.7106,-1.7662,-1.8301,-1.9023,-1.889,-1.8919,-1.9473,-1.9394,-1.9346,-1.9512,0.0,-1.998,-2.0146,-2.0391,-2.0615,-2.0615,-2.0615,-2.0615,-2.0615,-2.0096,-1.9521,-1.9014,-1.8598,-1.8276,-1.8076,-1.8008,-1.8008,-1.8008,-1.8051,-1.8553,-1.9859,-2.0174,-2.0838,-2.2731,-2.3095,-2.2995,-0.7957,-0.7794,-0.7338,-0.7152,-0.7132,-0.7119,-0.7041,-0.6963,-0.7039,-0.7858,-0.9246,-0.9806,-1.102,-1.2632,-1.2796,0.0,0.0,-1.2509,-1.2485,-1.277,-1.2476,-1.2305,-1.2305,-1.2305,-1.2305,-1.2305,-1.2305,-1.2305,-1.2285,-1.2024,-1.1926,-1.1879,-1.1075,-1.0646,-1.0626,-1.0606,-1.072,-1.0949,-1.0955,-1.0955,-1.0981,-1.0727,-1.0452,-1.0097,-1.0094,-0.9784,-0.9244,-0.9163,-0.9051,-0.8818,-0.8621,-0.8405,-0.816,0.0,0.0,0.0,0.0,0.0,0.0,0.0,0.0,0.0,0.0,0.0,0.0,0.0,0.0,0.0,-1.0368,0.0,-1.0376,-1.157,0.0,0.0,0.0,-1.4859,-1.5311,-1.6102,-1.6986,-1.7935,0.0,0.0,0.0,0.0,-1.9961,-1.9971,-1.9639,-1.9521,-1.9912,-1.9971,-2.0117,-2.0527,-2.0605,-2.0595,-2.0517,-2.0478,-2.0419,-2.04,-1.9842,-1.9307,-1.917,-1.8633,-1.8115,-1.8018,-1.8008,-1.8076,-1.811,-1.8734,-1.9595,-2.0525,-2.0728,-2.1227,-2.272,-2.3095,-2.3095,-0.7968,-0.7928,-0.782,-0.7651,-0.7482,-0.7366,-0.7295,-0.7344,-0.8101,-0.851,-0.8753,-1.0611,-1.2048,-1.3048,-1.3094,-1.31,-1.308,-1.2817,-1.2717,-1.2757,-1.2438,-1.2305,-1.2305,-1.2305,-1.2305,-1.2305,-1.2305,-1.2305,-1.2298,-1.2231,-1.2084,-1.1893,-1.143,-1.1109,-1.0921,-1.07,-1.062,-1.0693,-1.0693,-1.0693,-1.0693,-1.0626,-1.0452,-1.0127,-0.9907,-0.9619,-0.9196,-0.9025,-0.8851,-0.8811,-0.8738,-0.8641,-0.8418,-0.8403,0.0,0.0,0.0,0.0,0.0,0.0,0.0,0.0,0.0,-0.8772,-0.9116,0.0,-1.0125,0.0,-1.068,-1.1593,-1.3077,-1.294,0.0,0.0,-1.5083,-1.5761,-1.6562,-1.7242,-1.7842,-1.8393,-1.9026,-1.9533,-1.9873,-2.0205,-2.041,-2.041,-2.0361,-2.0341,-2.0449,-2.0449,-2.0488,-2.0586,-2.0595,-2.0488,-2.0117,-1.9785,-1.9609,-1.9627,-1.9414,-1.918,-1.8802,-1.8607,-1.8364,-1.8052,-1.8008,-1.8226,-1.8854,-1.9177,-1.9879,-2.1195,-2.1596,-2.1877,-2.2896,-2.3095,-2.3095,-0.7988,-0.7988,-0.7988,-0.7894,-0.778,-0.7567,-0.7472,-0.7501,-0.7901,-0.8265,-0.8777,-1.1059,-1.2265,-1.2656,-1.3152,-1.3367,-1.3333,-1.2991,-1.2857,-1.2965,-1.2498,-1.2305,-1.2305,-1.2305,-1.2305,-1.2305,-1.2305,-1.2305,-1.2305,-1.2305,-1.2218,-1.2051,-1.1602,-1.1309,-1.1176,-1.0801,-1.0586,-1.0586,-1.0586,-1.0586,-1.0586,-1.0466,-1.0221,-0.9933,-0.9639,-0.9317,-0.9031,-0.8891,-0.8778,-0.8778,-0.8778,-0.8697,-0.8459,-0.8482,-0.8376,0.0,0.0,0.0,0.0,0.0,0.0,0.0,0.0,0.0,0.0,0.0,-1.1126,0.0,-1.2492,0.0,-1.4615,-1.4536,-1.4756,-1.5691,-1.6094,-1.6626,-1.7402,-1.7959,-1.8525,-1.9104,-1.9582,-1.999,-2.0176,-2.042,-2.0615,-2.0615,-2.0615,-2.0615,-2.0615,-2.0615,-2.0615,-2.0605,-2.0439,-2.0127,-1.9697,-1.9443,-1.9277,-1.9268,-1.9131,-1.8916,-1.8646,-1.8442,-1.8247,-1.81,-1.8303,-1.8721,-1.9233,-2.0009,-2.0814,-2.1596,-2.2199,-2.2567,-2.3005,-2.3095,-2.3095,-0.7988,-0.7988,-0.7988,-0.7988,-0.7968,-0.7746,-0.7628,-0.7607,-0.7302,-0.7816,-0.9021,-1.1166,-1.2035,-1.204,-1.314,-1.366,-1.3626,-1.3152,-1.3032,-1.3173,-1.2625,-1.2338,-1.2305,-1.2305,-1.2305,-1.2305,-1.2305,-1.2305,-1.2305,-1.2305,-1.2305,-1.2278,-1.175,-1.1429,-1.1403,-1.0882,-1.0626,-1.0593,-1.0586,-1.0586,-1.0586,-1.0338,-1.002,-0.9722,-0.9404,-0.9118,-0.8824,-0.8778,-0.8778,-0.8778,-0.8778,-0.8691,-0.8469,-0.8518,-0.8401,0.0,-0.8297,0.0,0.0,0.0,0.0,0.0,0.0,0.0,0.0,-1.1163,-1.2153,-1.4,-1.4884,-1.5452,-1.5638,-1.6069,-1.6424,-1.6671,-1.7069,-1.7499,-1.8013,-1.8471,-1.9046,-1.9824,-1.9961,-2.0156,-2.0527,-2.0615,-2.0615,-2.0615,-2.0615,-2.0615,-2.0615,-2.0615,-2.0586,-2.0546,-2.0068,-1.958,-1.9268,-1.9141,-1.9072,-1.9062,-1.8763,-1.8529,-1.85,-1.8217,-1.8018,-1.8076,-1.8697,-1.9299,-1.9431,-2.0782,-2.1846,-2.2075,-2.2598,-2.3047,-2.3095,-2.3095,-2.3095,-0.7988,-0.7988,-0.7988,-0.7988,-0.7975,-0.7848,-0.777,-0.775,-0.7458,-0.7923,-0.8978,-1.0308,-1.1402,-1.23,-1.3477,-1.4008,-1.3981,-1.3593,-1.334,-1.3193,-1.2871,-1.2532,-1.2311,-1.2305,-1.2305,-1.2305,-1.2305,-1.2305,-1.2305,-1.2305,-1.2305,-1.2291,-1.1957,-1.167,0.0,0.0,0.0,0.0,-1.0586,-1.0586,-1.0586,-1.0539,-1.0251,-0.9713,-0.9633,0.0,-0.8811,-0.8778,-0.8778,-0.8778,-0.8778,0.0,0.0,0.0,0.0,0.0,0.0,0.0,0.0,0.0,0.0,0.0,-0.9841,-0.9945,-1.0133,-1.184,-1.3795,-1.5797,-1.6155,-1.6471,-1.696,-1.71,-1.7327,-1.7667,-1.8066,-1.8358,-1.85,-1.9153,-1.9746,-1.9883,-2.0225,-2.0498,-2.0566,-2.0615,-2.0615,-2.0615,-2.0615,-2.0615,-2.0615,-2.0615,-2.0478,-2.0078,-1.9387,-1.8861,-1.8734,-1.8486,-1.833,-1.8232,-1.8203,-1.8144,-1.811,-1.8096,-1.8018,-1.8008,-1.8721,-1.9562,-2.0182,-2.1195,-2.2137,-2.272,-2.2975,-2.3095,-2.3095,-2.3095,-2.3095,-0.7988,0.0,-0.7988,-0.7988,0.0,0.0,-0.7926,-0.785,-0.7533,-0.7642,-0.8105,-0.9231,-1.0394,-1.1509,-1.2687,-1.3555,-1.4068,-1.3634,-1.3307,-1.3186,-1.2777,-1.2482,-1.2305,-1.2305,-1.2305,-1.2305,-1.2305,-1.2305,-1.2305,-1.2305,-1.2305,-1.2298,-1.2053,-1.1724,-1.1389,-1.0995,-1.074,-1.0586,-1.0586,-1.0586,-1.0586,-1.0445,-1.0164,-0.9729,0.0,0.0,0.0,0.0,0.0,0.0,0.0,0.0,0.0,0.0,0.0,-0.8668,-0.8796,-0.8997,-0.9187,-0.9343,-0.959,-0.9877,-1.0048,-1.0528,-1.1524,-1.3539,-1.5349,-1.6802,-1.6954,-1.7161,-1.7646,-1.7695,-1.7773,-1.7998,-1.8193,-1.8442,-1.8906,-1.9336,-1.9687,-1.9922,-2.0331,-2.0537,-2.0273,-2.0488,-2.0595,-2.0615,-2.0615,-2.0595,-2.0615,-2.0615,-2.039,-1.9697,-1.9082,-1.8529,-1.8325,-1.8139,-1.8008,-1.8008,-1.8008,-1.8008,-1.8008,-1.8008,-1.8008,-1.81,-1.9044,-2.002,-2.0042,-2.129,-2.2519,-2.2537,-2.2823,-2.3065,-2.3095,-2.3095,-2.3095,-0.7988,-0.7988,-0.7988,-0.7988,-0.7988,-0.7988,-0.7961,-0.7933,0.0,0.0,0.0,-0.8364,-0.9405,-1.0394,-1.1681,-1.2814,-1.3747,-1.3446,-1.322,-1.318,-1.2639,-1.2351,-1.2305,-1.2305,-1.2305,-1.2305,-1.2305,-1.2305,-1.2305,-1.2305,-1.2305,-1.2285,-1.21,-1.177,-1.141,-1.0855,-1.0586,-1.0586,-1.0586,-1.0586,-1.0579,-1.0358,-1.0053,-0.9802,-0.9491,-0.9231,-0.8978,-0.8965,-0.8965,-0.8958,-0.8884,-0.8884,-0.8851,-0.8838,-0.8831,-0.8851,-0.8811,-0.8978,-0.9309,-0.9317,-0.9466,-0.9842,-1.0324,-1.1449,-1.3434,-1.4934,-1.6283,-1.7422,-1.749,-1.7637,-1.7969,-1.8008,-1.8008,-1.8008,-1.8076,-1.8418,-1.9053,-1.9248,-1.9434,-1.9766,-2.0078,-2.0243,-1.9873,-2.0078,-2.038,-2.037,-2.0312,-2.038,-2.038,-2.0312,-2.0038,-1.9287,-1.8724,-1.8354,-1.8081,-1.8018,-1.8008,-1.8008,-1.8008,-1.8008,-1.8008,-1.8008,-1.8008,-1.8008,-1.9332,-1.9846,-1.9628,-2.1026,-2.2414,-2.2013,-2.2414,-2.2907,-2.2952,-2.2957,-2.2932,-0.7988,-0.7988,-0.7988,-0.7988,-0.7988,-0.7988,-0.7899,-0.7658,-0.759,-0.7407,-0.7187,-0.8364,-0.8978,-0.9279,-1.1338,-1.2376,-1.2614,-1.322,-1.3407,0.0,-1.2884,-1.2583,-1.2311,-1.2305,-1.2305,-1.2305,-1.2305,-1.2305,-1.2305,-1.2305,-1.2305,-1.2305,-1.2265,-1.1964,-1.1389,-1.0855,-1.0586,-1.0586,-1.0586,-1.0586,-1.0586,-1.0553,-1.0392,-1.0074,-0.9977,-0.986,-0.9601,-0.9581,-0.9588,-0.9588,-0.9291,-0.9151,-0.9144,-0.8911,-0.8918,-0.9111,-0.8951,-0.9124,-0.992,-0.976,-0.9889,-1.0461,-1.179,-1.306,-1.4053,-1.4398,-1.5474,-1.76,-1.791,-1.7939,-1.8008,-1.8008,-1.8008,-1.8027,-1.8295,-1.8568,-1.8715,-1.9062,-1.9287,-1.9365,-1.9414,-1.9482,-1.9414,-1.9463,-1.9541,-1.9492,-1.96,-1.9502,-1.9512,-1.9463,-1.9258,-1.8809,-1.8369,-1.8096,-1.8027,-1.8008,-1.8008,-1.8008,-1.8008,-1.8008,-1.8008,-1.8008,-1.8008,-1.8008,-1.8888,-1.9375,-1.9309,-2.0139,-2.1164,-2.1659,-2.1978,-2.2153,-2.2396,-2.2418,-2.238,-0.7988,-0.7988,-0.7988,-0.7988,-0.7985,-0.7901,-0.775,-0.7482,-0.7475,-0.7353,-0.7153,-0.7709,-0.8277,-0.8978,-1.0009,-1.0754,-1.1306,-1.211,-1.2344,-1.2154,-1.2411,-1.2432,-1.2318,-1.2305,-1.2305,-1.2305,-1.2305,-1.2305,-1.2305,-1.2305,-1.2305,-1.2291,-1.2151,-1.185,-1.1389,-1.1009,-1.0747,-1.0593,-1.0586,-1.0586,-1.0586,-1.0586,-1.0445,-1.0097,-1.012,-0.9987,-0.9722,-0.9526,-0.9519,-0.9708,-0.9245,-0.9044,-0.9163,-0.8965,-0.8904,-0.9157,-0.9091,-0.9331,-1.0067,-1.0177,-1.0305,-1.0591,-1.1264,-1.2222,-1.3447,-1.482,-1.6281,-1.7833,-1.8008,-1.8008,-1.8008,-1.8008,-1.8008,-1.8008,-1.8159,-1.8354,-1.8568,-1.8754,-1.8936,-1.8965,-1.9141,-1.9199,-1.8965,-1.9131,-1.9277,-1.9277,-1.9277,-1.9209,-1.8975,-1.8926,-1.8841,-1.8607,-1.8247,-1.8047,-1.8008,-1.8008,-1.8008,-1.8008,-1.8008,-1.8008,-1.8008,-1.8008,-1.8008,-1.8076,-1.8731,-1.9011,-1.8754,-1.9716,-2.0623,-2.1014,-2.1346,-2.1584,-2.2047,-2.187,-2.1543,-0.7988,-0.7988,-0.7988,-0.7971,-0.7974,-0.7828,-0.7614,-0.7377,-0.7381,-0.7255,-0.7105,-0.7095,-0.7621,-0.8452,-0.8759,-0.9325,-1.0122,-1.1091,-1.1419,-1.1337,-1.1972,-1.2305,-1.2305,-1.2305,-1.2305,-1.2305,-1.2305,-1.2305,-1.2305,-1.2305,-1.2305,-1.2278,-1.2017,-1.1724,-1.1389,-1.1136,-1.0848,-1.0613,-1.0586,-1.0586,-1.0586,-1.0586,-1.0486,-1.0241,-1.0221,-1.0107,-0.9909,-0.9599,-0.9511,-0.974,-0.9285,-0.9044,-0.9191,-0.9098,-0.9105,-0.9284,-0.9311,-0.9537,-1.0037,-1.0394,-1.0586,-1.0593,-1.0769,-1.1439,-1.2843,-1.4852,-1.6584,-1.7494,-1.7647,-1.7716,-1.794,-1.8008,-1.8008,-1.8008,-1.8008,-1.8144,-1.8393,-1.8461,-1.8461,-1.85,-1.8789,-1.8838,-1.8643,-1.8789,-1.8945,-1.8945,-1.9004,-1.8848,-1.8529,-1.8461,-1.8461,-1.8403,-1.8178,-1.8027,-1.8008,-1.8008,-1.8008,-1.8008,-1.8008,-1.8008,-1.8008,-1.8008,-1.8008,-1.8076,-1.8496,-1.8654,-1.8259,-1.8874,-1.9749,-2.0026,-2.0307,-2.0825,-2.1604,-2.1142,-2.0654,-0.7988,-0.7988,-0.7988,-0.7907,-0.7824,-0.7682,-0.7522,-0.7409,-0.7224,-0.7112,-0.7098,-0.7095,-0.7183,-0.7401,-0.8408,-0.8917,-0.9161,-1.0758,-1.1427,-1.1459,-1.2024,-1.2305,-1.2194,-1.2268,-1.2305,-1.2268,-1.2268,-1.2305,-1.2305,-1.2305,-1.2305,-1.2271,-1.2011,-1.1724,-1.1423,-1.1142,-1.0855,-1.06,-1.0586,-1.0586,-1.0586,-1.0586,-1.0573,-1.0584,-1.0546,-1.0539,-1.0466,-1.0194,-1.0047,-1.0053,-0.9753,-0.9479,-0.9271,-0.9459,-0.9635,-0.9668,-0.9646,-0.9786,-1.01,-1.0394,-1.0586,-1.0649,-1.1226,-1.1929,-1.2784,-1.3726,-1.5023,-1.6325,-1.6731,-1.7148,-1.7862,-1.7974,-1.8008,-1.8008,-1.8008,-1.8027,-1.8076,-1.8076,-1.8032,-1.8066,-1.8184,-1.8115,-1.8144,-1.8193,-1.8184,-1.8262,-1.8291,-1.8252,-1.8164,-1.8135,-1.8125,-1.8105,-1.8018,-1.8008,-1.8008,-1.8008,-1.8008,-1.8008,-1.8008,-1.8008,-1.8008,-1.8008,-1.8008,-1.8042,-1.8076,-1.8134,-1.7982,-1.7992,-1.8064,-1.8871,-1.924,-1.9616,-2.0453,-2.0323,-1.9984,-0.7988,-0.7988,-0.7988,-0.7953,-0.779,-0.7567,-0.7477,-0.7356,-0.7207,-0.7095,-0.7095,-0.7095,-0.7095,-0.7139,-0.7621,-0.7789,-0.7814,-0.9022,-0.951,-0.9488,-1.0198,-1.0533,-1.0576,-1.1168,-1.1428,-1.1465,-1.1996,-1.2305,-1.2305,-1.2305,-1.2305,-1.2298,-1.2178,-1.1891,-1.1422,-1.1275,-1.1029,-1.0606,-1.0586,-1.0586,-1.0586,-1.0586,-1.0586,-1.0586,-1.0586,-1.0586,-1.0559,-1.0274,-1.012,-1.0057,-0.9644,-0.9424,-0.9499,-0.9292,-0.9406,-0.988,-1.0144,-1.0278,-1.0399,-1.0526,-1.0586,-1.0586,-1.0895,-1.1305,-1.1753,-1.2212,-1.332,-1.5155,-1.6138,-1.6775,-1.7173,-1.7681,-1.8008,-1.8008,-1.8008,-1.8008,-1.8008,-1.8008,-1.8008,-1.8008,-1.8008,-1.8008,-1.8008,-1.8008,-1.8008,-1.8008,-1.8008,-1.8008,-1.8008,-1.8008,-1.8008,-1.8008,-1.8008,-1.8008,-1.8008,-1.8008,-1.8008,-1.8008,-1.8008,-1.8008,-1.8008,-1.8008,-1.8008,-1.8008,-1.7978,-1.7871,-1.768,-1.7595,-1.7608,-1.8114,-1.8485,-1.8943,-1.9438,-1.932,-1.9317,-0.7988,-0.7988,-0.7988,-0.7877,-0.7736,-0.7526,-0.7433,-0.7295,-0.7142,-0.7095,-0.7095,-0.7095,-0.7095,-0.7095,-0.7095,-0.7021,-0.7047,-0.7798,-0.8145,-0.8115,-0.8899,-0.9296,-0.941,-1.034,-1.0789,-1.0975,-1.1811,-1.2305,-1.2305,-1.2305,-1.2305,-1.2298,-1.2218,-1.1931,-1.1435,-1.1329,-1.1062,-1.064,-1.0586,-1.0586,-1.0586,-1.0586,-1.0586,-1.0586,-1.0586,-1.0586,-1.0579,-1.0274,-1.012,-1.0077,-0.9677,-0.9511,-0.9688,-0.9454,-0.9579,-1.016,-1.0466,-1.0586,-1.0586,-1.0586,-1.0586,-1.0586,-1.0586,-1.0713,-1.0969,-1.1263,-1.215,-1.3666,-1.508,-1.5965,-1.7035,-1.7613,-1.7974,-1.8008,-1.8008,-1.8008,-1.8008,-1.8008,-1.8008,-1.8008,-1.8008,-1.8008,-1.8008,-1.8008,-1.8008,-1.8008,-1.8008,-1.8008,-1.8008,-1.8008,-1.8008,-1.8008,-1.8008,-1.8008,-1.8008,-1.8008,-1.8008,-1.8008,-1.8008,-1.8008,-1.8008,-1.8008,-1.8008,-1.7998,-1.793,-1.7754,-1.7471,-1.738,-1.7139,-1.749,-1.7773,-1.8058,-1.8426,-1.8379,-1.8727,-0.7988,-0.7988,-0.7988,-0.7872,-0.7611,-0.7577,-0.7417,-0.7136,-0.7102,-0.7095,-0.7095,-0.7095,-0.7095,-0.7095,-0.7095,-0.7018,-0.7047,-0.7761,-0.8028,-0.8001,-0.8784,-0.9258,-0.9372,-1.0303,-1.0789,-1.0864,-1.1811,-1.2305,-1.2305,-1.2305,-1.2305,-1.2298,-1.208,-1.175,-1.143,-1.1169,-1.0908,-1.0626,-1.0586,-1.0586,-1.0586,-1.0586,-1.0586,-1.0586,-1.0586,-1.0586,-1.0559,-1.0281,-1.009,-1.009,-1.0037,-0.9947,-0.9766,-1.0198,-1.0479,-1.0539,-1.0579,-1.0586,-1.0586,-1.0586,-1.0586,-1.0586,-1.0586,-1.0707,-1.0922,-1.1216,-1.1662,-1.2058,-1.3377,-1.498,-1.7179,-1.7662,-1.793,-1.8008,-1.8008,-1.8008,-1.8008,-1.8008,-1.8008,-1.8008,-1.8008,-1.8008,-1.8008,-1.8008,-1.8008,-1.8008,-1.8008,-1.8008,-1.8008,-1.8008,-1.8008,-1.8008,-1.8008,-1.8008,-1.8008,-1.8008,-1.8008,-1.8008,-1.8008,-1.7978,-1.7998,-1.8008,-1.7988,-1.7881,-1.7598,-1.7383,-1.7227,-1.6924,-1.6527,-1.654,-1.662,-1.6899,-1.7534,-1.7633,-1.795,-0.7988,-0.7968,-0.7786,-0.7743,-0.7706,-0.7431,-0.7247,-0.7282,-0.7136,-0.7095,-0.7095,-0.7095,-0.7095,-0.7095,-0.7095,-0.7018,-0.6919,-0.7143,-0.7182,-0.706,-0.7289,-0.7706,-0.8428,-0.9367,-1.0228,-1.0864,-1.1805,-1.2305,-1.2305,-1.2305,-1.2305,-1.2258,-1.2011,-1.1717,-1.143,-1.1102,-1.0888,-1.062,-1.0586,-1.0586,-1.0586,-1.0586,-1.0586,-1.0586,-1.0586,-1.0586,-1.0586,-1.0486,-1.0314,-1.0097,-1.009,-1.0067,-1.0013,-1.0372,-1.0499,-1.0321,-1.0486,-1.0586,-1.0586,-1.0586,-1.0586,-1.0586,-1.0586,-1.0633,-1.0767,-1.1008,-1.143,-1.2169,-1.2897,-1.4271,-1.5523,-1.6595,-1.7364,-1.7862,-1.8008,-1.7974,-1.8008,-1.8008,-1.8008,-1.8008,-1.8008,-1.8008,-1.8008,-1.8008,-1.8008,-1.8008,-1.8008,-1.8008,-1.8008,-1.8008,-1.8008,-1.7998,-1.8008,-1.8008,-1.8008,-1.8008,-1.8008,-1.8008,-1.7978,-1.7812,-1.7764,-1.7637,-1.7588,-1.7324,-1.708,-1.6846,-1.665,-1.629,-1.5909,-1.583,-1.5892,-1.6226,-1.6765,-1.6866,-1.7274,-0.7961,-0.7891,-0.7753,-0.7665,-0.7631,-0.7346,-0.7244,-0.7288,-0.7142,-0.7095,-0.7095,-0.7095,-0.7095,-0.7085,-0.7048,-0.6947,-0.6854,-0.6742,-0.6593,-0.6446,-0.634,-0.6683,-0.7365,-0.8351,-0.9183,-0.9965,-1.1205,-1.1966,-1.2268,-1.2305,-1.2305,-1.2291,-1.2047,-1.1724,-1.1423,-1.1136,-1.0888,-1.0646,-1.0586,-1.0586,-1.0586,-1.0586,-1.0586,-1.0586,-1.0586,-1.0586,-1.0586,-1.0586,-1.0506,-1.0294,-1.0261,-1.0261,-1.0281,-1.0479,-1.0499,-1.0314,-1.0479,-1.0586,-1.0586,-1.0586,-1.0586,-1.0586,-1.0586,-1.0586,-1.0613,-1.0909,-1.1426,-1.1973,-1.2606,-1.3359,-1.4172,-1.5123,-1.6044,-1.6941,-1.7364,-1.7545,-1.7569,-1.7828,-1.7974,-1.8008,-1.8008,-1.8008,-1.8008,-1.8008,-1.8008,-1.8008,-1.8008,-1.8008,-1.8008,-1.8008,-1.7939,-1.7842,-1.7783,-1.7666,-1.7539,-1.7432,-1.7773,-1.7861,-1.7725,-1.7578,-1.7412,-1.7275,-1.708,-1.6765,-1.6502,-1.6289,-1.5986,-1.5635,-1.5488,-1.543,-1.5526,-1.5806,-1.6036,-1.6122,-1.6585,-0.7904,-0.7779,-0.7807,-0.7631,-0.7467,-0.735,-0.7268,-0.7122,-0.7102,-0.7095,-0.7095,-0.7095,-0.7095,-0.7071,-0.6984,-0.6822,-0.6736,-0.6705,-0.6549,-0.6334,-0.6303,-0.6377,-0.6644,-0.7514,-0.8084,-0.8313,-0.9922,-1.1242,-1.1966,-1.2077,-1.215,-1.2178,-1.1941,-1.1683,-1.143,-1.1116,-1.0861,-1.0646,-1.0586,-1.0586,-1.0586,-1.0586,-1.0586,-1.0586,-1.0586,-1.0586,-1.0586,-1.0586,-1.0579,-1.0566,-1.0559,-1.0579,-1.0553,-1.0586,-1.0579,-1.0559,-1.0586,-1.0586,-1.0586,-1.0586,-1.0586,-1.0586,-1.0586,-1.0586,-1.066,-1.1002,-1.1229,-1.1235,-1.1791,-1.2554,-1.3129,-1.3605,-1.4268,-1.5128,-1.6149,-1.6567,-1.6749,-1.7398,-1.8008,-1.7974,-1.8008,-1.8008,-1.8008,-1.8008,-1.8008,-1.8008,-1.8008,-1.8008,-1.8008,-1.8008,-1.7832,-1.7539,-1.7471,-1.7432,-1.7048,-1.6765,-1.7252,-1.7637,-1.7451,-1.7275,-1.7051,-1.6885,-1.665,-1.6346,-1.6162,-1.5928,-1.5771,-1.5469,-1.5459,-1.542,-1.5439,-1.5439,-1.5584,-1.5787,-1.5931,-0.7901,-0.7804,-0.7706,-0.7553,-0.7366,-0.7261,-0.7136,-0.7098,-0.7095,-0.7095,-0.7095,-0.7095,-0.7095,-0.7088,-0.7045,-0.6893,-0.6712,-0.6692,-0.6542,-0.6337,-0.63,-0.6644,-0.7253,-0.7633,-0.8165,-0.8808,-0.9448,-0.9895,-1.0346,-1.0938,-1.1273,-1.1273,-1.1449,-1.1502,-1.13,-1.0955,-1.0667,-1.0606,-1.0586,-1.0586,-1.0586,-1.0586,-1.0586,-1.0586,-1.0586,-1.0586,-1.0586,-1.0586,-1.0586,-1.0586,-1.0586,-1.0586,-1.0586,-1.0586,-1.0586,-1.0586,-1.0586,-1.0586,-1.0586,-1.0586,-1.0586,-1.0586,-1.0586,-1.0586,-1.0586,-1.0767,-1.0854,-1.0767,-1.1136,-1.1574,-1.195,-1.2276,-1.3235,-1.4996,-1.5446,-1.5649,-1.5799,-1.6498,-1.7285,-1.7896,-1.8008,-1.8008,-1.8008,-1.7974,-1.8008,-1.8008,-1.8008,-1.8008,-1.8008,-1.7978,-1.7842,-1.7471,-1.7383,-1.7109,-1.6699,-1.6434,-1.6687,-1.7021,-1.6953,-1.6885,-1.6711,-1.6445,-1.6201,-1.6025,-1.5801,-1.5644,-1.5478,-1.542,-1.542,-1.542,-1.541,-1.541,-1.542,-1.5526,-1.57,-0.787,-0.7729,-0.7638,-0.7475,-0.7285,-0.7177,-0.7095,-0.7095,-0.7095,-0.7095,-0.7095,-0.7095,-0.7095,-0.7085,-0.7045,-0.6926,-0.6709,-0.6647,-0.6488,-0.6327,-0.63,-0.6679,-0.7215,-0.7249,-0.7783,-0.8575,-0.8732,-0.8955,-0.9334,-0.989,-1.0228,-1.0304,-1.0444,-1.044,-1.0353,-0.9992,-0.9762,-0.9702,-0.9907,-1.0104,-1.0206,-1.0428,-1.0586,-1.0586,-1.0586,-1.0586,-1.0586,-1.0586,-1.0586,-1.0586,-1.0586,-1.0586,-1.0586,-1.0586,-1.0586,-1.0586,-1.0586,-1.0586,-1.0586,-1.0586,-1.0586,-1.0586,-1.0586,-1.0586,-1.0606,-1.066,-1.072,-1.0646,-1.0949,-1.1182,-1.1289,-1.153,-1.2445,-1.3762,-1.4379,-1.4756,-1.5163,-1.5685,-1.6219,-1.6793,-1.7182,-1.7432,-1.7501,-1.7872,-1.7974,-1.8008,-1.8008,-1.8008,-1.7969,-1.7861,-1.7568,-1.7227,-1.6894,-1.6592,-1.6279,-1.6161,-1.6171,-1.6278,-1.6377,-1.6388,-1.631,-1.6036,-1.5752,-1.5703,-1.5537,-1.5547,-1.542,-1.542,-1.542,-1.542,-1.542,-1.542,-1.542,-1.542,-1.5526,-0.782,-0.7611,-0.7597,-0.7428,-0.7122,-0.7098,-0.7095,-0.7095,-0.7095,-0.7095,-0.7095,-0.7095,-0.7095,-0.7065,-0.6991,-0.6885,-0.6702,-0.6624,-0.6474,-0.634,-0.63,-0.6374,-0.6451,-0.649,-0.6949,-0.7591,-0.7706,-0.8165,-0.8765,-0.9069,-0.921,-0.9183,-0.9181,-0.8954,-0.8882,-0.8502,-0.8393,-0.8404,-0.8973,-0.9402,-0.9434,-1.0168,-1.0586,-1.0586,-1.0586,-1.0586,-1.0586,-1.0586,-1.0586,-1.0586,-1.0586,-1.0586,-1.0586,-1.0586,-1.0586,-1.0586,-1.0586,-1.0586,-1.0586,-1.0586,-1.0586,-1.0586,-1.0586,-1.0586,-1.0613,-1.076,-1.0807,-1.064,-1.0982,-1.1216,-1.1102,-1.1243,-1.1627,-1.1952,-1.2985,-1.3892,-1.4901,-1.5045,-1.5113,-1.5365,-1.5922,-1.646,-1.6441,-1.7123,-1.7444,-1.7647,-1.7647,-1.7731,-1.7629,-1.7364,-1.7174,-1.6836,-1.6465,-1.6191,-1.5918,-1.582,-1.581,-1.5849,-1.5937,-1.5947,-1.5968,-1.5693,-1.5527,-1.5459,-1.542,-1.542,-1.542,-1.542,-1.542,-1.542,-1.542,-1.542,-1.541,-1.541,-1.5391,-0.7868,-0.7607,-0.7597,-0.7424,-0.7115,-0.7095,-0.7095,-0.7095,-0.7095,-0.7095,-0.7095,-0.7095,-0.7095,-0.7092,-0.7055,-0.6903,-0.6736,-0.6658,-0.6532,-0.6327,-0.63,-0.63,-0.63,-0.63,-0.6451,-0.6718,-0.6795,-0.6834,-0.7138,-0.7846,-0.8085,-0.8004,-0.8399,-0.8569,-0.8439,-0.8136,-0.8065,-0.8134,-0.8844,-0.9268,-0.9396,-1.0142,-1.0586,-1.0586,-1.0586,-1.0586,-1.0586,-1.0586,-1.0586,-1.0586,-1.0586,-1.0586,-1.0586,-1.0586,-1.0586,-1.0586,-1.0586,-1.0586,-1.0586,-1.0586,-1.0586,-1.0586,-1.0586,-1.0586,-1.0586,-1.0653,-1.0667,-1.0613,-1.0767,-1.0862,-1.0955,-1.1069,-1.1256,-1.1516,-1.2101,-1.2806,-1.3517,-1.3654,-1.3737,-1.4396,-1.4765,-1.5002,-1.524,-1.5523,-1.585,-1.6087,-1.6505,-1.6837,-1.672,-1.685,-1.6649,-1.642,-1.6113,-1.585,-1.5625,-1.5518,-1.5469,-1.5508,-1.5557,-1.5596,-1.5596,-1.5518,-1.5449,-1.542,-1.542,-1.542,-1.542,-1.542,-1.542,-1.542,-1.542,-1.542,-1.54,-1.54,-1.5361,-0.7868,-0.76,-0.7597,-0.7421,-0.7112,-0.7095,-0.7095,-0.7095,-0.7095,-0.7095,-0.7095,-0.7095,-0.7095,-0.7095,-0.7092,-0.6933,-0.6725,-0.6702,-0.6576,-0.6334,-0.63,-0.63,-0.63,-0.63,-0.63,-0.63,-0.63,-0.6296,-0.6398,-0.6843,-0.693,-0.6921,-0.7162,-0.7294,-0.7121,-0.7025,-0.6924,-0.7088,-0.8064,-0.8748,-0.8839,-0.997,-1.0523,-1.0586,-1.0586,-1.0586,-1.0586,-1.0586,-1.0586,-1.0586,-1.0586,-1.0586,-1.0586,-1.0586,-1.0586,-1.0586,-1.0586,-1.0586,-1.0586,-1.0586,-1.0586,-1.0586,-1.0586,-1.0586,-1.0586,-1.0586,-1.0586,-1.0593,-1.0586,-1.0673,-1.0807,-1.0909,-1.1062,-1.1229,-1.1403,-1.1785,-1.2442,-1.2362,-1.2519,-1.2993,-1.3435,-1.3749,-1.3956,-1.4341,-1.4693,-1.5065,-1.5634,-1.5679,-1.5572,-1.5915,-1.5998,-1.5598,-1.5438,-1.518,-1.5263,-1.5274,-1.5391,-1.542,-1.542,-1.542,-1.542,-1.542,-1.542,-1.542,-1.542,-1.542,-1.542,-1.542,-1.542,-1.542,-1.542,-1.5391,-1.5371,-1.5156,-1.5146,-0.7706,-0.7597,-0.7584,-0.7361,-0.7119,-0.7095,-0.7095,-0.7095,-0.7095,-0.7095,-0.7095,-0.7095,-0.7095,-0.7095,-0.7092,-0.698,-0.6705,-0.6702,-0.6515,-0.6375,-0.63,-0.63,-0.63,-0.63,-0.63,-0.63,-0.63,-0.63,-0.6304,-0.6191,-0.6061,-0.6079,-0.5898,-0.5696,-0.5863,-0.5651,-0.5435,-0.5885,-0.7116,-0.7832,-0.8124,-0.9224,-0.9939,-1.0002,-1.0002,-1.004,-1.0104,-1.0168,-1.0168,-1.0263,-1.0466,-1.0586,-1.0586,-1.0586,-1.0586,-1.0586,-1.0586,-1.0586,-1.0586,-1.0586,-1.0586,-1.0586,-1.0586,-1.0586,-1.0586,-1.0586,-1.0586,-1.0586,-1.0586,-1.0606,-1.0646,-1.0802,-1.0902,-1.0955,-1.0962,-1.1082,-1.1263,-1.1336,-1.1302,-1.1336,-1.216,-1.2543,-1.2957,-1.3549,-1.4231,-1.3646,-1.4228,-1.4424,-1.4413,-1.456,-1.46,-1.4382,-1.4335,-1.4437,-1.4706,-1.503,-1.5264,-1.542,-1.542,-1.542,-1.542,-1.542,-1.542,-1.542,-1.542,-1.542,-1.542,-1.542,-1.541,-1.5352,-1.5303,-1.5303,-1.5245,-1.4873,-1.4717,-0.6786,-0.759,-0.7472,-0.7312,-0.7112,-0.7095,-0.7095,-0.7095,-0.7095,-0.7092,-0.7092,-0.7092,-0.7092,-0.7092,-0.7068,-0.6933,-0.6719,-0.6675,-0.6579,-0.6327,-0.63,-0.63,-0.63,-0.63,-0.63,-0.63,-0.63,-0.63,-0.6262,-0.6098,-0.5966,-0.5837,-0.5681,-0.5562,-0.5453,-0.5426,-0.5395,-0.5591,-0.6494,-0.7013,-0.7242,-0.8086,-0.8737,-0.8705,-0.8672,-0.8608,-0.8576,-0.8576,-0.8544,-0.8871,-0.9748,-1.0396,-1.046,-1.0555,-1.0586,-1.0586,-1.0586,-1.0586,-1.0586,-1.0586,-1.0586,-1.0586,-1.0586,-1.0586,-1.0586,-1.0586,-1.0586,-1.0586,-1.0586,-1.0586,-1.0606,-1.064,-1.0707,-1.072,-1.0713,-1.0734,-1.0774,-1.0801,-1.0827,-1.0885,-1.1021,-1.1191,-1.1419,-1.1708,-1.2145,-1.2208,-1.266,-1.3073,-1.3218,-1.3291,-1.3251,-1.3165,-1.377,-1.3965,-1.4392,-1.4815,-1.5264,-1.542,-1.542,-1.542,-1.542,-1.542,-1.542,-1.542,-1.542,-1.542,-1.542,-1.541,-1.54,-1.5293,-1.5146,-1.5039,-1.4873,-1.4531,-1.4277,-0.5623,-0.6601,-0.6572,-0.6782,-0.7064,-0.7095,-0.7095,-0.7095,-0.7095,-0.7055,-0.7024,-0.7058,-0.7058,-0.6997,-0.6987,-0.6909,-0.6709,-0.6586,-0.6453,-0.6317,-0.63,-0.63,-0.63,-0.63,-0.63,-0.63,-0.63,-0.63,-0.6245,-0.6047,-0.5878,-0.5786,-0.5631,-0.5484,-0.5405,-0.5395,-0.5395,-0.5591,-0.6235,-0.6719,-0.685,-0.7535,-0.7994,-0.7994,-0.7994,-0.7994,-0.8054,-0.8021,-0.8027,-0.8221,-0.8871,-0.9588,-1.004,-1.0364,-1.0555,-1.0586,-1.0586,-1.0586,-1.0586,-1.0586,-1.0586,-1.0593,-1.0586,-1.0586,-1.0586,-1.0586,-1.0586,-1.0586,-1.0586,-1.0586,-1.0586,-1.0593,-1.0586,-1.0586,-1.0586,-1.0586,-1.0586,-1.0586,-1.0586,-1.0586,-1.0658,-1.075,-1.0787,-1.0875,-1.1068,-1.1618,-1.1826,-1.2183,-1.1943,-1.2,-1.201,-1.2234,-1.3083,-1.3666,-1.4124,-1.4638,-1.5294,-1.542,-1.542,-1.542,-1.542,-1.542,-1.542,-1.541,-1.5391,-1.541,-1.541,-1.54,-1.5254,-1.5068,-1.4883,-1.4707,-1.4453,-1.4102,-1.388,-0.4336,-0.5341,-0.5512,-0.6082,-0.6792,-0.701,-0.7095,-0.7095,-0.7095,-0.7041,-0.6957,-0.7051,-0.7041,-0.6943,-0.6903,-0.6795,-0.663,-0.6417,-0.6313,-0.6303,-0.63,-0.63,-0.63,-0.63,-0.63,-0.63,-0.63,-0.63,-0.6218,-0.5973,-0.583,-0.5752,-0.5545,-0.5423,-0.5399,-0.5395,-0.5395,-0.5524,-0.6009,-0.6363,-0.6461,-0.7083,-0.7344,-0.7377,-0.7344,-0.7344,-0.7312,-0.7377,-0.7474,-0.76,-0.773,-0.8188,-0.8877,-0.969,-1.0199,-1.0129,-0.997,-0.9907,-0.9875,-1.0009,-1.0072,-1.0333,-1.0364,-1.0491,-1.0523,-1.0586,-1.0586,-1.0586,-1.0586,-1.0586,-1.0586,-1.0586,-1.0586,-1.0586,-1.0586,-1.0586,-1.0586,-1.0586,-1.0586,-1.0586,-1.0586,-1.0633,-1.0687,-1.078,-1.0888,-1.0969,-1.1169,-1.1249,-1.1049,-1.1026,-1.1209,-1.1561,-1.2421,-1.3122,-1.3575,-1.3825,-1.4569,-1.4785,-1.4932,-1.507,-1.5041,-1.4849,-1.4801,-1.5284,-1.5361,-1.5312,-1.5176,-1.5019,-1.4873,-1.4746,-1.4512,-1.4238,-1.3929,-1.3646,-1.3519,-0.292,-0.4185,-0.5065,-0.5552,-0.5805,-0.665,-0.7007,-0.7095,-0.7007,-0.7085,-0.7058,-0.7082,-0.7071,-0.7011,-0.692,-0.6773,-0.6512,-0.6371,-0.63,-0.63,-0.63,-0.63,-0.63,-0.63,-0.63,-0.63,-0.63,-0.63,-0.6228,-0.6003,-0.5813,-0.5739,-0.5539,-0.5399,-0.5395,-0.5395,-0.5395,-0.5395,-0.5653,-0.5752,-0.5818,-0.5947,-0.6079,-0.6112,-0.6145,-0.6079,-0.598,-0.5881,-0.5815,-0.5881,-0.6527,-0.6915,-0.7307,-0.8021,-0.8415,-0.8672,-0.8678,-0.8807,-0.8871,-0.8672,-0.8903,-0.93,-0.969,-1.0047,-1.0396,-1.0586,-1.0586,-1.0586,-1.0586,-1.0586,-1.0586,-1.0586,-1.0586,-1.0586,-1.0586,-1.0586,-1.0586,-1.0586,-1.0586,-1.0586,-1.0586,-1.0593,-1.064,-1.0667,-1.0727,-1.078,-1.0861,-1.0902,-1.0821,-1.0823,-1.0995,-1.138,-1.188,-1.2481,-1.3,-1.3152,-1.3485,-1.3674,-1.3876,-1.4218,-1.4157,-1.3988,-1.4134,-1.4763,-1.5,-1.4893,-1.4756,-1.4639,-1.4453,-1.4297,-1.3987,-1.3714,-1.3545,-1.335,-1.3184,-0.162,-0.281,-0.332,-0.3885,-0.4508,-0.5038,-0.5667,-0.6204,-0.6204,-0.6521,-0.687,-0.6984,-0.694,-0.6892,-0.6756,-0.6563,-0.6433,-0.6344,-0.63,-0.63,-0.63,-0.63,-0.63,-0.63,-0.63,-0.63,-0.63,-0.63,-0.6265,-0.5949,-0.5817,-0.5732,-0.5542,-0.5395,-0.5395,-0.5395,-0.5395,-0.5395,-0.5395,-0.5395,-0.5395,-0.5395,-0.5395,-0.5395,-0.5395,-0.5395,-0.5395,-0.5395,-0.5425,-0.5524,-0.5815,-0.598,-0.6174,-0.647,-0.7088,-0.7735,-0.7929,-0.8188,-0.8549,-0.871,-0.9134,-0.9881,-0.9913,-1.0136,-1.046,-1.0586,-1.0586,-1.0586,-1.0586,-1.0586,-1.0586,-1.0586,-1.0586,-1.0586,-1.0586,-1.0586,-1.0586,-1.0586,-1.0586,-1.0586,-1.0586,-1.0586,-1.0586,-1.0606,-1.0593,-1.0586,-1.0586,-1.0586,-1.0586,-1.0681,-1.0832,-1.1076,-1.1507,-1.1996,-1.2458,-1.2551,-1.2548,-1.2631,-1.2849,-1.3199,-1.3559,-1.3504,-1.3877,-1.4452,-1.4504,-1.4385,-1.4414,-1.4289,-1.4055,-1.3831,-1.3665,-1.3506,-1.3277,-1.3062,-1.2964,-0.0594,-0.1478,-0.1701,-0.2369,-0.3215,-0.3525,-0.415,-0.491,-0.5043,-0.5623,-0.6498,-0.6549,-0.6567,-0.6687,-0.661,-0.6443,-0.6306,-0.63,-0.63,-0.63,-0.63,-0.63,-0.63,-0.63,-0.63,-0.63,-0.63,-0.63,-0.6238,-0.5949,-0.5823,-0.5722,-0.5542,-0.5395,-0.5395,-0.5395,-0.5395,-0.5395,-0.5395,-0.5395,-0.5395,-0.5395,-0.5395,-0.5395,-0.5395,-0.5395,-0.5395,-0.5395,-0.5395,-0.5395,-0.5458,-0.5425,-0.5428,-0.5395,-0.6079,-0.7218,-0.7479,-0.7902,-0.8161,-0.8296,-0.842,-0.9492,-0.9741,-1.0002,-1.0586,-1.0586,-1.0586,-1.0586,-1.0586,-1.0586,-1.0586,-1.0586,-1.0586,-1.0586,-1.0586,-1.0586,-1.0586,-1.0586,-1.0586,-1.0586,-1.0586,-1.0586,-1.0586,-1.0586,-1.0586,-1.0586,-1.0586,-1.0586,-1.0586,-1.0586,-1.0681,-1.0807,-1.1115,-1.16,-1.1942,-1.2004,-1.1867,-1.1692,-1.1911,-1.2186,-1.2738,-1.3207,-1.3516,-1.3664,-1.3851,-1.376,-1.3851,-1.389,-1.3623,-1.3428,-1.3398,-1.3281,-1.3101,-1.3003,-1.2935,-0.0091,-0.0314,-0.1344,-0.1879,-0.2147,-0.3037,-0.3614,-0.3748,-0.3794,-0.4503,-0.5538,-0.5443,-0.5858,-0.6489,-0.6569,-0.6433,-0.6337,-0.63,-0.63,-0.63,-0.63,-0.63,-0.63,-0.63,-0.63,-0.6289,-0.6286,-0.63,-0.6173,-0.5932,-0.5806,-0.5742,-0.5562,-0.5395,-0.5395,-0.5395,-0.5395,-0.5395,-0.5395,-0.5395,-0.5395,-0.5395,-0.5395,-0.5395,-0.5395,-0.5395,-0.5395,-0.5395,-0.5395,-0.5395,-0.5395,-0.5395,-0.5395,-0.5395,-0.5428,-0.5657,-0.5723,-0.5785,-0.6178,-0.647,-0.7088,-0.8221,-0.8021,-0.8576,-0.9582,-1.0295,-1.0295,-1.0586,-1.0491,-1.0358,-1.0263,-1.0491,-1.0555,-1.0555,-1.0523,-1.0555,-1.0586,-1.0586,-1.0586,-1.0586,-1.0586,-1.0586,-1.0586,-1.0586,-1.0586,-1.0586,-1.0586,-1.0586,-1.0586,-1.0586,-1.0586,-1.0713,-1.0744,-1.117,-1.1293,-1.1401,-1.1232,-1.0929,-1.1174,-1.1382,-1.1748,-1.224,-1.2324,-1.25,-1.2763,-1.2995,-1.3039,-1.3007,-1.3016,-1.3091,-1.315,-1.3081,-1.2954,-1.2915,-1.2915,0.0,0.0,-0.0583,-0.0763,-0.0852,-0.1344,-0.1969,-0.2504,-0.2592,-0.326,-0.4166,-0.422,-0.4694,-0.5575,-0.607,-0.6361,-0.6306,-0.6257,-0.63,-0.63,-0.63,-0.63,-0.63,-0.63,-0.63,-0.6279,-0.6214,-0.6115,-0.6051,-0.5939,-0.58,-0.5749,-0.5552,-0.5395,-0.5395,-0.5395,-0.5395,-0.5395,-0.5395,-0.5395,-0.5395,-0.5395,-0.5395,-0.5395,-0.5395,-0.5395,-0.5395,-0.5395,-0.5395,-0.5395,-0.5395,-0.5395,-0.5395,-0.5395,-0.5428,-0.5428,-0.5428,-0.5686,-0.6108,-0.6071,-0.6789,-0.7535,-0.7665,-0.8118,-0.8967,-0.9192,-0.9192,-0.9096,-0.9128,-0.9192,-0.9358,-0.9588,-0.9786,-0.9951,-1.0136,-1.0428,-1.0491,-1.0586,-1.0586,-1.0586,-1.0586,-1.0586,-1.0573,-1.0539,-1.0553,-1.0586,-1.0586,-1.0586,-1.0586,-1.0586,-1.0586,-1.0618,-1.0618,-1.0713,-1.0711,-1.0719,-1.0638,-1.0479,-1.0814,-1.0962,-1.0852,-1.1069,-1.1318,-1.1421,-1.1566,-1.182,-1.2068,-1.2435,-1.2689,-1.2822,-1.2915,-1.2881,-1.2832,-1.2915,-1.2915,0.0,0.0,0.0,0.0,0.0,0.0,-0.0537,-0.1289,-0.1386,-0.2001,-0.2966,-0.3335,-0.3774,-0.4293,-0.5051,-0.544,-0.5867,-0.5906,-0.6103,-0.618,-0.63,-0.63,-0.63,-0.63,-0.63,-0.6293,-0.6115,-0.602,-0.5946,-0.5854,-0.5735,-0.5735,-0.5521,-0.5409,-0.5395,-0.5395,-0.5395,-0.5395,-0.5395,-0.5395,-0.5395,-0.5395,-0.5395,-0.5395,-0.5395,-0.5395,-0.5395,-0.5395,-0.5395,-0.5395,-0.5395,-0.5395,-0.5395,-0.5395,-0.5395,-0.5395,-0.5395,-0.5587,-0.5976,-0.6235,-0.685,-0.7405,-0.7892,-0.7864,-0.7665,-0.7762,-0.8027,-0.8221,-0.8188,-0.8156,-0.8124,-0.8683,-0.8844,-0.9134,-0.9422,-0.9875,-1.0225,-1.0243,-1.0408,-1.0586,-1.0586,-1.0586,-1.0559,-1.0499,-1.0506,-1.0573,-1.0586,-1.0573,-1.0539,-1.0499,-1.0445,-1.0405,-1.0291,-1.0278,-1.0231,-1.0164,-1.002,-1.0018,-1.0351,-1.034,-1.0124,-1.0325,-1.0677,-1.068,-1.0593,-1.12,-1.1808,-1.2128,-1.2403,-1.2403,-1.2427,-1.2691,-1.2774,-1.2856,-1.2915,0.0,0.0,0.0,0.0,0.0,0.0,0.0,0.0,0.0,-0.0875,-0.1984,-0.2833,-0.3169,-0.3377,-0.3709,-0.4258,-0.4885,-0.4844,-0.555,-0.6103,-0.63,-0.63,-0.63,-0.63,-0.6286,-0.6252,-0.6071,-0.6006,-0.5949,-0.5708,-0.5627,-0.561,-0.547,-0.5416,-0.5395,-0.5395,-0.5395,-0.5395,-0.5395,-0.5395,-0.5395,-0.5395,-0.5395,-0.5395,-0.5395,-0.5395,-0.5395,-0.5395,-0.5395,-0.5395,-0.5395,-0.5395,-0.5395,-0.5395,-0.5395,-0.5395,-0.5395,-0.5524,-0.5686,-0.5752,-0.6009,-0.6724,-0.7274,-0.7377,-0.6887,-0.754,-0.7864,-0.7735,-0.76,-0.7827,-0.7892,-0.8091,-0.8517,-0.8775,-0.9224,-0.9582,-0.9856,-0.9775,-1.0008,-1.044,-1.0526,-1.0425,-1.0392,-1.0291,-1.0352,-1.0412,-1.0332,-1.0311,-1.0311,-1.0278,-1.0174,-1.008,-0.9893,-0.9849,-0.9816,-0.9719,-0.9686,-0.9537,-0.9652,-0.9467,-0.9159,-0.9511,-0.9989,-1.0055,-1.009,-1.0821,-1.1266,-1.1124,-1.1183,-1.1649,-1.203,-1.2535,-1.2774,-1.2881,-1.2915,0.0,0.0,0.0,0.0,0.0,0.0,0.0,0.0,0.0,-0.0212,-0.0782,-0.1749,-0.224,-0.2477,-0.3673,-0.4258,-0.4807,-0.5473,-0.5906,-0.6141,-0.63,-0.63,-0.63,-0.6282,-0.6213,-0.6112,-0.5936,-0.5794,-0.5725,-0.5562,-0.5515,-0.5457,-0.5423,-0.5409,-0.5395,-0.5395,-0.5395,-0.5395,-0.5395,-0.5395,-0.5395,-0.5395,-0.5395,-0.5395,-0.5395,-0.5395,-0.5395,-0.5395,-0.5395,-0.5395,-0.5395,-0.5395,-0.5395,-0.5395,-0.5395,-0.5395,-0.5395,-0.5395,-0.5395,-0.5395,-0.5587,-0.5752,-0.6174,-0.6305,-0.6009,-0.6305,-0.6404,-0.6502,-0.692,-0.7177,-0.7242,-0.8091,-0.8941,-0.8973,-0.9009,-0.9209,-0.9352,-0.9205,-0.9587,-1.0037,-1.0095,-1.0064,-1.0027,-1.0013,-1.0114,-1.02,-1.0137,-1.0064,-1.0064,-0.9987,-0.99,-0.9813,-0.9639,-0.9586,-0.9588,-0.9472,-0.9344,-0.9211,-0.9064,-0.8938,-0.8805,-0.8851,-0.9265,-0.9316,-0.9439,-0.984,-0.9987,-0.9736,-1.0192,-1.13,-1.2064,-1.2657,-1.2822,-1.2915,-1.2915,0.0,0.0,0.0,0.0,0.0,0.0,0.0,0.0,0.0,0.0,0.0,-0.0807,-0.1116,-0.165,-0.2817,-0.3906,-0.4295,-0.5118,-0.5867,-0.618,-0.63,-0.63,-0.63,-0.6276,-0.6186,-0.599,-0.5838,-0.5745,-0.562,-0.5477,-0.5423,-0.5409,-0.5395,-0.5395,-0.5395,-0.5395,-0.5395,-0.5395,-0.5395,-0.5395,-0.5395,-0.5395,-0.5395,-0.5395,-0.5395,-0.5395,-0.5395,-0.5395,-0.5395,-0.5395,-0.5395,-0.5395,-0.5395,-0.5395,-0.5395,-0.5395,-0.5395,-0.5395,-0.5395,-0.5395,-0.5395,-0.5524,-0.5491,-0.5524,-0.5395,-0.5395,-0.5657,-0.5624,-0.6042,-0.6359,-0.6416,-0.7094,-0.7457,-0.7195,-0.737,-0.7586,-0.8222,-0.8388,-0.9052,-0.9609,-0.9684,-0.98,-0.9746,-0.9753,-0.978,-0.9893,-0.9943,-0.9869,-0.9806,-0.9726,-0.9579,-0.9499,-0.9399,-0.9392,-0.9392,-0.9245,-0.9084,-0.9065,-0.8918,-0.8871,-0.8785,-0.8778,-0.8778,-0.8982,-0.9035,-0.8929,-0.9185,-0.9562,-1.0397,-1.1392,-1.1925,-1.2344,-1.2822,-1.2915,-1.2915,0.0,0.0,0.0,0.0,0.0,0.0,0.0,0.0,0.0,0.0,0.0,0.0,0.0,0.0,-0.1645,-0.2503,-0.3357,-0.4334,-0.5196,-0.5709,-0.6141,-0.6219,-0.6212,-0.615,-0.6129,-0.5979,-0.585,-0.5691,-0.56,-0.5463,-0.5402,-0.5395,-0.5395,-0.5395,-0.5395,-0.5395,-0.5395,-0.5395,-0.5395,-0.5395,-0.5395,-0.5395,-0.5395,-0.5395,-0.5395,-0.5395,-0.5395,-0.5395,-0.5395,-0.5395,-0.5395,-0.5395,-0.5395,-0.5395,-0.5395,-0.5395,-0.5395,-0.5395,-0.5395,-0.5395,-0.5395,-0.5395,-0.5395,-0.5395,-0.5395,-0.5395,-0.5395,-0.5428,-0.5665,-0.5665,-0.556,-0.5614,-0.5954,-0.6201,-0.6511,-0.6747,-0.7466,-0.7744,-0.8349,-0.8819,-0.9313,-0.9646,-0.9552,-0.9492,-0.9472,-0.9539,-0.9675,-0.9668,-0.9546,-0.9439,-0.9251,-0.9225,-0.9152,-0.9125,-0.9092,-0.8958,-0.8825,-0.8824,-0.8824,-0.8785,-0.8778,-0.8778,-0.8778,-0.8778,-0.8831,-0.8883,-0.9283,-0.9736,-1.0269,-1.0736,-1.14,-1.1907,-1.2486,-1.27,-1.2471,0.0,0.0,0.0,0.0,0.0,0.0,0.0,0.0,0.0,0.0,0.0,0.0,0.0,0.0,-0.1019,-0.1841,-0.2348,-0.4023,-0.4924,-0.4334,-0.5434,-0.5628,-0.5571,-0.5654,-0.5888,-0.5845,-0.5732,-0.5489,-0.5463,-0.5239,-0.5332,-0.5395,-0.5359,-0.5395,-0.5395,-0.5395,-0.5395,-0.5395,-0.5395,-0.5395,-0.5395,-0.5395,-0.5395,-0.5395,-0.5395,-0.5395,-0.5395,-0.5395,-0.5395,-0.5395,-0.5395,-0.5395,-0.5395,-0.5395,-0.5395,-0.5395,-0.5395,-0.5395,-0.5395,-0.5395,-0.5395,-0.5395,-0.5395,-0.5395,-0.5395,-0.5395,-0.5395,-0.5496,-0.5694,-0.5826,-0.6101,-0.6577,-0.6915,-0.7018,-0.717,-0.7165,-0.7488,-0.7343,-0.7551,-0.7866,-0.8282,-0.8717,-0.8817,-0.8703,-0.8709,-0.8767,-0.885,-0.9095,-0.907,-0.9044,-0.8931,-0.8951,-0.8911,-0.8864,-0.8778,-0.8778,-0.8778,-0.8785,-0.8791,-0.8785,-0.8778,-0.8778,-0.8778,-0.8778,-0.8831,-0.8883,-0.9133,-0.9361,-0.9491,-0.9917,-1.0542,-1.1116,-1.1584,-1.1642,-1.1384,0.0,0.0,0.0,0.0,0.0,0.0,0.0,0.0,0.0,0.0,0.0,0.0,0.0,0.0,-0.1058,-0.1567,-0.1803,-0.3244,-0.3984,-0.3279,-0.4414,-0.453,-0.4496,-0.4685,-0.4625,-0.482,-0.4769,-0.4617,-0.4806,-0.4556,-0.4586,-0.4821,-0.5223,-0.5359,-0.5395,-0.5395,-0.5395,-0.5395,-0.5395,-0.5395,-0.5395,-0.5395,-0.5395,-0.5395,-0.5395,-0.5395,-0.5395,-0.5395,-0.5395,-0.5395,-0.5395,-0.5395,-0.5395,-0.5395,-0.5395,-0.5395,-0.5395,-0.5395,-0.5395,-0.5395,-0.5395,-0.5395,-0.5395,-0.5395,-0.5395,-0.5395,-0.5395,-0.5548,-0.5813,-0.5875,-0.6029,-0.6661,-0.6615,-0.6626,-0.6536,-0.6469,-0.6447,-0.6289,-0.6515,-0.6813,-0.7263,-0.7678,-0.7996,-0.7907,-0.7805,-0.791,-0.7994,-0.8289,-0.8613,-0.8672,-0.8699,-0.8705,-0.8765,-0.8811,-0.8778,-0.8778,-0.8778,-0.8778,-0.8778,-0.8778,-0.8778,-0.8778,-0.8778,-0.8778,-0.8804,-0.8804,-0.8804,-0.8936,-0.914,-0.9316,-0.964,-1.0167,-1.0661,-1.0712,-1.0618,0.0,0.0,0.0,0.0,0.0,0.0,0.0,0.0,0.0,0.0,0.0,0.0,0.0,0.0,-0.1058,-0.141,-0.1567,-0.2579,-0.2735,-0.2929,-0.3359,-0.3198,-0.3203,-0.3298,-0.354,-0.3247,-0.3201,-0.3655,-0.3851,-0.3547,-0.3547,-0.3951,-0.4553,-0.4855,-0.5024,-0.4957,-0.509,-0.5259,-0.5395,-0.5395,-0.5395,-0.5395,-0.5395,-0.5395,-0.5395,-0.5395,-0.5395,-0.5395,-0.5395,-0.5395,-0.5395,-0.5395,-0.5395,-0.5395,-0.5395,-0.5395,-0.5395,-0.5395,-0.5388,-0.5388,-0.5354,-0.5341,-0.5334,-0.5365,-0.5385,-0.5368,-0.5334,-0.526,-0.5392,-0.5244,-0.5241,-0.5168,-0.506,-0.5034,-0.4964,-0.4938,-0.4964,-0.5093,-0.5447,-0.5817,-0.6293,-0.6691,-0.6966,-0.6993,-0.7095,-0.7182,-0.7348,-0.7589,-0.7937,-0.8427,-0.8454,-0.8507,-0.8619,-0.8778,-0.8778,-0.8778,-0.8778,-0.8778,-0.8778,-0.8778,-0.8778,-0.8778,-0.8778,-0.8778,-0.8778,-0.8778,-0.8778,-0.8778,-0.8831,-0.9008,-0.9211,-0.9439,-0.9994,-1.0218,-1.0269,0.0,0.0,0.0,0.0,0.0,0.0,0.0,0.0,0.0,0.0,0.0,0.0,0.0,0.0,-0.0314,0.0,-0.0902,-0.1293,-0.1293,-0.1603,-0.2254,-0.2393,-0.2433,-0.2492,-0.2754,-0.2791,-0.2758,-0.2708,-0.2986,-0.2678,-0.2744,-0.3145,-0.3547,-0.3915,-0.4051,-0.3816,-0.442,-0.4921,-0.5123,-0.5193,-0.5226,-0.5193,-0.5259,-0.5359,-0.5292,-0.5292,-0.5259,-0.5292,-0.5296,-0.5259,-0.5326,-0.5359,-0.5395,-0.5395,-0.5395,-0.5395,-0.5395,-0.5392,-0.5375,-0.5257,-0.5164,-0.5108,-0.5083,-0.5199,-0.5283,-0.5293,-0.5199,-0.5152,-0.5064,-0.4951,-0.4884,-0.4718,-0.4621,-0.4563,-0.4518,-0.4536,-0.457,-0.468,-0.4976,-0.5113,-0.5578,-0.5932,-0.6177,-0.6372,-0.6502,-0.6561,-0.6642,-0.6831,-0.7182,-0.767,-0.7969,-0.8043,-0.8374,-0.8507,-0.8699,-0.8758,-0.8778,-0.8778,-0.8778,-0.8778,-0.8778,-0.8778,-0.8778,-0.8778,-0.8778,-0.8778,-0.8778,-0.8778,-0.8778,-0.8778,-0.8956,-0.9087,-0.9263,-0.9543,-0.9666,0.0,0.0,0.0,0.0,0.0,0.0,0.0,0.0,0.0,0.0,0.0,0.0,0.0,0.0,0.0,0.0,-0.0118,-0.0581,-0.0658,-0.0742,0.0,-0.1218,-0.1345,0.0,-0.1568,0.0,0.0,-0.1647,-0.2076,-0.2511,-0.2644,-0.2175,-0.241,-0.2945,-0.3245,-0.3178,-0.3378,-0.3915,-0.4284,-0.4519,-0.4619,-0.4619,-0.4686,-0.5156,-0.5093,-0.4891,-0.4858,-0.4858,-0.4722,-0.442,-0.4317,-0.4317,-0.4284,-0.4284,-0.4619,-0.4577,-0.4686,-0.4703,-0.4738,-0.4991,-0.4847,-0.4727,-0.4735,-0.4975,-0.5053,-0.5087,-0.5029,-0.4992,-0.4874,-0.4789,-0.4677,-0.46,-0.4545,-0.4491,-0.4491,-0.4491,-0.4491,-0.4491,-0.4543,-0.4598,-0.4897,-0.525,-0.5523,-0.5714,-0.5746,-0.5582,-0.5527,-0.5578,-0.6095,-0.6718,-0.7074,-0.7262,-0.7803,-0.8242,-0.8454,-0.8699,-0.8752,-0.8778,-0.8778,-0.8778,-0.8778,-0.8778,-0.8778,-0.8778,-0.8778,-0.8778,-0.8778,-0.8778,-0.8778,-0.8778,-0.8778,-0.891,-0.8982,-0.9035,-0.908,0.0,0.0,0.0,0.0,0.0,0.0,0.0,0.0,0.0,0.0,0.0,0.0,0.0,0.0,0.0,0.0,0.0,0.0,0.0,0.0,0.0,0.0,0.0,0.0,0.0,0.0,0.0,-0.0807,-0.1307,-0.1642,-0.1676,0.0,-0.1842,-0.231,-0.2476,-0.2211,-0.231,-0.2676,-0.2778,-0.2846,-0.348,-0.348,-0.3411,-0.4589,-0.442,-0.3915,-0.3915,-0.3749,-0.3516,-0.3013,-0.2778,-0.2878,-0.2945,-0.2978,-0.338,-0.3617,-0.3791,-0.3853,-0.3964,-0.4187,-0.4091,-0.4092,-0.4231,-0.4444,-0.4518,-0.4844,-0.487,-0.486,-0.4789,-0.4704,-0.4631,-0.4563,-0.4508,-0.4491,-0.4491,-0.4491,-0.4491,-0.4491,-0.4487,-0.4543,-0.4598,-0.4924,-0.4924,-0.5117,-0.5171,-0.4791,-0.4736,-0.4763,-0.5089,-0.5796,-0.6312,-0.6642,-0.7375,-0.7996,-0.8348,-0.8586,-0.8752,-0.8778,-0.8752,-0.8778,-0.8778,-0.8778,-0.8778,-0.8778,-0.8778,-0.8778,-0.8778,-0.8778,-0.8778,-0.8778,-0.8778,-0.8778,-0.8778,-0.8778,-0.8804,0.0,0.0,0.0,0.0,0.0,0.0,0.0,0.0,0.0,0.0,0.0,0.0,0.0,0.0,0.0,0.0,0.0,0.0,0.0,0.0,0.0,0.0,0.0,0.0,0.0,0.0,0.0,0.0,0.0,0.0,0.0,0.0,0.0,-0.1141,-0.1575,-0.1242,-0.1141,-0.1574,-0.1308,-0.171,-0.2579,-0.288,-0.308,-0.3347,-0.3045,-0.3011,-0.3011,-0.2978,-0.2911,-0.2711,-0.2711,-0.2711,-0.2711,-0.2643,-0.2776,-0.2961,-0.2946,-0.2935,-0.3013,-0.3173,-0.3098,-0.3146,-0.3268,-0.3545,-0.3903,-0.4426,-0.4709,-0.4699,-0.4694,-0.4644,-0.4583,-0.4528,-0.4491,-0.4491,-0.4491,-0.4491,-0.4491,-0.4491,-0.4491,-0.4491,-0.4491,-0.4491,-0.4491,-0.4491,-0.4491,-0.4515,-0.4515,-0.457,-0.4598,-0.5089,-0.5796,-0.6285,-0.7155,-0.775,-0.8017,-0.8262,-0.8315,-0.856,-0.8593,-0.8672,-0.8752,-0.8778,-0.8778,-0.8778,-0.8778,-0.8778,-0.8778,-0.8778,-0.8778,-0.8778,-0.8778,-0.8778,-0.8778,-0.8778,-0.8778,0.0706,0.0706,0.0706,0.0429,0.0,0.0,0.0,0.0,0.0,0.0,0.0,0.0,0.0,0.0,0.0,0.0,0.0,0.0,0.0,0.0,0.0,0.0,0.0,0.0,0.0,0.0,0.0,0.0,0.0,0.0,0.0,0.0,0.0,0.0,0.0,0.0,0.0,-0.0672,0.0,0.0,0.0,0.0,0.0,-0.2245,-0.2344,-0.221,-0.2076,-0.2043,-0.181,-0.161,-0.1376,-0.1393,-0.1354,-0.1315,-0.1664,-0.1924,-0.2038,-0.2005,-0.2071,-0.2142,-0.2102,-0.2167,-0.2495,-0.2839,-0.2895,-0.3377,-0.4011,-0.409,-0.4525,-0.4545,-0.4535,-0.4494,-0.4491,-0.4491,-0.4491,-0.4491,-0.4491,-0.4491,-0.4491,-0.4491,-0.4491,-0.4491,-0.4491,-0.4491,-0.4491,-0.4491,-0.4491,-0.4491,-0.4491,-0.4515,-0.5195,-0.5737,-0.6502,-0.6772,-0.674,-0.7176,-0.7696,-0.7996,-0.8295,-0.848,-0.8533,-0.8699,-0.8778,-0.8699,-0.8699,-0.8778,-0.8778,-0.8778,-0.8778,-0.8778,-0.8778,-0.8778,-0.8778,-0.8778,-0.8778,0.172,0.1599,0.1566,0.0964,0.0,0.0,0.0,0.0,0.0,0.0,0.0,0.0,0.0,0.0,0.0,0.0,0.0,0.0,0.0,0.0,0.0,0.0,0.0,0.0,0.0,0.0,0.0,0.0,0.0,0.0,0.0,0.0,0.0,0.0,0.0,0.0,0.0,0.0,0.0,0.0,0.0,0.0,0.0,-0.1543,-0.1642,-0.1174,-0.114,-0.1006,-0.0639,0.0,0.0,0.0,0.0,0.0,-0.0668,-0.0969,-0.1092,-0.1075,-0.1176,-0.1467,-0.13,-0.1315,-0.1786,-0.2037,-0.2065,-0.2484,-0.3128,-0.3494,-0.3944,-0.4138,-0.4104,-0.4125,-0.4125,-0.4377,-0.4377,-0.4491,-0.4491,-0.4491,-0.4491,-0.4491,-0.4491,-0.4491,-0.4491,-0.4491,-0.4491,-0.4491,-0.4491,-0.4491,-0.4487,-0.4515,-0.4842,-0.5113,-0.5492,-0.5628,-0.5814,-0.6308,-0.7074,-0.7289,-0.7616,-0.7996,-0.8215,-0.8023,-0.8103,-0.8487,-0.8513,-0.8507,-0.8699,-0.8778,-0.8778,-0.8672,-0.8778,-0.8778,-0.8778,-0.8778,-0.8778,0.2318,0.16,0.1593,0.0994,0.0,0.0,0.0,0.0,0.0,0.0,0.0,0.0,0.0,0.0,0.0,0.0,0.0,0.0,0.0,0.0,0.0,0.0,0.0,0.0,0.0,0.0,0.0,0.0,0.0,0.0,0.0,0.0,0.0,0.0,0.0,0.0,0.0,0.0,0.0,0.0,0.0,0.0,0.0,-0.0337,-0.0337,-0.0269,-0.0236,-0.0236,-0.0135,0.0,0.0,0.0,0.0,0.0,0.0,0.0,0.0,0.0,0.0,0.0,0.0,-0.0532,-0.0951,-0.1285,-0.1453,-0.1814,-0.2233,-0.2319,-0.2655,-0.274,-0.2766,-0.2845,-0.2926,-0.368,-0.3987,-0.4322,-0.4491,-0.4491,-0.4491,-0.4491,-0.4491,-0.4491,-0.4491,-0.4491,-0.4491,-0.4491,-0.4491,-0.4491,-0.4491,-0.4515,-0.457,-0.4677,-0.4811,-0.5519,-0.6177,-0.6041,-0.6507,-0.6696,-0.6912,-0.7268,-0.7321,-0.6993,-0.7182,-0.7723,-0.7996,-0.8023,-0.8262,-0.8321,-0.848,-0.8401,-0.8672,-0.8778,-0.8752,-0.8778,-0.8778]}]]